GFSNGP_con_3kmhel_000.txt.gz
Helicity
200 118 79 -65 -32 -5 -40 -53 -43 -4 106 116 14 -10 16 86 171 204 196 183 191 201 184 197 224 246 258 261 252 248 252 234 223 231 237 240 230 202 172 145 150 159 164 152
223 64 13 13 39 2 -41 -71 -126 -57 -44 -37 62 73 42 75 148 168 184 186 189 190 196 207 237 250 252 248 245 229 221 217 225 239 241 227 206 181 160 172 173 171 160 127
94 58 67 38 104 31 -35 -51 32 -95 -29 61 86 61 44 40 79 128 170 222 243 234 226 243 222 196 202 209 208 216 218 217 225 223 214 200 183 178 178 172 170 157 129 112
53 47 105 51 106 226 237 118 166 41 105 98 112 114 101 65 27 99 194 254 276 282 269 225 208 206 219 208 206 204 203 204 204 197 199 187 175 167 163 163 150 137 119 109
55 67 70 36 15 18 57 12 -9 48 130 193 156 193 202 145 111 160 245 281 275 254 242 240 223 213 215 200 189 190 185 191 197 193 179 157 159 170 165 155 137 118 103 100
58 38 12 49 53 40 36 38 25 47 118 125 142 129 89 149 197 283 325 307 319 283 258 239 215 211 200 177 180 190 189 193 173 152 148 156 163 175 137 123 100 102 107 116
16 26 52 37 29 40 71 30 90 66 73 116 137 90 159 204 324 335 322 320 288 257 223 186 172 192 203 191 192 181 172 154 148 150 160 158 155 134 115 106 102 106 106 111
13 3 24 28 35 40 22 33 28 90 144 211 178 251 254 248 259 264 282 265 239 236 194 153 158 193 188 191 157 147 145 147 157 165 154 154 144 120 109 99 98 97 104 111
19 12 23 40 48 39 15 20 16 93 128 160 195 190 182 184 190 187 188 183 171 178 170 156 161 170 175 127 129 137 149 171 169 156 152 140 121 104 101 103 105 114 116 119
36 50 39 32 34 35 47 59 57 79 108 135 192 159 172 167 167 175 150 150 137 160 170 164 143 132 132 121 130 150 172 159 148 148 132 110 97 99 101 106 120 121 125 119
60 7 17 13 42 47 102 117 145 144 140 135 165 153 140 135 131 123 116 110 112 127 129 117 118 136 136 141 148 165 156 145 129 108 96 102 110 96 107 109 113 125 123 129
68 27 43 64 75 85 122 104 124 185 181 155 120 133 129 118 101 107 118 109 119 119 122 108 129 148 152 144 150 145 132 108 90 100 106 107 108 117 111 105 95 95 112 147
81 98 82 97 145 127 156 130 165 178 148 163 144 150 139 145 122 123 112 97 87 74 91 113 141 156 141 139 134 119 105 97 105 111 105 110 117 122 123 105 74 94 125 139
83 125 142 136 124 204 242 239 270 262 213 183 178 176 173 173 136 118 87 59 79 111 125 133 138 136 123 120 118 114 110 112 108 100 108 116 116 116 122 121 115 122 125 112
97 85 95 187 240 235 234 264 305 261 220 213 172 157 149 148 129 103 81 99 132 132 120 128 140 130 112 111 118 116 110 103 110 118 112 114 125 127 127 119 126 136 137 117
126 136 158 224 228 235 270 262 280 213 188 165 159 145 133 136 114 90 92 99 117 98 112 133 131 111 114 119 116 113 118 128 125 116 120 128 127 122 122 132 139 139 128 116
196 165 198 220 212 210 221 201 198 176 169 152 129 128 140 121 109 99 92 91 116 127 116 116 121 115 113 112 119 125 124 116 117 124 128 124 120 125 138 143 143 125 108 85
117 166 154 230 251 262 248 211 190 168 148 138 129 122 102 76 66 83 100 125 157 154 129 120 118 116 118 120 124 120 118 113 119 127 125 129 134 145 152 149 122 105 91 76
153 215 231 270 255 256 236 206 183 178 155 124 112 76 61 76 83 89 103 128 123 131 108 110 122 127 125 117 127 122 119 125 130 135 141 133 153 155 143 119 101 90 80 77
252 266 298 305 254 253 247 209 201 178 131 121 119 110 107 94 101 115 116 129 111 109 109 108 122 124 124 118 130 132 134 135 139 145 145 158 150 129 117 92 89 84 84 78
252 257 309 313 307 284 250 202 187 150 106 97 99 101 116 109 116 130 161 163 123 114 111 123 120 125 116 125 141 136 144 151 152 152 153 142 122 123 117 106 96 88 78 73
244 291 309 296 285 290 248 209 175 134 112 126 142 145 148 138 146 163 132 119 99 123 123 127 122 106 118 164 142 150 154 158 160 154 137 129 131 124 110 105 93 87 80 2
289 312 305 284 270 257 232 188 144 126 131 121 120 115 122 114 123 155 149 112 124 130 129 122 119 129 167 152 150 154 157 160 148 133 126 131 129 120 115 103 87 79 3 -39
338 334 328 296 276 256 228 166 167 161 154 140 130 118 136 164 188 162 152 134 140 135 127 123 134 143 164 148 147 152 157 141 132 127 126 114 125 118 109 95 81 44 -36 -21
323 325 287 240 239 206 186 167 201 186 185 175 158 148 147 122 124 118 126 122 131 129 127 134 150 160 148 149 155 150 136 129 124 129 128 128 116 106 96 84 66 -39 -30 -13
288 251 212 187 169 143 136 129 153 123 144 173 176 176 190 174 149 125 111 119 122 133 131 135 139 144 145 144 135 128 123 125 127 124 107 116 101 92 80 63 -34 -24 6 40
320 274 249 231 172 128 107 112 131 111 109 132 174 158 155 131 114 109 117 120 124 132 138 140 138 136 135 129 123 117 123 128 110 103 100 96 89 83 50 -19 -8 24 56 99

GFSNGP_con_3kmhel_006.txt.gz
Helicity
288 231 179 152 98 118 200 176 111 172 65 134 -30 -23 174 308 403 234 152 105 114 127 202 252 284 285 276 256 241 234 243 243 244 249 250 256 271 272 270 270 258 240 205 173
581 476 423 357 166 64 118 154 201 185 128 39 9 330 446 438 357 178 82 49 77 138 194 209 232 245 248 231 219 213 218 230 234 245 257 273 276 267 262 265 244 203 181 174
250 75 122 155 191 144 75 130 127 239 322 45 198 326 211 95 99 94 62 31 59 114 165 192 210 216 200 182 190 210 222 220 227 248 273 272 257 252 255 235 197 183 174 148
163 69 121 26 -9 140 199 52 120 143 201 319 216 83 112 120 74 79 83 57 92 162 203 207 211 206 205 185 191 205 217 231 237 249 256 247 249 244 217 185 176 158 140 126
149 115 147 193 93 -9 144 105 121 195 281 184 59 88 157 103 80 78 113 116 142 154 184 198 194 185 213 218 221 232 226 227 221 223 234 233 231 202 171 169 154 131 117 113
74 80 52 129 114 74 151 238 284 207 151 62 65 94 85 72 57 102 138 144 174 176 210 235 208 233 257 236 230 212 201 217 226 232 220 209 179 168 146 126 127 118 107 104
74 60 56 56 56 51 120 124 57 149 99 38 4 2 37 28 56 105 123 167 217 235 248 245 248 270 261 225 225 213 237 252 242 220 199 168 152 126 134 129 118 110 98 96
-9 -27 1 -6 4 -13 59 72 25 24 35 65 29 28 79 83 110 155 191 209 236 299 295 258 249 276 256 258 213 242 248 235 212 188 160 140 152 136 123 113 102 99 102 107
13 0 3 -4 3 28 36 47 6 39 70 133 133 87 134 120 145 179 209 232 239 291 293 259 237 222 262 203 223 227 223 192 167 156 156 147 134 117 102 101 99 101 102 107
33 25 8 -13 -18 26 35 22 9 47 77 114 162 129 87 133 173 209 210 235 240 270 273 262 233 242 215 195 193 190 180 165 157 154 140 119 103 97 97 100 104 102 95 87
67 17 -11 4 18 16 18 37 89 104 98 148 168 104 120 160 175 177 189 197 203 224 240 237 233 226 179 153 158 178 169 154 139 121 115 107 98 88 99 90 81 77 81 98
23 20 27 59 27 30 26 25 37 94 109 120 116 127 144 156 132 136 161 164 215 218 220 194 193 174 153 142 146 146 139 121 115 114 107 104 108 105 96 73 68 81 97 116
23 23 81 76 65 56 71 39 52 85 112 172 162 133 118 127 118 134 154 163 163 160 154 149 156 161 136 127 129 132 123 114 114 115 112 110 105 103 106 109 87 92 115 130
54 71 77 35 45 89 152 146 154 183 165 153 146 147 165 170 138 144 140 136 137 126 117 119 129 137 121 116 126 126 125 138 117 106 102 96 96 103 112 110 107 113 118 108
106 73 65 125 193 182 156 177 217 189 176 195 160 158 148 147 142 131 113 107 108 116 107 114 131 117 100 112 125 126 120 105 104 101 96 96 112 115 116 121 124 121 119 94
161 137 127 156 156 148 167 180 225 163 146 147 150 147 151 167 149 118 92 80 102 74 81 104 110 98 111 120 120 115 109 109 109 108 109 117 122 126 131 129 126 124 120 110
164 139 121 104 117 129 124 139 166 153 158 168 161 157 174 166 148 114 89 84 104 100 88 97 106 105 110 113 116 109 106 106 106 119 120 125 132 133 131 131 129 126 111 101
19 78 73 118 169 163 177 194 202 186 175 164 163 162 140 119 106 98 104 118 135 128 101 103 107 112 114 112 113 110 110 109 113 121 131 135 127 135 134 131 127 119 113 111
40 78 120 179 181 184 194 197 198 202 189 159 144 127 107 104 91 87 89 105 99 108 90 100 121 121 116 107 120 115 115 119 131 140 140 125 139 139 136 129 116 112 115 108
123 144 181 224 207 211 228 207 221 208 157 161 173 143 121 89 86 93 89 99 82 74 97 113 117 116 113 112 128 122 129 134 140 140 135 141 140 131 126 100 101 111 108 98
181 197 221 258 280 249 245 198 213 186 151 145 133 103 97 89 89 88 99 98 82 104 108 125 112 104 107 129 136 137 139 141 139 140 142 138 128 126 120 118 114 110 100 84
201 226 255 288 303 301 245 221 222 201 178 159 135 129 130 110 107 111 76 82 87 121 119 113 97 109 137 144 136 138 140 141 142 142 139 133 128 128 125 120 112 101 83 78
208 236 267 274 296 309 277 246 214 183 164 124 113 106 102 82 78 98 101 90 110 126 118 106 126 152 148 142 141 143 141 138 138 135 124 125 130 131 127 118 98 86 71 -16
251 266 293 297 314 297 297 237 223 192 164 140 128 105 117 116 105 89 123 130 144 136 125 130 136 148 148 143 142 136 133 132 129 121 124 115 130 123 118 108 100 75 -3 30
250 280 298 300 302 286 274 245 243 198 191 176 148 121 103 75 66 100 139 138 146 139 132 135 142 148 145 140 130 129 129 127 123 131 136 133 128 118 105 104 92 19 37 67
250 268 257 227 253 241 233 201 218 167 178 183 149 109 106 125 153 150 143 142 126 131 123 119 127 138 132 122 120 124 124 125 127 130 114 127 116 95 91 74 18 42 86 135
286 314 345 343 297 235 200 174 180 143 130 128 142 106 122 132 144 144 139 118 114 115 119 128 130 117 115 115 121 121 126 133 113 109 126 117 101 97 67 12 41 82 131 151

GFSNGP_con_3kmhel_009.txt.gz
Helicity
428 546 503 432 420 329 257 262 301 81 207 253 127 81 -15 -36 196 211 245 151 104 113 196 261 279 284 297 306 303 307 309 279 248 235 246 257 257 257 260 251 229 202 174 163
376 408 319 330 375 388 379 251 308 217 175 161 42 -39 -70 99 516 414 264 126 90 106 158 212 231 252 274 284 309 286 274 257 239 240 246 254 260 262 257 229 202 176 167 154
395 257 207 112 89 272 335 306 183 304 279 18 26 56 389 694 476 229 165 109 59 38 95 143 181 212 245 261 254 262 255 227 228 236 251 251 245 239 217 196 164 159 152 144
334 218 162 145 46 123 224 237 267 221 240 275 525 718 682 427 133 89 108 26 23 61 127 154 182 212 242 237 243 241 235 229 222 233 237 230 222 203 179 157 155 148 144 124
229 184 168 226 116 49 132 121 277 333 372 456 419 325 284 99 69 72 65 33 61 77 121 153 180 201 235 233 233 231 212 202 201 211 208 186 182 167 153 147 143 136 121 128
67 119 188 243 133 124 145 137 70 256 252 213 226 203 175 62 77 75 105 67 95 110 157 191 173 208 251 226 215 211 204 209 193 171 167 168 153 148 130 128 135 127 128 105
75 95 101 115 93 124 105 192 190 90 81 98 129 150 97 50 36 61 64 99 132 156 180 177 187 229 245 225 228 207 207 197 187 172 162 142 132 126 130 136 132 115 100 108
-1 16 20 37 37 40 140 163 63 10 3 50 48 43 -0 -22 15 58 111 132 187 271 254 208 212 265 259 256 190 193 189 185 171 150 133 130 141 133 132 119 109 109 108 108
12 -1 14 32 82 105 121 126 27 1 -0 53 70 37 29 42 68 127 151 169 188 301 303 244 215 225 240 158 164 176 180 160 147 145 143 133 136 120 102 103 104 102 96 95
16 7 -0 13 22 19 26 40 1 12 46 34 85 65 92 112 127 168 155 188 216 271 277 255 225 209 167 134 148 165 155 136 129 140 139 121 101 98 102 95 92 97 98 94
22 26 5 5 20 11 5 13 36 57 41 79 114 104 109 128 149 153 160 189 200 220 219 205 191 183 145 132 136 138 133 135 139 124 109 103 99 86 89 81 79 89 85 71
20 -4 30 20 40 34 34 22 41 76 90 96 112 132 121 124 109 99 124 133 183 187 196 176 179 155 115 99 115 132 138 120 107 102 96 89 88 92 104 112 106 96 81 82
32 31 30 38 53 41 45 33 58 77 103 156 111 111 129 100 87 101 123 154 158 149 151 138 136 138 115 109 114 125 118 100 94 90 86 92 98 112 119 118 88 79 93 95
58 61 50 23 40 58 93 97 135 165 176 187 116 126 169 122 105 137 132 124 132 139 126 119 126 131 114 113 118 104 94 103 85 86 91 101 110 107 96 87 87 87 104 114
76 89 66 87 123 124 120 161 201 184 173 177 118 135 132 127 130 135 130 127 122 120 103 115 133 117 86 82 94 88 86 89 90 94 98 103 100 96 98 100 101 106 116 106
109 115 103 121 137 144 134 148 192 143 156 153 146 145 140 150 146 131 108 90 109 74 74 98 97 66 71 84 92 97 96 110 105 96 98 102 104 107 113 115 120 124 118 110
139 130 130 119 108 96 69 84 132 151 198 180 145 144 168 177 168 142 104 63 83 79 73 84 83 74 80 87 99 96 93 88 102 103 106 106 110 117 123 130 130 117 109 96
21 68 32 58 109 141 172 188 205 196 175 159 146 161 165 143 122 90 75 102 131 121 88 80 83 88 94 96 94 89 90 95 103 107 108 114 120 137 138 132 123 117 107 95
1 17 55 123 156 185 197 209 200 194 180 168 176 156 135 119 78 66 71 96 98 107 70 80 109 105 93 92 96 94 101 108 110 114 119 124 144 141 135 129 120 113 101 93
63 87 128 187 183 190 225 209 215 221 181 183 180 160 134 83 75 87 93 101 60 64 73 90 97 97 93 102 115 105 111 112 117 125 135 146 140 133 128 116 119 112 98 82
115 131 166 213 237 212 211 180 207 203 155 155 164 131 100 79 83 89 108 110 71 83 92 107 92 89 89 104 113 111 115 123 130 137 142 140 132 125 120 122 117 110 90 61
168 186 210 233 253 280 242 231 234 222 194 190 176 144 129 113 107 112 74 74 66 112 99 89 86 101 103 125 115 116 123 129 135 140 144 138 126 119 118 116 103 89 76 53
184 202 226 232 261 298 283 263 231 204 190 165 141 115 110 85 78 107 103 76 102 110 99 90 105 128 130 119 117 121 130 139 146 147 135 126 122 116 116 103 88 84 73 44
214 238 281 297 317 318 323 270 251 226 213 166 128 102 114 121 129 91 113 120 132 124 103 102 119 126 126 113 116 128 139 145 145 136 128 113 116 111 106 91 94 82 45 74
200 235 263 284 297 297 304 258 281 263 233 199 166 132 109 86 69 90 131 122 136 125 118 127 130 124 115 116 125 136 144 144 137 135 138 119 114 110 94 89 75 31 61 96
196 217 236 231 264 293 277 274 282 216 205 202 173 135 130 131 139 133 130 127 111 118 110 106 102 113 115 122 133 143 144 138 129 125 107 114 108 95 84 58 14 52 91 125
282 272 309 332 291 265 252 237 248 186 156 163 177 127 132 127 118 123 120 106 105 102 97 95 99 107 118 125 136 139 136 132 106 106 114 114 100 90 58 5 43 83 117 128

GFSNGP_con_3kmhel_012.txt.gz
Helicity
218 164 130 175 197 221 400 469 195 181 83 143 35 -20 40 40 31 47 3 -6 88 120 116 102 146 196 287 340 339 324 281 290 305 299 265 241 234 235 225 206 185 184 172 166
225 223 256 339 334 213 204 333 185 125 142 209 24 -100 -43 13 61 84 76 120 113 121 92 112 154 208 302 329 325 274 265 298 284 289 254 232 226 219 210 192 191 174 170 154
221 115 162 86 96 91 114 189 200 190 221 8 1 40 51 83 284 198 153 71 78 77 110 135 155 236 305 313 256 248 280 270 272 241 237 218 200 195 190 191 173 162 150 144
235 218 95 88 91 82 98 144 181 275 313 291 324 352 535 541 308 202 98 82 98 112 137 153 187 231 226 191 195 235 262 250 227 216 209 187 183 187 190 164 158 144 141 134
199 240 166 136 107 57 47 41 73 264 351 389 426 424 365 211 156 148 116 83 42 50 63 94 123 146 187 214 220 222 212 203 191 176 174 176 181 175 164 145 137 134 128 137
63 126 99 142 119 111 87 74 98 66 129 272 245 179 106 20 56 22 41 28 11 32 75 109 120 137 185 194 193 197 182 182 172 170 171 168 165 158 142 134 129 128 133 108
84 74 63 102 124 130 56 57 137 100 47 113 137 82 13 -6 37 77 29 32 63 82 106 115 119 147 187 186 188 173 175 184 184 171 172 161 145 130 124 132 128 121 105 95
14 15 3 58 45 26 69 110 91 53 55 35 6 2 -37 -29 28 28 58 67 69 123 128 112 108 137 165 174 159 169 173 176 176 161 142 128 128 124 129 124 112 100 95 98
3 6 25 7 72 81 59 66 2 -18 -35 19 26 -12 -21 -2 18 36 57 83 98 177 171 133 113 135 204 161 153 168 167 155 146 143 135 120 121 125 117 103 95 96 99 101
21 11 -5 5 1 27 32 15 -12 -20 1 23 66 35 48 51 63 90 100 120 153 188 207 212 174 162 166 145 126 136 155 146 127 115 118 125 116 105 96 92 92 95 94 93
30 5 8 3 7 4 3 -3 15 16 30 47 81 59 64 72 81 103 130 134 160 204 215 202 171 166 135 126 131 141 127 113 120 126 120 103 95 90 88 98 92 88 96 105
37 13 -3 24 23 25 27 22 10 50 66 57 66 53 65 87 85 89 109 125 180 178 196 181 169 166 141 114 98 110 123 121 113 98 92 91 87 86 93 90 85 98 106 117
30 28 24 37 37 27 42 23 14 56 59 90 95 72 90 93 90 106 123 137 138 164 170 163 156 143 102 95 104 118 119 104 93 92 94 95 95 96 97 102 98 106 111 110
37 57 24 21 30 41 60 62 59 91 108 107 118 89 149 139 97 118 113 116 133 144 144 128 118 117 103 107 110 112 107 107 93 92 93 92 92 94 102 114 113 111 119 109
72 77 64 72 76 83 80 93 118 150 162 161 118 117 101 129 115 105 102 116 132 136 112 99 117 123 95 88 97 98 93 90 87 85 86 93 99 106 111 110 107 111 116 119
101 95 78 62 83 89 96 92 127 122 130 164 137 120 107 134 132 118 106 100 119 103 98 106 108 87 76 91 100 93 92 90 84 92 99 105 109 112 115 112 115 122 132 135
94 71 106 97 88 81 72 73 91 113 124 125 132 119 129 146 149 142 122 96 101 96 85 86 94 84 85 80 77 78 82 88 101 100 103 108 116 115 113 117 123 130 129 129
7 21 27 40 86 77 99 108 170 139 121 119 134 134 133 128 139 129 111 98 118 119 93 82 80 81 82 80 83 85 91 97 99 101 106 113 111 118 120 129 134 136 130 120
18 8 57 79 110 119 141 148 150 168 152 136 148 135 130 142 135 114 88 94 92 93 66 72 92 88 86 87 87 91 99 100 100 110 116 112 122 129 133 132 129 127 127 109
34 34 51 83 130 173 206 169 180 181 163 168 179 186 166 134 107 95 83 86 56 55 73 89 89 89 86 95 98 100 103 106 111 119 121 125 132 130 132 124 124 120 102 86
63 77 111 154 188 182 191 189 207 198 149 134 169 147 148 120 96 99 99 92 72 85 95 101 84 80 85 97 100 105 108 115 120 126 131 133 128 130 128 124 118 99 80 57
94 104 125 165 200 225 208 199 190 219 206 176 189 186 177 135 110 101 74 79 77 97 93 86 84 97 106 106 106 110 119 121 122 129 137 133 130 127 121 113 98 79 59 35
133 135 150 173 224 271 257 246 255 249 230 199 191 160 123 101 76 97 104 76 92 93 96 97 118 117 113 107 112 116 120 121 130 141 141 133 131 121 108 98 79 60 39 27
137 152 187 224 286 330 346 278 292 283 248 207 185 127 125 121 113 76 101 100 119 119 115 111 109 113 108 109 115 116 120 131 144 143 136 124 123 110 99 82 64 47 19 53
159 194 214 234 274 298 321 315 349 303 263 238 195 148 118 90 77 88 103 110 133 132 123 119 115 109 107 110 112 121 133 143 146 139 136 129 114 100 83 66 49 8 48 82
176 204 217 232 247 295 319 306 304 240 257 261 192 143 124 111 142 123 117 126 125 125 108 98 97 102 106 109 120 130 142 150 148 139 125 114 96 79 67 52 -4 39 73 96
221 260 311 302 276 269 260 235 271 245 212 220 197 132 127 123 115 118 123 121 115 104 95 89 92 100 105 111 122 135 147 142 128 117 109 101 82 67 51 -4 24 70 98 99

GFSNGP_con_3kmhel_015.txt.gz
Helicity
79 97 44 66 104 150 185 206 215 199 87 93 -63 -56 -28 -6 45 9 -36 5 35 -55 -22 83 165 205 213 209 178 196 304 363 349 357 362 290 315 268 214 194 191 186 178 172
163 110 41 152 114 57 70 100 199 226 220 140 0 -8 -32 -47 3 -21 -26 28 12 -13 25 134 175 160 188 232 247 295 395 396 335 335 320 288 247 201 187 188 182 183 179 160
57 37 85 24 60 71 84 91 126 185 166 45 26 -8 -66 -5 31 6 -2 25 0 20 74 104 123 155 248 342 426 478 531 402 273 243 255 219 207 193 199 176 171 166 156 161
79 96 17 52 84 63 72 54 48 96 171 127 122 162 151 139 125 95 56 21 17 60 94 126 169 237 325 457 464 398 340 272 202 263 222 227 218 199 183 166 160 153 140 133
62 84 189 26 42 82 62 90 21 12 94 60 102 154 101 28 39 90 32 25 52 96 116 164 206 278 380 417 386 201 221 143 180 209 212 197 201 190 164 151 143 125 138 140
43 51 34 35 56 91 50 50 -42 33 68 57 55 76 68 69 40 86 85 76 104 142 158 141 159 149 155 120 95 120 148 151 200 197 202 186 164 162 151 139 144 135 130 107
25 47 35 149 95 41 36 27 41 44 22 -2 20 33 41 14 -13 -22 -18 31 45 55 60 51 25 64 130 154 165 170 218 211 200 178 169 160 150 138 137 137 124 107 87 84
-2 7 8 45 16 12 18 10 16 60 -6 9 38 15 -7 -5 0 8 14 31 32 61 79 77 82 127 172 190 165 172 176 181 173 164 147 134 134 134 137 115 93 94 99 109
-2 18 15 6 31 28 29 27 5 -28 -29 41 63 7 20 57 -16 16 40 57 56 101 131 118 103 124 178 138 131 144 166 161 148 142 135 132 131 111 102 100 104 111 108 108
35 10 12 31 8 15 5 3 -5 6 19 35 68 45 67 59 26 40 50 75 85 115 141 147 126 145 177 130 130 141 142 135 134 137 127 111 104 102 99 98 98 98 105 113
21 48 9 30 19 8 5 0 7 49 56 67 83 87 91 75 86 120 128 128 132 152 160 170 169 176 154 137 134 153 151 139 121 104 111 109 104 96 92 107 106 101 115 118
45 21 9 28 23 14 12 23 30 52 59 73 76 105 112 109 94 103 129 128 169 179 185 178 181 173 157 152 141 131 118 109 111 107 101 92 85 86 86 89 89 90 97 114
9 48 34 21 29 32 32 33 41 62 67 91 100 130 156 114 101 124 131 148 199 202 180 174 178 192 165 130 113 116 120 113 100 92 90 88 83 81 83 87 70 68 88 113
47 53 21 25 21 31 40 53 77 89 101 104 113 116 150 154 123 137 145 138 159 193 189 182 188 169 126 124 122 120 114 107 92 89 87 85 87 86 92 104 109 123 148 135
29 45 89 74 62 65 55 66 103 128 134 131 105 104 115 141 151 112 140 163 183 203 177 148 143 134 110 101 98 95 89 90 89 88 90 81 82 91 100 102 112 125 134 137
110 89 96 72 67 63 72 79 115 140 132 131 130 127 119 124 151 162 163 153 172 148 122 119 115 98 84 85 92 99 102 100 85 78 78 83 93 95 97 110 121 129 138 149
71 76 107 114 77 66 61 86 105 139 136 131 133 133 148 170 194 194 179 142 133 122 101 90 94 86 83 87 93 88 85 85 77 75 87 96 95 95 112 121 127 130 131 131
30 43 43 51 58 68 82 113 133 150 109 132 163 149 148 153 174 164 150 139 132 124 100 94 94 90 93 94 88 82 80 82 85 93 94 101 101 111 118 124 123 125 122 120
49 43 38 25 49 103 136 133 132 154 146 168 169 155 149 158 164 152 122 109 105 113 90 89 100 99 97 91 82 82 88 92 94 103 107 96 108 122 125 127 126 120 116 103
51 53 62 62 88 131 147 149 186 183 155 182 209 200 188 168 159 144 109 108 78 80 88 96 88 91 97 93 87 92 95 101 108 112 110 114 123 133 131 122 117 106 102 89
47 41 82 126 105 114 169 209 219 212 190 190 209 197 192 177 153 139 124 116 87 91 94 96 86 91 92 94 87 98 105 114 113 116 125 132 134 130 130 126 116 103 93 72
58 65 86 124 160 181 188 211 213 227 236 211 193 223 226 195 162 144 95 94 82 94 86 86 92 101 108 97 100 109 118 116 115 127 140 143 136 135 133 123 107 96 75 52
72 94 93 121 151 193 217 217 238 264 255 226 200 184 194 169 135 146 128 80 87 83 90 100 125 121 108 105 115 119 115 118 129 144 152 152 147 138 131 115 94 73 54 21
63 98 140 186 217 257 294 265 279 287 276 251 237 201 225 213 175 118 112 103 105 104 105 118 118 118 111 113 115 115 120 133 148 158 157 146 155 139 117 91 74 50 32 40
62 122 168 196 237 280 316 315 352 349 348 347 281 235 211 167 133 111 123 112 116 113 121 129 127 114 111 110 108 115 128 146 160 166 166 167 147 124 93 71 56 36 34 78
61 86 131 166 212 272 297 318 356 333 331 323 261 228 202 166 157 148 134 120 106 113 115 110 106 105 100 100 105 115 135 151 156 155 141 137 121 99 69 52 31 27 68 104
103 126 191 211 216 253 284 310 350 319 275 269 291 222 182 170 151 137 121 102 99 107 111 106 98 94 94 100 107 124 139 137 121 122 120 116 98 78 62 39 41 66 102 115

GFSNGP_con_3kmhel_018.txt.gz
Helicity
2 18 17 31 24 39 155 215 317 221 166 186 141 38 26 -11 12 85 135 140 147 99 21 18 96 191 304 376 391 346 295 332 375 406 447 474 487 431 330 305 279 234 200 161
72 125 64 77 88 121 126 139 167 185 242 187 135 149 48 12 -47 -89 -51 20 63 39 2 93 143 251 269 274 207 227 286 391 440 497 458 515 398 347 335 253 210 191 169 133
28 45 36 14 43 62 105 120 158 222 157 122 118 152 174 81 0 -26 -19 -18 -3 -46 105 221 217 231 264 215 216 309 434 496 538 570 587 379 293 273 210 198 151 142 141 152
50 79 5 11 90 101 126 103 90 203 98 29 -2 53 49 20 17 -6 -8 27 -23 164 197 156 159 223 293 376 409 468 512 518 425 380 201 63 123 145 158 164 169 147 149 134
20 56 52 -2 38 115 101 96 92 61 72 82 113 91 47 63 31 37 76 150 144 138 132 144 191 256 332 391 362 348 377 344 195 241 123 160 172 188 177 157 165 130 120 152
17 33 14 20 88 98 92 75 73 20 39 69 48 77 73 27 37 98 123 120 111 85 117 164 185 212 253 168 174 223 165 63 104 101 77 152 165 157 174 134 124 159 151 129
14 30 19 12 59 78 48 60 38 -23 22 35 62 59 55 57 16 -2 21 64 57 98 154 139 102 135 135 108 79 62 44 1 110 151 135 142 146 122 127 159 140 117 111 103
14 14 1 17 14 31 49 46 12 -12 47 74 52 79 60 41 8 18 -7 4 37 12 49 13 17 60 56 94 107 85 99 105 149 121 113 125 154 156 140 121 116 121 130 123
28 -2 -7 -9 44 40 58 60 9 0 52 94 83 72 57 37 43 44 21 10 12 40 56 50 57 52 89 107 96 99 130 136 146 174 156 124 110 101 104 111 116 111 100 101
28 0 -9 1 44 50 35 26 9 21 62 103 109 116 97 81 49 50 74 96 96 104 112 112 90 70 60 56 85 138 175 162 126 115 114 104 101 105 102 99 101 105 116 120
19 42 44 52 16 11 19 20 48 49 79 91 102 111 140 116 94 90 102 90 100 123 131 125 113 110 102 109 126 128 112 101 90 78 87 101 98 81 87 91 95 100 97 103
53 0 26 38 18 20 35 36 50 64 106 105 135 161 133 136 141 168 162 151 156 154 161 147 137 142 112 88 91 100 94 78 84 89 86 79 82 82 73 84 88 85 86 96
22 -23 23 37 43 37 45 54 59 66 85 119 132 149 177 252 102 140 175 179 166 144 147 157 151 131 106 102 97 101 101 93 81 84 87 91 90 90 80 68 54 49 57 78
48 31 13 39 32 54 66 77 80 93 112 130 152 161 182 162 119 132 145 144 152 157 157 157 159 155 117 123 129 117 94 110 92 94 91 85 79 75 77 83 87 94 112 116
34 84 82 72 105 96 85 62 95 100 119 140 135 148 152 141 136 114 99 117 148 171 168 162 158 134 113 105 102 102 99 97 90 83 79 77 80 82 85 93 102 108 122 127
84 115 79 78 112 101 99 74 95 95 118 125 143 138 130 128 124 144 146 136 163 157 140 142 133 102 97 100 108 108 101 105 92 81 83 88 89 91 99 108 110 112 116 118
51 58 82 97 109 85 80 98 108 120 146 144 165 162 168 167 170 177 167 164 162 143 121 112 107 102 105 96 96 85 84 86 91 91 92 89 90 101 108 109 110 113 112 114
-13 -7 60 87 123 106 89 116 134 138 142 170 190 174 163 160 177 171 172 176 178 160 117 97 97 98 101 98 100 95 94 94 92 90 91 105 103 103 112 121 126 124 117 109
37 15 11 51 61 83 108 129 141 180 207 171 180 148 154 184 184 177 162 159 135 121 77 83 100 103 106 107 107 102 100 96 91 97 108 107 121 127 137 143 136 126 118 103
29 46 68 141 91 101 160 154 195 158 156 172 216 209 203 187 188 174 140 108 64 63 84 88 95 99 104 111 113 100 101 100 101 107 118 130 138 152 160 151 143 132 112 90
53 50 68 145 108 119 149 181 167 184 179 190 219 205 201 198 181 183 180 144 83 98 95 105 99 99 104 104 104 105 108 110 114 124 134 152 171 181 179 164 145 118 95 73
41 22 54 97 150 147 140 175 201 235 254 248 230 224 230 222 193 154 100 112 94 112 102 102 101 110 109 117 110 113 111 115 122 140 162 176 187 196 176 155 130 98 76 62
11 34 51 81 117 158 193 206 229 251 262 234 223 218 209 205 196 195 153 84 102 106 104 104 118 129 125 119 114 111 115 125 139 155 169 186 195 181 158 127 96 71 61 47
2 43 74 105 133 176 203 210 265 272 274 278 262 248 247 229 178 115 107 123 112 116 116 118 121 124 123 110 109 112 123 134 143 155 179 165 166 146 124 95 69 64 56 52
32 53 92 117 151 190 251 283 317 315 333 345 333 266 205 167 150 150 164 137 133 137 117 119 118 114 110 106 109 118 123 127 139 163 164 147 130 116 87 66 65 62 72 82
27 41 64 90 128 185 228 257 294 302 327 358 352 279 237 198 182 181 167 154 133 123 113 105 99 102 98 97 103 106 112 125 141 139 108 106 96 83 77 86 87 88 100 105
48 77 110 145 149 171 191 223 279 281 270 302 343 258 238 226 194 193 164 143 123 103 96 94 93 89 87 84 91 97 110 126 108 100 94 90 90 97 104 109 110 113 117 109

GFSNGP_con_3kmhel_021.txt.gz
Helicity
-18 -45 -19 43 65 99 168 175 255 309 215 259 152 108 138 208 177 75 82 61 -7 8 87 84 99 111 277 359 385 449 447 412 360 377 409 464 457 439 470 490 336 300 282 255
16 41 4 -5 62 90 114 158 229 257 321 202 111 62 61 187 223 117 84 6 -16 -55 -43 38 86 146 251 299 313 413 352 380 434 493 497 494 509 391 454 322 343 283 224 206
8 30 -1 5 24 56 94 129 167 190 209 129 133 164 97 81 76 59 56 39 15 -57 -23 151 159 127 277 160 197 306 379 409 458 477 526 468 613 543 363 255 190 170 145 125
6 35 29 5 58 68 132 141 114 155 180 136 144 241 144 62 24 55 47 22 18 86 93 128 151 235 216 295 250 367 378 402 438 471 426 421 361 253 136 173 120 128 138 160
21 16 23 -8 3 45 86 79 62 96 83 106 112 205 113 54 19 37 71 92 95 71 65 119 152 141 195 209 260 310 299 349 305 252 274 251 190 159 66 103 100 127 129 135
23 12 25 6 4 85 94 29 75 88 76 107 75 136 93 44 56 60 41 51 78 75 154 155 118 95 104 86 131 115 146 183 164 153 83 71 62 32 44 100 125 142 120 110
15 0 27 40 2 71 30 40 38 70 45 67 83 81 55 61 51 43 50 55 55 67 33 12 49 80 61 86 83 82 59 63 62 28 39 58 73 92 109 131 113 116 128 127
21 9 6 -14 34 22 41 43 53 61 59 90 112 97 64 40 35 6 -2 -32 -22 36 -14 -46 -85 -10 6 -11 -22 36 29 17 39 17 49 76 110 111 122 106 123 137 147 140
13 11 -2 15 3 59 57 41 60 63 66 102 118 98 81 59 24 18 22 -1 -45 -22 -13 -41 -32 2 58 -8 12 33 38 86 83 70 81 95 105 89 109 131 140 128 119 121
25 36 35 -11 31 27 22 17 32 44 75 100 135 145 125 87 71 61 43 6 -8 20 18 -27 -22 3 44 53 49 62 85 99 91 102 95 92 109 115 123 110 109 110 109 104
10 26 13 28 8 11 18 33 46 58 72 101 159 207 141 100 108 84 72 38 32 42 52 40 23 37 48 50 58 107 111 93 92 100 114 120 103 85 90 84 84 83 83 92
19 55 31 -2 3 24 38 35 52 89 92 90 127 171 202 173 142 116 120 109 106 106 95 76 61 82 60 76 97 112 108 95 87 82 78 82 87 87 77 78 89 92 92 95
67 28 -34 -46 -10 30 40 38 53 77 77 97 104 176 220 202 147 111 140 139 141 86 95 96 116 99 72 73 81 98 95 72 73 81 81 80 77 84 91 83 123 125 111 98
44 46 4 -4 -2 32 57 74 91 86 96 112 135 145 164 169 116 105 119 110 107 118 124 137 113 89 58 75 89 79 78 98 84 80 76 77 84 89 91 95 99 102 99 118
76 -1 26 71 87 55 99 127 141 95 100 118 102 128 127 115 112 116 112 100 116 149 135 123 116 81 67 79 90 89 89 82 77 80 82 91 88 89 96 109 111 108 113 132
23 34 53 68 53 60 100 116 134 106 85 101 113 116 103 113 105 95 90 97 137 104 92 100 88 56 68 84 94 92 90 110 101 90 88 86 90 103 117 122 126 133 143 147
43 63 86 76 87 66 88 104 114 129 101 116 127 121 120 127 129 117 103 101 123 105 79 74 73 69 71 70 85 88 93 91 100 90 88 92 105 122 126 136 146 161 168 143
16 12 -6 31 86 95 82 111 133 136 122 118 129 135 133 126 120 116 128 146 144 115 76 67 72 84 89 90 92 90 89 88 90 91 95 107 114 132 151 166 182 186 162 135
65 2 -11 4 32 82 116 131 131 161 170 127 135 118 103 116 138 134 138 137 116 105 50 61 92 96 96 96 98 91 95 96 97 97 107 124 141 157 185 208 202 176 150 126
179 73 26 28 84 130 118 147 163 174 148 107 134 133 133 141 144 130 105 86 47 43 62 82 87 97 98 99 107 99 101 100 102 110 117 144 159 187 223 216 187 159 127 98
54 43 35 53 103 94 120 151 163 151 87 103 131 113 130 150 141 128 130 104 55 81 80 93 88 84 84 99 105 103 105 106 115 122 136 158 186 220 229 197 163 124 86 55
44 29 32 33 87 79 65 82 62 94 124 137 139 165 189 174 155 125 84 87 75 96 91 90 88 90 91 115 105 106 107 115 120 134 156 183 210 214 187 156 118 75 47 39
-2 14 28 20 30 69 93 99 106 146 156 153 166 181 169 158 130 150 128 83 103 100 98 86 93 107 120 112 107 107 111 118 129 142 163 187 183 156 131 92 62 37 34 36
2 1 13 41 82 108 113 118 161 180 202 194 187 174 212 189 147 95 89 117 115 118 96 101 103 115 126 113 109 106 111 116 123 135 153 140 128 105 82 56 31 18 23 26
9 0 20 54 81 101 144 175 209 214 239 237 214 218 204 158 113 124 147 141 129 126 114 109 108 117 110 110 105 102 104 109 114 137 143 118 92 77 61 42 19 7 13 31
-14 -5 13 44 61 99 140 170 210 219 235 254 269 233 246 179 147 157 168 175 144 127 121 104 95 102 107 103 94 93 96 103 117 121 99 85 74 66 52 34 16 16 29 60
27 33 42 65 79 96 131 175 214 207 203 235 256 244 229 214 195 196 179 158 140 118 101 90 92 98 99 88 79 84 97 101 91 95 85 70 68 66 58 50 38 43 58 61

GFSNGP_con_3kmhel_024.txt.gz
Helicity
-3 -12 -10 -23 -5 6 137 230 213 290 201 294 184 131 109 173 40 71 117 36 53 33 44 108 24 62 77 78 104 212 294 347 426 404 385 406 390 380 363 387 423 440 463 402
13 8 -10 34 41 73 141 107 190 251 224 232 170 160 152 151 77 64 50 9 37 10 -8 21 -18 40 105 98 179 272 364 397 408 462 457 475 491 518 504 480 466 450 391 284
17 39 -3 21 40 92 70 108 158 135 204 154 155 99 185 118 82 51 50 18 -10 -8 31 -3 -44 -58 -40 73 254 301 401 426 486 496 474 525 480 450 435 461 432 390 316 223
13 20 26 22 8 8 65 80 126 146 178 139 147 170 212 117 92 57 22 10 31 30 74 75 129 186 284 214 254 265 296 355 333 399 398 346 360 414 391 328 337 346 199 158
15 19 26 20 8 13 50 27 41 100 96 86 95 164 156 112 65 48 44 37 60 81 110 127 52 78 148 175 140 168 151 121 173 182 198 228 288 248 201 205 141 96 60 55
17 16 38 35 19 28 56 9 49 98 86 66 75 83 69 85 71 41 46 66 61 56 78 103 60 63 90 54 42 109 122 111 137 149 128 167 110 161 107 76 46 37 78 87
25 28 40 34 21 26 20 -3 79 78 69 64 80 73 81 61 23 56 43 41 49 53 28 18 45 84 64 39 53 14 32 73 97 103 100 70 42 32 23 59 85 101 115 116
49 39 31 36 26 3 13 36 70 73 76 67 87 79 65 55 37 17 -2 -27 -50 -34 -68 -50 -60 -11 -24 -32 -82 -38 -7 9 23 32 30 33 72 49 60 93 98 96 106 122
28 27 31 14 16 24 28 33 42 66 70 98 104 72 60 59 41 6 -2 -29 -58 -68 -63 -51 -48 -38 -5 -33 -17 -21 22 25 24 39 60 71 71 59 85 91 94 98 105 112
39 34 35 51 35 19 9 16 8 29 73 106 105 117 71 76 36 12 -7 3 -2 -14 -24 -15 -18 4 -6 -19 -23 8 50 59 54 69 73 68 64 64 80 82 88 97 117 134
15 7 20 25 36 10 7 26 11 37 64 92 130 118 123 80 81 64 17 15 16 25 25 7 3 -0 -1 18 31 86 93 68 66 69 68 78 77 70 83 87 100 112 120 131
-3 10 32 27 -4 -25 13 37 18 42 78 88 106 123 124 137 139 99 84 63 61 36 37 24 41 36 38 50 82 85 77 63 58 60 59 64 74 93 103 111 125 123 110 103
4 43 39 -1 -23 -4 26 33 41 40 54 84 81 126 153 155 145 93 80 77 68 39 40 26 57 68 54 60 74 74 76 59 59 71 78 86 93 102 104 99 124 143 148 147
54 35 46 67 25 9 32 45 72 72 80 60 102 121 134 160 144 106 83 77 66 60 57 70 80 76 46 62 81 77 71 87 75 76 80 88 96 98 101 115 134 148 174 193
109 135 74 54 83 64 81 73 104 96 106 101 86 114 130 137 116 95 88 95 81 103 97 85 83 66 56 70 76 72 71 70 77 84 89 96 98 110 130 150 163 177 188 190
47 62 52 33 31 43 78 83 105 125 107 115 106 103 87 73 84 74 49 65 102 93 85 84 81 61 63 69 75 72 73 92 91 94 101 108 117 135 152 170 187 200 210 211
11 22 47 64 72 72 94 100 104 152 136 159 109 145 109 97 92 74 62 58 91 102 85 79 69 56 58 64 73 74 80 82 106 111 116 122 133 146 161 184 206 223 219 192
32 52 37 22 36 71 106 91 111 135 121 129 178 68 88 96 73 84 96 118 141 115 78 71 66 63 61 65 71 74 85 101 110 114 113 127 143 162 187 210 224 227 211 182
68 74 79 23 29 57 90 101 119 138 149 127 118 76 63 68 90 113 130 143 125 101 44 54 68 74 71 67 85 95 111 119 116 110 119 142 161 179 201 216 223 205 173 131
78 145 161 76 37 75 88 137 139 163 144 157 116 103 97 92 110 123 122 106 67 38 69 65 76 70 74 90 107 110 118 116 115 120 125 148 165 187 204 207 192 169 119 59
45 103 98 44 67 85 111 131 144 143 127 118 88 82 86 109 110 130 127 91 38 73 83 83 74 74 82 102 109 110 114 114 118 125 136 152 169 186 188 174 151 105 46 20
-9 66 46 25 19 43 46 84 135 173 101 55 86 117 123 131 130 111 69 66 83 102 92 78 74 82 87 111 106 114 115 117 119 127 143 158 169 170 158 135 99 56 28 5
-6 -29 -20 22 16 -2 46 76 30 41 79 82 90 112 108 113 137 124 84 74 116 96 93 84 77 91 108 106 111 115 115 112 115 128 142 157 155 137 124 94 64 32 8 -11
29 15 1 -9 -15 17 30 30 63 75 103 115 113 115 167 170 155 85 69 117 114 121 100 82 89 104 109 109 113 109 103 106 116 128 141 139 126 106 95 72 39 16 3 -7
9 12 21 28 26 17 32 76 118 131 152 149 193 178 176 157 147 133 128 127 117 130 114 100 101 111 105 103 102 98 94 99 103 123 132 119 96 84 77 58 35 19 20 36
32 27 16 13 17 31 58 85 108 132 163 189 197 236 291 220 159 176 166 158 147 128 127 121 120 101 96 95 93 93 94 94 103 100 95 84 76 72 60 42 36 34 38 50
51 65 53 54 58 53 62 89 122 122 130 160 194 207 226 270 176 190 222 206 154 145 135 109 98 97 92 87 89 84 86 89 81 81 80 67 62 64 58 53 53 56 60 60

GFSNGP_con_3kmhel_027.txt.gz
Helicity
8 4 14 -5 -8 39 50 66 68 140 191 275 177 131 99 90 76 33 1 10 -1 22 46 36 28 84 74 55 59 4 29 97 150 193 251 258 317 349 371 428 458 523 530 602
10 21 11 7 0 16 66 115 205 265 205 226 137 115 101 106 53 32 11 10 1 24 50 74 69 55 41 33 50 49 73 160 212 287 375 421 455 470 456 449 440 455 420 464
25 54 35 22 70 76 87 89 135 142 211 143 82 58 85 90 65 68 21 17 17 23 49 58 55 49 56 113 126 182 207 230 221 307 372 420 428 445 420 407 391 390 443 437
41 41 12 15 13 0 53 50 97 73 84 109 101 99 148 101 103 59 43 15 2 -1 -2 16 32 32 39 139 151 188 163 217 265 282 308 324 348 346 344 316 347 311 290 318
39 20 12 13 18 8 -2 26 26 90 77 96 65 98 89 82 80 67 39 36 25 21 22 28 43 49 67 96 48 39 -5 129 113 143 168 226 230 206 194 161 196 193 198 124
24 21 33 42 46 10 17 42 39 70 71 52 40 41 45 64 42 64 37 17 33 51 40 29 31 30 63 50 36 27 -2 28 80 129 154 156 199 133 152 178 168 91 82 55
15 17 37 27 33 13 34 9 5 76 46 61 65 58 60 73 58 35 19 -5 -21 -28 -50 -8 -2 16 7 16 12 -18 44 71 72 48 60 49 52 40 99 52 44 50 66 80
38 32 33 40 67 16 2 15 10 25 52 67 66 76 59 58 61 23 18 -7 -10 -38 -59 -34 -13 -18 -8 -24 -53 -22 -31 -21 -8 -18 -24 -12 6 15 27 42 64 64 74 91
29 19 21 46 50 28 19 21 21 31 30 58 74 64 67 46 48 27 24 7 -5 -7 -14 -36 -42 -17 -17 -26 -4 -17 3 3 0 -5 -2 9 37 38 44 54 61 60 72 91
43 25 -5 14 33 2 6 8 5 18 28 68 66 77 79 47 62 37 25 23 17 7 -2 1 -19 -9 6 4 9 24 22 20 28 44 42 41 41 36 51 53 59 68 80 86
35 11 -4 -19 18 39 13 -16 4 44 31 48 79 84 91 78 76 82 72 20 32 37 20 16 17 2 -2 11 36 59 41 31 36 38 43 52 52 40 53 54 59 66 72 84
37 35 -6 13 38 4 -21 -31 8 45 50 49 68 96 103 114 130 96 61 64 66 38 57 29 33 27 20 26 47 42 42 31 27 34 39 45 50 58 71 74 87 103 120 134
-17 -32 -25 4 10 -1 -8 -10 30 34 40 54 65 97 119 113 122 104 72 72 59 51 63 57 49 42 24 25 34 41 44 34 38 45 45 44 49 61 71 86 138 162 164 161
2 24 14 28 43 44 42 41 52 60 54 58 83 95 114 116 121 114 85 64 46 71 76 80 72 64 32 42 55 52 48 60 47 47 54 65 76 85 100 117 124 125 154 186
52 18 -8 19 47 72 94 77 58 58 76 97 89 126 109 123 111 107 83 72 86 83 92 89 81 58 41 46 52 54 54 55 61 69 76 87 94 107 118 128 142 164 195 220
35 8 1 17 47 50 47 54 64 70 104 117 124 163 97 98 112 111 100 110 93 76 79 78 70 49 46 52 61 62 65 84 85 84 89 97 109 124 132 145 165 194 214 220
-12 20 33 44 47 65 60 57 67 90 134 128 128 127 149 163 105 71 55 55 77 95 71 70 71 54 50 51 62 66 71 75 94 98 101 108 119 128 143 166 188 210 207 195
-4 -7 21 19 20 23 48 58 83 111 124 138 153 174 158 84 76 60 61 87 122 115 75 64 64 61 59 60 65 67 76 84 90 98 106 119 128 142 164 187 200 203 193 172
-2 17 47 45 41 36 45 80 111 119 159 155 148 105 89 81 83 81 97 114 108 106 58 66 67 68 67 61 73 77 84 91 101 111 119 131 147 160 177 193 190 178 166 133
-45 24 78 128 127 91 59 86 112 153 152 144 138 136 116 86 92 100 98 93 71 57 96 77 76 73 70 70 84 82 90 100 114 123 127 140 147 158 177 179 166 154 127 85
27 32 75 151 108 61 58 86 170 183 170 153 134 122 100 109 104 113 105 75 54 70 94 88 84 75 73 80 89 92 100 112 126 131 137 139 143 158 166 154 142 127 97 58
-35 3 11 39 39 34 22 55 97 116 134 138 139 114 118 118 106 82 62 71 103 90 112 97 81 75 75 92 94 100 110 120 123 129 131 130 134 138 142 131 119 100 69 39
29 5 -12 -35 -18 9 30 55 39 43 76 105 92 103 79 104 95 127 86 74 117 101 115 91 78 74 80 97 97 106 113 120 125 120 114 113 111 114 120 114 98 78 49 28
34 42 32 21 3 -7 -38 -27 18 1 30 47 53 85 116 133 126 104 95 119 126 121 109 104 84 80 107 98 101 107 113 118 117 109 98 84 93 95 101 98 82 59 41 19
30 20 6 19 30 23 20 11 12 20 17 21 35 86 118 157 176 153 141 146 133 136 128 95 88 101 101 95 97 100 107 112 103 94 83 80 72 76 78 77 70 57 52 53
37 41 52 56 41 36 25 22 38 54 89 118 133 136 156 168 175 239 176 169 176 130 130 118 128 127 97 91 92 97 106 101 91 81 79 76 71 72 72 64 58 53 54 59
35 76 76 84 80 89 78 68 67 67 81 110 142 169 203 224 196 180 173 201 197 183 170 143 131 102 90 88 93 95 100 88 77 77 72 71 72 73 65 59 55 55 61 68

GFSNGP_con_3kmhel_030.txt.gz
Helicity
17 12 23 20 21 45 85 103 43 40 84 156 140 104 32 36 73 22 1 4 13 19 19 30 48 82 84 83 71 59 129 220 93 48 63 155 218 237 300 319 338 379 407 433
27 30 9 18 -10 0 22 43 130 135 156 140 89 18 52 64 60 30 19 32 21 18 15 25 36 75 85 92 85 76 85 76 73 147 183 236 252 277 311 314 337 339 328 369
12 25 27 19 18 46 89 133 136 98 119 70 65 14 39 77 70 6 30 8 5 18 31 24 20 42 54 66 64 48 30 73 125 168 191 202 225 266 271 306 327 325 335 348
10 35 28 17 30 29 29 68 85 53 55 60 73 54 103 111 71 23 43 40 25 29 45 32 6 13 11 57 53 64 25 -57 58 129 147 166 199 210 223 221 259 260 280 297
28 30 25 19 36 35 27 53 23 65 67 47 35 45 60 78 78 69 40 40 43 39 31 12 -1 -25 19 74 63 50 16 19 -23 -6 134 167 203 201 257 269 240 256 210 218
33 32 29 39 59 24 19 46 28 5 -21 32 56 33 39 71 56 47 30 23 5 -9 -24 -3 13 9 33 29 30 25 29 22 34 51 107 140 166 183 159 157 138 133 144 101
38 37 42 21 29 27 49 36 23 -6 -2 15 78 60 73 76 46 16 16 33 19 2 -24 -33 -13 -35 -11 3 -9 7 20 25 10 9 21 28 45 35 25 39 57 63 53 40
55 44 36 37 76 31 23 13 6 -4 -6 10 61 66 87 75 48 26 6 21 19 12 3 -15 -19 -16 -14 -13 20 -6 -21 -9 -12 -30 -24 -16 9 9 12 -14 -1 8 51 68
29 44 36 37 48 40 55 18 9 5 3 18 63 62 86 78 66 46 25 19 16 21 10 5 -14 -13 -16 -15 -23 -10 -5 -9 -9 -15 -17 -14 4 7 10 16 29 30 44 54
65 41 29 30 9 13 6 10 9 3 2 41 55 78 93 92 94 60 57 36 15 34 45 21 7 -6 -6 -10 -7 10 22 16 7 11 11 5 7 7 17 21 27 33 42 52
62 22 -8 9 27 60 48 15 2 6 11 17 61 77 106 107 109 92 83 46 45 38 53 48 22 22 11 8 29 41 33 19 19 19 21 27 30 22 25 19 26 35 45 60
53 58 12 -3 16 29 -1 -7 -4 -1 29 37 55 81 102 124 140 134 116 68 85 51 63 56 48 39 30 23 42 53 47 34 28 28 29 36 41 49 62 63 69 72 64 61
13 7 -8 -11 -1 16 3 3 3 18 23 44 55 79 99 117 140 143 130 113 108 86 67 68 61 57 33 34 44 44 46 34 34 38 35 33 31 39 47 52 90 101 114 134
21 2 8 43 41 71 44 48 58 60 48 50 68 77 112 128 144 159 142 127 112 104 73 66 63 66 37 39 45 49 48 61 45 43 46 51 57 64 74 85 91 98 124 146
58 17 8 8 -5 11 41 73 71 59 55 70 81 95 116 150 148 145 162 145 111 112 97 84 71 57 37 39 50 58 52 49 51 53 55 68 73 80 87 93 99 107 125 156
-34 -21 -16 -2 6 15 37 61 57 55 52 71 88 109 128 145 206 149 161 150 142 88 100 84 66 48 49 52 62 59 52 63 63 67 74 75 76 82 87 96 109 130 145 159
-4 -8 -8 21 33 44 39 55 62 58 58 77 98 141 156 168 166 149 146 101 89 108 83 89 72 58 56 56 56 55 60 63 82 81 81 82 85 92 101 110 120 131 139 149
6 19 36 23 46 47 39 42 59 53 69 94 137 154 153 117 112 133 103 104 88 91 83 70 76 71 63 58 59 65 72 78 81 83 84 88 90 97 101 109 121 133 140 141
17 17 22 43 45 46 51 30 44 67 93 129 151 128 127 132 132 126 123 112 104 104 67 80 74 76 68 59 71 73 80 87 90 90 90 93 99 97 101 109 121 127 128 127
-12 32 24 49 60 79 96 87 60 78 114 132 147 152 123 107 125 139 127 99 82 75 102 85 92 82 73 70 78 79 85 89 90 89 89 91 87 86 98 101 112 121 119 111
-11 4 7 39 27 28 75 56 38 84 153 150 137 128 120 146 131 133 130 93 61 81 101 94 91 90 83 83 89 89 92 91 86 86 89 89 81 84 87 97 107 112 109 102
19 -14 -21 -15 49 23 24 38 50 64 94 98 129 115 128 152 134 108 81 83 98 99 110 106 97 89 89 101 94 94 93 88 84 90 91 83 76 71 77 88 96 102 96 83
25 9 -2 -11 -24 -23 -30 -43 -25 1 34 53 54 76 106 118 125 119 60 57 98 91 111 103 97 97 98 109 101 96 89 86 84 87 82 73 63 64 73 84 90 97 91 70
16 11 6 7 -3 14 15 12 -14 -26 -41 13 44 65 104 157 148 133 89 108 111 108 103 106 104 102 123 119 107 94 88 86 84 85 70 51 65 73 78 79 84 87 83 53
22 21 22 31 24 20 19 21 10 22 36 17 9 27 56 88 128 143 135 136 107 143 133 97 102 104 145 118 102 91 85 83 82 85 72 68 72 71 74 81 88 85 82 88
39 35 29 31 34 53 59 50 39 41 38 45 61 83 97 108 130 200 211 224 186 141 143 139 126 155 134 109 95 86 83 75 76 74 71 80 83 77 72 69 75 73 76 83
61 70 67 76 71 85 79 80 86 84 72 65 67 92 122 137 167 207 214 169 174 175 167 180 184 155 124 97 89 81 78 68 68 72 77 88 86 79 70 71 74 79 87 90

GFSNGP_con_3kmhel_033.txt.gz
Helicity
24 25 30 39 35 39 68 94 30 47 45 85 97 60 40 16 44 19 24 19 15 16 21 31 35 34 41 75 93 104 118 145 118 78 94 110 101 131 129 187 234 234 242 275
24 23 10 23 14 17 15 26 60 57 104 115 53 18 -10 7 28 14 9 16 18 13 14 17 27 26 42 56 64 63 82 82 26 64 81 120 144 181 226 222 219 222 220 251
25 18 23 26 27 49 75 88 70 68 91 51 61 -1 -13 12 24 24 29 4 32 18 23 34 55 26 51 49 63 46 54 14 -36 -3 99 129 143 159 177 191 210 218 228 246
22 30 33 20 25 31 62 78 91 79 76 71 63 11 -14 54 39 25 33 4 16 6 9 33 44 41 46 49 46 41 33 -0 -12 -13 79 109 121 140 152 164 179 206 229 201
22 21 16 9 14 44 41 81 56 77 84 37 -10 -18 39 46 33 30 27 16 -19 -21 -15 -6 20 30 29 15 18 62 54 31 -0 7 12 33 63 144 146 163 186 207 218 201
30 30 32 33 71 51 40 63 48 26 8 -1 -16 12 27 39 44 35 26 3 8 3 -24 -29 -35 -29 -26 7 -1 30 47 49 30 6 58 92 59 85 139 118 176 137 143 116
46 37 35 19 53 31 58 48 42 12 -3 -8 -12 22 55 67 50 36 34 6 8 5 1 12 -0 -35 -62 -57 -44 -54 -51 -26 -16 -11 -2 2 12 11 22 38 37 56 55 52
64 56 32 45 84 49 50 56 36 20 3 -5 -2 63 69 75 58 42 50 33 13 13 7 1 11 9 -11 -11 -36 -38 -28 -20 -22 -21 -16 -1 2 -0 3 4 17 13 7 13
33 22 30 40 102 65 49 59 29 23 16 14 16 44 80 81 71 65 67 51 37 31 28 14 6 2 10 -17 -31 -20 -8 -1 2 -5 -7 -9 5 6 8 9 12 13 21 26
68 29 17 13 40 2 22 40 31 12 21 25 28 46 85 103 78 82 99 74 48 52 38 41 10 21 7 -1 1 17 21 15 8 15 13 10 9 10 16 14 15 19 27 37
60 24 20 14 41 31 38 46 24 18 15 18 36 52 87 107 97 88 115 114 49 58 38 46 32 29 25 23 36 36 24 17 21 21 23 29 29 18 23 15 22 34 36 43
42 23 37 25 34 17 -7 11 16 -4 21 23 39 59 86 105 124 117 122 125 118 81 69 50 57 41 41 33 35 41 41 27 23 29 32 35 36 37 52 58 66 67 66 65
58 49 17 12 13 33 5 19 40 10 18 38 45 71 94 117 115 123 127 141 146 126 101 79 70 63 43 36 39 38 45 34 33 37 32 33 33 36 37 35 63 71 80 90
82 50 14 16 23 37 21 41 55 60 62 60 49 72 101 119 118 137 127 134 167 146 134 101 88 63 43 39 43 47 43 53 38 34 37 39 38 38 38 46 57 68 89 113
89 78 21 30 25 16 -1 28 59 70 81 74 62 60 100 129 129 110 151 173 176 188 173 132 103 60 45 47 52 54 54 47 44 45 47 54 55 60 63 69 77 86 99 119
41 15 6 18 3 26 36 42 48 73 74 72 60 63 72 113 147 155 180 206 175 145 142 96 93 74 58 57 65 63 57 66 58 57 59 62 65 71 73 77 78 77 86 108
23 10 4 -0 23 30 48 48 41 66 79 69 55 73 106 139 169 163 163 134 118 148 112 109 101 87 71 65 64 67 67 60 66 61 64 70 73 70 70 73 75 82 95 108
7 21 14 -16 12 46 68 52 47 52 68 51 68 105 130 149 146 140 142 155 154 142 107 84 102 94 77 71 72 78 72 67 64 67 69 70 72 73 74 76 79 81 87 99
45 1 11 34 40 48 88 95 68 48 54 72 105 106 121 127 134 147 174 168 122 110 53 80 92 92 88 72 84 81 77 74 73 74 73 80 83 77 73 70 72 76 84 90
25 -28 -6 17 28 42 81 80 88 80 59 79 105 121 121 128 141 159 138 99 80 100 133 93 109 102 93 79 84 83 81 83 82 79 81 81 77 72 63 55 64 72 84 87
21 -26 13 65 53 30 47 61 56 54 45 87 126 130 129 133 123 156 145 80 61 82 120 113 112 107 97 94 97 94 92 91 88 82 80 76 71 65 54 55 62 73 80 77
39 5 -20 -30 -22 -10 -21 -27 -22 -19 -10 49 98 133 146 105 110 137 128 101 91 77 118 117 107 97 91 100 105 100 97 95 91 88 80 74 70 54 48 57 61 71 71 68
33 15 2 3 -10 -23 -22 -13 -16 -24 -34 -49 15 50 60 80 94 142 105 122 108 98 106 108 91 93 96 106 103 100 100 97 89 82 74 73 64 49 55 61 64 66 66 61
16 13 9 10 6 15 20 15 12 9 24 13 -28 3 57 76 79 99 226 171 115 127 141 126 92 90 127 114 106 103 100 95 87 79 70 62 58 62 71 66 61 60 62 52
24 21 25 41 43 34 31 28 27 32 35 37 38 37 44 24 52 109 164 173 134 149 141 105 112 103 121 113 107 102 96 89 81 79 76 67 56 68 75 71 67 61 62 74
37 44 50 62 60 63 69 83 80 75 62 55 53 46 60 73 75 98 130 166 199 200 187 181 133 164 136 112 102 99 94 84 76 78 73 61 63 74 78 70 66 64 68 80
45 62 64 66 43 43 45 55 62 70 73 75 75 80 82 100 114 126 140 153 174 195 167 174 187 176 165 140 118 100 88 85 68 67 66 65 74 84 77 69 69 73 82 86

GFSNGP_con_3kmhel_036.txt.gz
Helicity
36 34 30 44 38 20 38 52 45 68 40 50 35 49 35 13 25 19 26 23 32 49 40 32 32 34 47 55 69 98 104 95 105 92 50 43 67 103 140 151 79 80 166 122
24 22 14 20 20 19 11 7 18 34 50 73 61 25 14 33 8 17 33 21 30 42 47 43 61 60 52 42 72 90 65 58 35 -5 -2 -2 21 34 54 50 51 74 43 101
35 31 25 26 38 36 49 55 39 23 64 61 53 26 18 7 2 19 10 21 17 8 12 18 19 24 32 55 82 66 47 39 25 1 17 11 28 79 115 139 140 141 149 153
46 39 34 41 35 30 1 20 9 25 47 56 47 18 14 4 7 12 6 2 18 -11 -5 -24 -29 -12 20 42 46 37 43 45 61 35 47 39 27 77 122 143 148 161 198 202
47 37 42 24 22 37 27 73 28 44 92 73 32 10 -5 10 21 24 21 36 1 -24 -34 -43 -44 -44 1 18 32 38 44 33 41 33 44 37 61 79 103 108 134 163 193 204
42 51 53 48 49 45 46 54 89 53 59 37 14 12 7 40 32 28 36 28 14 -9 -6 -22 -40 -51 -51 -41 -41 -23 -10 -7 14 51 74 75 75 105 95 97 127 147 149 113
32 43 37 26 73 68 54 69 71 73 57 23 15 23 39 55 45 33 42 41 25 12 11 6 -8 -22 -28 -34 -29 -51 -55 -44 -28 -16 -13 -6 2 6 24 37 44 38 22 11
52 54 42 52 104 64 80 79 64 90 50 24 15 25 43 49 52 49 53 49 29 21 20 17 3 9 9 9 -10 -16 -11 -7 -1 -5 -10 -4 6 -1 4 7 16 12 11 12
34 44 45 37 82 101 75 61 54 48 33 24 18 14 31 47 63 64 68 65 55 33 31 27 16 18 29 -3 -11 -7 11 14 9 5 2 1 13 11 10 11 15 18 20 24
65 31 1 37 39 50 45 40 60 42 25 10 16 21 28 51 71 85 80 88 84 42 46 45 34 26 29 11 6 8 21 20 15 20 22 20 19 13 19 21 25 32 43 51
53 36 58 59 62 59 42 33 33 33 18 12 6 18 27 53 73 88 82 110 98 56 43 53 48 40 28 26 24 28 26 27 30 26 33 39 40 32 35 34 33 41 53 58
64 42 48 61 73 64 35 30 22 25 33 25 20 15 35 54 78 103 112 113 112 101 76 68 63 63 48 35 37 36 40 34 36 39 39 40 43 48 62 64 68 76 65 58
62 69 62 70 54 36 47 51 33 10 31 38 35 35 35 63 79 106 130 122 117 106 119 115 91 81 67 44 40 42 46 51 48 45 43 42 42 40 43 57 80 82 72 71
93 73 41 41 52 57 39 54 59 43 52 59 61 55 47 62 93 109 114 123 143 150 135 129 97 90 76 61 56 64 60 55 48 47 45 45 44 43 43 42 46 61 81 86
74 88 76 49 19 15 17 21 28 42 59 66 71 69 56 62 76 84 106 135 173 202 183 140 103 99 97 75 70 73 67 57 53 54 53 52 54 56 57 63 68 74 79 91
65 59 45 35 30 20 21 28 45 62 57 79 72 66 52 47 62 86 122 166 211 228 185 144 125 95 97 88 82 79 68 66 61 60 54 54 60 60 69 76 76 76 79 88
51 51 46 32 28 17 20 36 29 42 59 50 70 61 61 59 76 96 125 145 162 183 165 167 127 91 105 99 83 82 81 70 63 62 52 61 67 72 79 82 83 79 79 94
47 39 21 6 25 48 70 69 63 52 43 74 81 69 74 81 78 103 144 171 194 180 155 153 158 115 97 96 85 85 82 77 71 60 65 70 75 85 86 86 81 76 85 97
55 21 -23 -13 16 32 56 78 92 96 75 76 88 67 64 81 100 131 176 181 179 166 134 148 127 81 86 88 101 94 83 81 74 71 71 81 85 81 81 81 76 75 81 86
37 11 -27 5 30 6 16 30 55 58 76 30 64 74 79 92 121 149 164 151 137 154 160 160 79 73 82 93 99 95 86 77 76 77 80 82 83 81 84 77 66 68 76 80
38 18 1 -14 31 31 21 21 36 52 8 27 62 72 78 103 112 129 133 147 136 146 127 114 115 108 99 109 103 92 85 84 82 81 83 85 86 84 83 71 60 66 68 71
70 34 14 -9 -13 -11 -7 -16 -17 -21 -19 -7 8 59 92 125 156 148 121 117 185 123 131 127 109 94 108 108 101 88 83 77 89 92 89 88 87 85 78 66 59 66 66 66
65 20 5 -2 -3 -9 -8 0 -4 -3 -4 3 -10 -14 26 56 80 118 92 95 167 130 156 150 117 93 94 112 96 99 84 79 92 89 90 89 89 84 78 70 69 66 62 58
15 16 7 5 0 6 17 24 18 18 19 24 18 31 20 27 43 80 110 92 128 126 191 151 112 111 114 111 115 99 72 86 90 91 90 87 88 87 82 77 74 70 64 54
40 30 18 12 1 -7 -7 -9 -6 19 39 43 42 38 37 46 24 49 88 117 131 182 175 154 163 135 165 129 117 79 74 87 88 90 86 85 82 81 82 79 77 72 65 63
40 43 44 51 51 49 38 38 33 35 45 55 60 58 57 59 59 68 103 91 117 156 191 210 189 162 183 136 115 102 87 84 81 82 88 88 69 76 77 75 72 65 65 68
44 54 64 69 73 68 54 43 43 41 41 34 34 48 59 68 72 81 88 111 126 158 167 167 163 187 191 168 146 132 129 128 105 130 125 96 70 76 75 71 66 63 64 67

GFSNGP_con_3kmhel_039.txt.gz
Helicity
60 67 52 47 48 39 52 46 67 70 59 31 67 50 33 35 36 11 21 24 28 31 47 58 63 61 75 88 73 67 70 92 104 111 121 125 101 86 80 98 82 126 107 122
37 25 23 28 21 18 7 7 9 38 60 83 61 37 45 36 18 15 25 15 19 28 46 38 42 56 64 60 62 63 84 73 96 99 94 84 58 51 56 90 104 104 85 57
45 26 25 5 1 12 24 39 25 24 64 64 89 56 25 25 19 26 18 22 16 28 23 1 -6 11 27 36 40 38 26 41 69 80 77 67 68 85 105 100 79 89 88 87
47 43 27 41 41 35 4 25 -1 16 32 67 61 24 31 25 20 25 19 23 20 8 -16 -23 -14 -7 6 14 23 20 37 56 79 95 88 81 84 92 99 108 131 111 131 173
51 38 45 18 35 39 23 19 9 3 20 28 29 33 13 27 43 35 34 39 26 -17 -11 5 -15 -29 -25 -10 -12 -6 24 27 48 70 93 101 93 95 93 97 99 89 89 132
45 47 48 63 40 36 25 37 54 35 59 56 45 43 36 36 34 33 37 44 6 1 22 17 -8 -17 -20 -15 -21 -21 -20 -14 -10 -5 4 23 48 83 89 106 115 88 74 39
34 45 44 37 47 69 58 71 84 88 93 68 42 61 40 34 31 38 44 50 19 28 28 22 3 -0 4 4 6 -7 -8 -15 -18 -10 -6 -4 -3 -5 -1 6 13 12 11 17
46 54 40 70 92 87 102 88 70 84 94 87 62 43 28 29 45 50 55 44 33 43 38 34 27 25 25 33 11 7 6 -1 -3 -2 2 9 15 4 4 9 17 19 24 29
50 53 45 18 95 122 102 78 62 56 71 94 63 24 13 26 45 53 52 42 45 58 46 38 33 32 36 32 21 22 19 14 10 7 13 13 21 23 22 19 22 27 28 40
65 29 22 38 35 69 84 71 69 76 61 33 37 21 11 24 49 69 65 52 57 73 59 45 39 27 39 36 24 31 34 31 25 22 28 28 26 22 29 32 38 44 54 59
52 33 59 48 42 44 50 53 45 47 43 32 22 16 5 25 48 75 83 74 68 70 68 46 37 34 42 43 46 49 45 44 43 33 35 41 44 39 45 53 52 57 69 70
64 38 33 67 59 100 65 45 52 53 42 27 28 21 25 29 51 85 101 123 85 76 83 87 67 52 51 56 55 60 58 48 46 45 44 44 49 63 86 81 81 90 90 94
50 71 101 105 93 80 63 53 50 42 36 37 33 42 45 55 65 87 117 132 125 113 105 104 106 97 73 69 59 62 61 60 57 48 50 52 48 47 55 70 77 85 85 84
96 90 71 64 74 61 60 49 40 36 34 41 43 60 70 67 87 81 96 107 143 137 134 143 138 120 116 91 75 70 79 67 59 55 53 55 60 54 54 56 54 72 91 85
70 108 125 85 54 50 33 19 15 17 24 38 48 60 75 73 72 63 77 106 134 160 169 198 191 174 162 111 98 83 82 72 62 67 65 66 72 65 60 59 61 74 88 92
77 77 70 54 53 34 28 28 14 21 38 53 55 51 70 65 65 62 84 132 157 169 196 222 238 203 174 157 120 102 85 81 78 80 76 68 73 61 54 61 70 73 87 101
55 56 60 42 38 51 51 39 25 24 33 32 47 59 71 85 77 76 86 112 106 141 192 222 232 215 183 166 114 124 97 95 88 86 76 71 71 59 63 68 71 81 95 109
58 44 41 47 46 53 51 45 52 69 79 65 57 63 65 79 73 74 92 125 136 176 184 205 234 220 180 156 129 136 114 100 99 84 81 79 72 74 74 72 72 81 91 96
65 58 43 16 18 40 56 54 52 72 106 102 70 55 83 87 87 99 144 138 137 157 168 213 215 231 196 145 142 134 131 104 92 87 82 79 81 76 77 75 76 86 90 83
83 56 25 8 -2 20 32 13 -3 11 39 63 50 39 37 33 79 106 110 114 137 152 178 199 255 241 140 117 102 121 116 98 91 87 89 78 77 83 81 72 74 83 85 82
58 39 23 9 22 40 48 52 59 58 40 35 24 22 40 72 77 95 108 113 136 149 187 206 220 193 160 131 129 150 114 99 92 95 92 70 82 81 82 77 79 90 83 82
72 52 37 26 21 2 -8 -25 -28 -17 -6 -9 -11 -12 -16 19 77 115 141 120 133 146 192 202 199 172 131 117 168 146 117 102 101 117 97 81 87 86 86 88 89 95 91 89
102 70 32 8 5 -8 -9 13 11 12 6 8 1 -10 -14 -6 -8 44 61 97 137 148 171 170 155 121 126 186 171 138 118 116 132 136 88 87 90 92 95 92 96 100 94 92
49 38 10 5 -2 2 23 31 24 21 26 27 32 30 27 27 24 17 22 46 86 121 153 160 143 137 178 204 164 148 133 129 125 114 81 85 97 99 94 88 96 100 97 85
35 17 8 10 11 10 -3 -6 -13 -3 8 15 26 33 39 42 37 40 39 17 48 113 118 114 138 142 166 245 223 182 154 159 114 106 88 93 94 93 90 86 89 96 97 95
29 29 31 32 32 36 40 42 34 34 32 24 23 30 37 46 46 48 54 59 50 55 49 77 134 187 217 223 211 188 193 185 141 143 138 122 112 121 96 82 94 97 96 92
30 28 32 36 46 55 57 59 41 34 30 27 27 32 39 41 42 50 55 66 73 84 80 89 121 136 160 172 183 191 173 160 152 165 152 147 125 118 92 92 95 97 95 90

GFSNGP_con_3kmhel_042.txt.gz
Helicity
87 73 80 64 70 74 118 111 125 91 116 85 68 77 69 67 72 42 51 46 44 47 78 94 82 53 62 83 97 106 91 100 115 107 106 101 108 110 106 97 87 77 72 74
52 36 39 47 49 50 62 63 35 98 114 229 135 104 78 73 60 37 49 37 45 64 68 57 40 21 32 51 52 55 75 78 75 91 82 74 95 99 83 102 118 113 109 110
58 47 26 32 28 51 75 79 56 36 39 108 112 123 105 69 37 43 48 48 56 55 42 24 19 25 27 27 47 50 50 49 58 60 57 64 69 66 95 117 123 132 127 92
45 46 38 22 54 45 89 66 59 26 56 75 114 93 55 54 32 62 43 44 61 39 35 27 19 1 4 4 13 21 45 49 44 38 53 45 67 102 112 114 109 100 93 96
44 36 26 48 36 44 46 28 45 47 54 99 107 66 48 70 76 70 67 94 64 55 43 30 1 -2 -7 6 10 2 -4 2 8 10 8 9 42 62 62 70 75 75 61 57
42 37 35 38 19 26 43 39 42 34 70 35 75 58 45 78 88 100 94 64 56 46 49 23 4 -5 6 16 12 8 -8 -1 0 1 -3 3 -8 -6 -5 -2 -3 -12 0 10
36 45 36 19 13 44 58 36 56 81 79 90 79 56 35 64 65 68 76 71 57 47 44 20 4 4 30 23 13 0 0 7 8 1 3 -9 -18 -10 -15 3 -4 -7 11 12
70 54 30 62 70 77 79 71 62 79 81 96 82 53 51 58 80 77 83 71 51 70 55 23 13 19 30 30 11 10 19 19 11 4 -4 -16 -8 -10 -23 -2 5 12 27 31
47 34 29 10 56 127 103 70 64 70 69 81 85 101 66 69 71 70 86 72 58 69 77 37 14 24 39 20 11 16 20 19 13 8 1 -2 8 9 12 21 28 27 35 43
101 39 44 39 76 85 74 76 69 72 58 45 47 61 74 61 79 74 84 80 80 93 87 56 14 21 43 30 13 21 40 42 32 30 30 28 32 29 32 36 30 39 43 49
78 42 55 45 57 85 80 79 81 78 72 61 55 47 45 54 78 90 106 113 107 101 90 74 52 36 56 30 32 63 59 52 50 37 48 56 53 47 48 39 43 52 57 63
68 27 70 57 99 125 95 85 84 63 54 47 31 33 43 65 84 103 129 139 134 101 110 111 84 70 72 62 68 77 70 59 47 52 54 48 52 53 64 59 57 70 77 86
73 107 139 186 195 183 133 104 81 57 39 33 35 32 51 66 89 112 151 181 156 130 143 167 129 124 114 91 87 78 78 74 67 63 60 59 57 58 50 49 55 60 68 73
140 151 129 124 112 112 101 84 60 35 27 26 34 53 62 64 92 123 156 182 185 176 179 186 169 162 161 149 128 104 94 90 84 71 69 68 64 59 60 63 60 60 62 73
155 150 139 121 104 94 72 53 47 35 31 34 27 41 61 69 73 95 140 175 165 167 181 198 198 195 210 184 161 130 119 106 97 90 84 78 78 70 65 64 61 57 66 65
102 93 95 105 95 63 56 57 43 38 40 42 45 49 60 54 61 72 90 152 184 156 184 204 181 215 235 220 192 147 130 106 111 109 101 93 79 67 60 60 60 59 61 72
78 70 71 64 58 62 49 46 32 20 21 39 43 38 46 58 53 72 85 125 167 147 159 185 184 247 242 254 229 165 155 126 122 128 109 88 78 64 64 69 61 60 64 73
64 49 46 46 51 43 43 42 51 56 57 72 86 78 62 62 59 66 87 123 144 131 135 157 199 235 257 254 215 187 180 144 141 137 114 93 77 67 69 65 58 55 55 68
66 44 34 33 29 32 44 63 79 72 70 75 96 113 82 67 71 85 95 123 148 126 105 143 153 237 254 228 208 200 188 164 146 146 116 82 74 77 70 57 56 54 57 62
77 68 61 39 23 23 37 51 61 45 42 28 31 51 58 52 56 47 65 98 114 106 123 156 190 237 247 236 171 197 188 161 162 148 123 96 85 94 75 44 58 61 59 64
79 60 51 38 46 66 55 47 38 33 36 41 43 41 33 24 19 46 65 58 65 86 118 158 197 209 259 231 187 181 172 181 162 154 119 105 101 94 65 59 67 72 71 74
80 61 48 48 65 34 2 -15 -18 -18 -19 -14 -10 -12 4 4 0 4 28 41 72 92 130 150 171 195 204 202 213 191 210 184 177 157 117 110 109 86 61 67 73 82 78 75
114 108 70 58 29 8 -13 -6 -5 -6 0 -1 7 17 13 10 20 4 -12 17 77 76 125 148 132 125 144 214 192 182 187 191 178 153 133 122 90 83 71 81 86 88 84 74
128 75 44 44 22 14 -2 -1 17 18 20 20 15 8 17 30 32 34 45 33 19 50 93 112 104 107 154 208 168 157 171 178 170 146 141 121 102 92 82 84 90 89 70 60
63 47 41 42 27 13 9 10 16 24 24 23 20 15 7 6 28 46 41 41 28 44 106 68 79 93 153 164 140 152 184 195 203 183 196 168 149 147 144 118 88 82 80 84
35 38 30 19 14 19 20 23 21 24 35 27 17 15 18 20 22 31 38 43 43 43 73 54 46 66 93 104 123 170 186 182 177 180 182 132 114 125 118 100 92 75 74 77
39 23 25 22 22 27 29 34 45 56 54 51 41 30 27 26 28 37 39 45 46 63 71 54 52 63 94 88 94 101 127 151 156 167 139 121 118 117 109 106 75 68 79 88

GFSNGP_con_3kmhel_045.txt.gz
Helicity
71 63 74 62 99 102 101 100 58 43 95 65 89 77 61 69 97 99 77 77 64 86 94 90 80 64 53 66 90 108 105 129 104 106 123 132 121 114 105 80 76 81 92 102
67 51 51 53 57 69 66 67 46 82 93 131 62 134 167 127 98 87 75 76 90 89 74 66 56 38 33 50 60 69 90 100 86 102 121 113 100 100 96 105 114 103 95 99
50 61 49 29 52 87 90 123 107 54 80 151 172 155 138 121 85 73 74 88 95 70 57 45 23 18 27 33 45 73 73 71 75 70 71 83 102 109 113 91 82 104 111 105
48 88 56 32 49 55 83 107 120 88 55 29 101 103 122 97 83 89 98 107 83 59 54 35 22 22 11 15 7 28 43 39 34 39 54 65 72 71 67 59 62 64 82 62
61 44 19 -10 34 42 54 22 83 90 51 74 159 187 145 101 86 91 103 105 79 63 52 35 22 18 32 16 15 21 18 20 25 23 17 17 19 1 -4 12 16 4 -2 12
41 34 25 41 37 28 52 31 46 77 81 120 149 88 62 86 124 147 133 103 90 64 41 40 36 28 40 9 6 15 8 18 15 -11 -15 -8 -11 -11 -7 1 5 0 8 -5
32 36 20 7 25 41 42 24 32 34 60 93 83 36 51 72 91 92 90 88 74 60 40 43 27 43 37 27 1 -7 9 12 -5 -11 -8 -4 -6 -3 -4 -10 0 8 4 -7
60 41 31 24 58 29 19 34 37 62 85 103 90 87 56 47 70 90 94 78 64 68 47 41 36 43 39 13 -3 4 14 7 1 -2 0 4 11 -1 -10 9 19 17 19 17
54 26 14 6 15 46 35 39 30 45 52 65 86 80 75 66 70 83 83 76 74 75 57 53 46 38 45 18 9 6 14 15 11 10 10 12 12 10 10 15 33 32 33 33
73 52 45 35 49 48 59 55 57 49 64 62 43 38 39 73 175 145 88 82 85 88 74 62 45 30 39 38 4 7 21 17 22 30 32 37 37 33 41 39 40 39 41 42
90 55 49 37 52 73 89 86 89 92 76 59 56 48 49 54 58 83 121 90 99 100 84 72 47 37 50 46 29 15 35 38 40 40 51 58 53 38 46 31 37 50 48 49
98 35 64 52 60 124 126 93 83 76 75 75 58 47 52 53 80 99 93 118 119 102 94 87 83 50 54 64 63 57 58 55 54 61 52 55 64 63 50 45 50 55 58 57
88 88 52 96 149 149 147 116 98 80 65 53 46 43 45 52 72 103 130 148 145 133 120 124 108 90 95 89 99 89 80 70 66 76 71 76 65 64 60 41 34 39 46 52
81 195 143 128 110 161 137 116 99 79 56 36 35 44 52 54 68 80 120 138 172 180 156 147 140 131 134 152 157 133 110 85 91 85 80 79 74 73 73 66 57 46 36 44
202 214 137 139 154 151 134 105 89 67 61 61 56 41 48 50 57 60 77 136 184 190 179 179 165 154 182 182 172 149 148 135 115 100 92 85 90 89 79 73 60 49 55 54
131 145 135 130 112 100 86 79 63 54 50 42 46 49 45 48 58 64 65 114 167 154 167 172 172 202 192 190 194 190 177 156 144 136 120 121 112 102 87 74 67 57 51 50
58 94 108 101 71 69 65 55 46 34 31 42 47 61 65 62 67 69 67 81 112 132 141 153 154 192 203 208 190 194 206 195 165 164 143 120 113 105 90 84 72 64 54 47
81 93 93 65 55 54 58 57 43 57 68 73 73 79 100 105 99 100 85 67 88 122 110 106 153 171 182 208 222 227 228 197 195 181 166 137 117 106 93 86 74 79 57 50
64 74 57 47 35 28 26 39 47 48 66 70 64 68 90 123 122 102 91 84 104 100 79 103 125 134 175 204 225 229 218 199 187 183 162 132 130 121 98 87 86 91 57 53
57 42 42 41 44 41 40 39 31 30 13 11 23 35 39 58 63 63 68 62 64 82 92 105 125 131 151 174 197 226 198 177 195 194 185 172 154 134 94 80 93 94 60 60
66 58 67 63 49 33 38 39 37 29 6 5 11 12 27 36 39 40 43 45 64 63 58 84 138 139 166 187 233 219 197 176 185 184 177 158 141 115 96 96 91 86 65 71
48 58 73 64 46 41 43 19 0 -3 3 6 5 9 13 12 5 1 2 -1 9 38 77 93 119 130 169 169 202 189 209 192 152 191 167 154 142 123 108 110 84 79 70 81
63 63 94 76 45 27 15 -3 -12 -5 -1 0 5 0 3 16 28 34 32 45 43 24 50 87 91 91 103 139 197 190 190 179 152 160 166 173 156 146 134 98 78 80 85 88
73 112 103 59 52 44 31 4 -4 6 2 -2 7 16 18 29 33 38 33 39 32 27 50 79 70 60 82 170 167 183 181 121 98 131 149 141 153 143 150 148 129 127 124 88
24 34 77 69 39 54 35 17 13 17 27 33 35 29 20 5 18 17 24 26 36 41 52 48 49 63 94 145 144 147 129 88 88 136 156 154 158 167 152 120 128 111 93 85
20 31 46 51 42 32 20 20 18 23 31 29 25 29 34 35 28 30 30 35 38 42 50 40 44 56 106 119 106 91 73 85 110 143 159 146 165 141 101 94 91 92 89 76
32 56 79 59 40 29 22 16 20 22 30 34 35 38 43 37 33 33 37 32 36 42 51 49 43 49 81 85 72 52 55 61 78 93 114 122 124 110 108 102 103 95 72 70

GFSNGP_con_3kmhel_048.txt.gz
Helicity
46 52 58 50 81 94 138 157 90 5 -35 18 22 47 66 85 107 125 109 99 101 111 99 86 79 72 60 67 87 100 104 89 96 106 121 127 133 147 139 134 122 102 104 111
79 56 52 56 52 67 92 69 50 21 -64 51 62 155 109 85 125 112 101 99 107 110 90 72 59 59 64 67 68 66 77 81 75 84 103 114 128 126 119 126 129 143 143 119
47 88 74 39 59 122 113 134 145 109 183 130 89 86 84 133 135 98 112 119 114 89 72 62 53 55 48 53 59 61 57 56 52 69 94 103 102 110 125 138 146 138 132 108
35 86 72 34 63 73 107 109 109 87 106 64 89 71 115 136 125 102 122 143 114 99 81 65 59 53 33 28 35 27 18 23 27 38 49 56 67 84 97 97 88 75 85 79
60 46 -10 2 36 51 54 26 75 90 79 85 89 140 137 139 110 97 149 130 108 100 83 66 58 46 21 17 27 38 40 20 11 16 25 33 39 32 34 36 45 45 40 38
58 25 16 48 83 47 25 31 56 60 100 146 120 130 156 150 160 180 159 141 128 113 87 66 53 39 17 15 15 42 38 10 11 9 15 20 24 25 22 30 34 20 13 17
47 38 21 14 21 26 44 24 36 34 89 137 185 93 81 102 137 116 125 134 119 101 71 53 55 36 23 21 6 54 40 26 21 10 10 16 24 25 21 19 19 17 19 19
66 49 33 19 56 40 18 30 36 32 53 104 126 81 68 83 85 89 104 110 96 89 65 54 47 43 32 19 31 54 35 31 12 11 13 22 32 20 17 20 25 21 22 25
49 34 26 10 13 21 30 29 31 37 36 78 104 72 55 70 72 66 77 86 82 78 70 51 41 45 38 29 38 46 32 29 24 8 15 32 33 21 20 22 32 34 38 43
78 46 43 33 33 35 29 24 38 47 43 36 53 72 72 60 58 71 92 85 91 87 66 52 34 35 33 55 39 41 37 39 30 16 22 24 24 33 38 42 47 45 46 47
108 87 75 52 40 53 57 61 70 71 69 69 69 53 62 57 48 38 107 161 115 99 81 60 59 27 35 66 64 42 41 39 43 41 45 43 43 49 55 43 49 56 50 54
96 33 81 93 75 92 112 78 73 88 90 81 66 56 55 47 64 95 107 107 112 118 93 74 82 76 53 70 73 65 54 53 59 67 67 60 69 74 59 58 55 52 49 49
72 122 86 70 62 78 110 102 102 94 86 71 68 55 50 44 49 63 117 144 135 135 121 97 100 91 102 97 96 78 62 69 72 80 86 85 86 84 81 66 50 45 39 33
158 97 89 118 64 114 152 148 121 102 87 71 59 52 43 40 52 53 71 113 132 150 160 153 137 115 127 147 145 111 85 63 97 96 103 98 93 89 90 91 86 73 43 39
97 286 126 135 184 190 167 133 117 96 79 70 63 57 53 45 40 42 53 67 119 150 159 177 159 135 166 172 163 145 125 126 120 120 118 106 113 108 100 100 96 85 79 61
125 291 204 156 160 161 144 126 95 82 70 46 48 47 43 39 35 40 62 74 117 106 134 152 144 156 178 175 182 174 163 142 153 160 151 150 149 141 120 106 102 95 88 81
232 256 105 77 122 129 111 84 74 63 52 42 32 38 49 51 57 60 71 78 78 84 119 143 132 164 193 205 207 210 215 206 154 178 180 169 168 156 143 125 111 100 92 81
119 128 126 66 54 79 71 80 83 60 52 56 62 61 65 67 74 101 115 115 94 88 79 86 115 130 155 173 224 236 211 194 220 209 195 172 164 165 156 143 130 107 97 93
50 48 68 73 76 67 65 66 64 56 54 54 59 55 54 62 82 108 130 120 103 96 105 115 102 115 110 134 188 235 235 213 234 225 198 179 177 167 164 155 139 116 99 102
63 57 87 99 104 71 69 75 70 56 42 34 22 25 27 19 14 34 53 66 71 85 122 119 126 100 116 124 132 211 222 225 266 245 200 202 190 186 189 162 148 130 108 102
38 58 70 78 84 70 57 51 44 39 31 25 21 23 15 12 18 30 40 55 54 52 56 94 96 98 128 144 140 208 214 221 209 213 192 168 174 210 182 159 157 140 115 115
53 78 94 122 107 67 53 53 44 37 30 24 19 18 18 21 27 33 26 24 51 66 54 48 70 81 101 93 175 164 186 193 189 210 194 176 165 151 147 156 153 142 134 135
25 44 62 128 129 73 51 62 45 18 1 0 4 12 15 15 19 27 40 49 45 50 52 49 38 44 72 104 156 166 178 175 175 189 178 143 130 138 140 150 156 161 148 132
33 40 44 72 117 84 56 48 36 6 -1 6 7 2 -6 1 13 31 22 32 35 38 42 46 55 51 72 120 140 156 165 154 150 165 157 72 106 130 144 154 164 140 106 92
23 22 32 57 82 89 65 75 45 19 13 15 12 6 8 10 23 27 30 34 42 45 47 59 49 40 70 122 136 140 137 135 135 130 59 56 113 147 154 146 121 109 94 94
14 18 23 26 43 77 73 42 38 31 26 26 24 22 13 13 18 27 28 42 39 47 43 48 55 61 68 84 107 114 101 84 66 63 54 54 85 96 99 107 105 79 82 97
23 10 12 42 67 77 59 45 44 28 24 28 26 21 27 28 34 45 50 42 48 47 48 44 40 44 69 66 64 54 57 59 41 42 57 80 91 94 105 108 94 91 94 96

GFSNGP_con_3kmhel_054.txt.gz
Helicity
75 86 74 70 78 114 121 102 86 111 80 134 133 51 36 -35 20 95 91 92 95 110 123 114 107 95 75 59 40 48 57 80 96 106 116 123 131 132 132 131 121 113 121 126
56 65 46 61 56 72 63 66 -25 52 76 64 79 92 74 44 52 74 100 80 107 126 119 117 109 93 72 54 50 46 53 73 90 91 103 102 110 119 122 121 114 115 129 120
49 70 62 49 31 150 167 163 139 35 211 104 32 18 10 -49 39 101 121 93 108 121 125 123 118 106 80 70 72 77 77 76 77 85 89 98 103 107 107 113 107 119 122 118
47 62 76 35 41 50 61 58 106 75 89 150 121 65 55 49 61 87 114 107 85 143 147 136 138 116 102 85 78 82 75 64 57 59 65 77 91 99 99 102 106 95 93 84
57 39 23 36 31 8 31 31 28 31 28 59 103 97 54 79 82 97 64 106 127 154 165 174 152 124 102 85 78 78 68 57 52 49 53 62 68 72 80 85 69 65 57 54
65 39 18 19 29 1 17 33 55 43 33 26 50 41 69 66 71 61 88 128 157 178 192 178 138 124 101 80 78 65 59 56 51 48 52 60 58 69 61 55 53 39 54 47
47 39 18 8 11 19 45 25 26 11 15 14 62 88 38 113 114 105 127 155 184 189 160 133 129 110 82 80 63 60 64 60 51 51 47 53 66 63 57 53 43 43 38 38
44 39 14 1 12 13 4 20 9 10 2 13 8 27 63 115 109 113 104 136 150 164 143 120 105 92 81 66 72 72 67 66 60 57 55 55 62 64 64 39 39 34 32 28
45 27 30 21 10 5 16 13 -3 -4 2 1 -1 6 58 90 93 89 76 84 105 115 108 115 105 72 80 63 85 82 73 75 75 69 70 64 49 52 55 47 45 44 48 46
60 33 31 66 63 34 22 34 31 21 19 16 11 32 37 33 43 46 46 59 86 101 91 83 83 77 70 82 91 90 80 79 88 74 56 48 47 60 61 55 58 58 60 58
32 6 -12 25 70 43 94 94 44 26 33 30 34 13 20 24 30 42 56 77 36 63 117 85 99 76 75 88 103 88 83 89 87 73 39 46 46 62 59 56 75 73 68 70
8 -3 -35 -28 -2 25 44 67 119 46 61 71 68 63 65 49 44 53 65 79 71 48 49 61 99 106 80 98 107 102 93 84 80 79 74 67 70 64 46 45 42 41 56 71
42 36 17 1 -37 18 -38 16 72 69 67 89 104 90 79 70 61 47 56 78 92 93 99 105 88 57 99 111 124 118 101 104 90 79 82 95 96 97 91 86 66 63 65 64
52 20 7 35 16 -2 19 44 24 84 98 99 101 114 96 82 79 66 45 39 61 90 107 122 121 103 122 132 137 136 130 97 125 118 113 118 111 112 118 117 114 101 74 63
54 60 64 55 37 44 34 128 6 114 114 123 121 106 100 82 68 57 55 57 50 52 67 101 115 112 149 159 156 150 159 159 160 161 155 138 136 127 124 125 117 112 118 110
34 56 82 80 50 46 79 132 -32 83 122 103 87 82 69 56 46 45 51 57 50 48 47 70 87 101 156 181 169 160 156 144 175 194 200 192 177 157 149 142 137 140 141 139
24 45 74 62 56 61 66 55 -43 57 105 101 79 59 46 27 40 56 66 68 63 60 72 70 70 98 121 158 174 164 172 179 161 203 207 225 231 225 196 200 182 168 157 163
21 43 47 51 62 29 -5 22 23 46 77 119 64 44 22 46 59 66 68 71 81 103 127 128 112 105 104 121 151 172 190 198 203 196 198 238 248 246 250 198 208 205 182 175
5 31 43 31 24 44 68 80 66 55 77 114 57 64 65 74 77 68 65 70 80 98 121 133 134 101 94 95 132 178 178 186 190 185 205 205 237 241 240 217 174 178 197 195
-15 10 22 47 43 63 61 65 70 76 88 87 71 71 68 65 61 64 58 52 53 45 39 45 58 69 77 90 103 167 177 187 179 188 208 206 215 234 224 180 178 189 188 195
-0 -6 14 40 69 72 99 128 156 133 199 120 87 66 49 41 36 32 34 38 43 51 50 54 50 50 56 55 82 122 145 162 158 167 170 166 184 202 211 208 192 187 174 197
-3 -9 -11 13 54 98 112 117 131 194 101 47 34 32 27 28 24 23 24 33 26 47 39 42 63 68 75 73 82 103 135 139 132 134 149 144 171 187 185 185 181 187 158 165
6 9 -11 -6 11 57 97 119 136 98 76 56 46 40 26 14 12 16 29 22 21 31 22 32 36 45 42 62 79 85 99 112 123 137 142 151 152 158 168 174 173 166 140 112
5 14 -1 -1 13 33 66 135 131 159 91 71 46 33 27 26 17 8 11 23 30 28 20 25 32 38 31 68 78 79 84 94 106 122 119 98 130 140 140 138 126 109 88 92
9 2 6 20 5 25 38 89 88 85 126 93 67 59 50 28 16 21 18 13 21 14 15 26 45 50 45 48 61 68 78 79 96 104 110 102 110 104 97 99 81 71 96 104
10 16 11 16 19 16 6 24 93 125 121 99 88 71 63 53 41 34 21 18 11 23 18 19 27 38 41 48 51 53 56 53 51 57 71 74 71 63 60 50 59 77 97 93
23 13 6 26 21 7 7 -2 20 41 105 146 105 76 55 44 39 34 28 15 18 19 16 21 30 43 42 46 50 52 52 52 46 46 47 61 57 54 64 74 85 96 98 101

GFSNGP_con_3kmhel_057.txt.gz
Helicity
72 76 90 89 76 88 83 75 79 79 38 37 39 28 -8 29 49 45 74 76 71 85 85 94 105 105 101 93 84 81 84 82 87 113 128 128 138 147 159 153 143 129 127 134
87 72 61 68 73 67 49 53 15 18 48 19 77 86 50 -16 45 14 43 109 78 90 120 120 118 113 103 93 83 79 64 59 70 94 95 102 110 118 125 127 127 126 127 128
58 63 45 25 32 87 134 132 99 71 111 99 91 105 52 42 44 -11 -16 92 138 117 113 124 129 129 112 97 93 78 61 64 68 75 81 87 104 110 112 111 106 121 120 107
41 56 73 27 46 42 41 39 88 63 67 81 74 68 39 73 61 40 -30 39 94 115 139 138 139 143 135 117 93 89 83 73 66 67 72 73 92 102 103 103 103 103 101 98
63 48 20 19 25 33 24 47 42 27 25 32 36 32 41 84 77 73 122 98 74 115 148 176 162 159 144 123 108 97 82 70 67 71 72 69 60 77 82 94 92 85 71 58
65 51 25 10 13 8 24 48 31 31 22 20 24 43 92 62 66 32 70 110 111 126 178 208 170 166 154 118 109 90 78 66 70 70 62 66 60 60 56 57 58 42 37 50
50 41 43 25 16 25 59 58 55 42 44 19 19 42 22 30 77 92 84 99 124 167 189 175 168 159 131 115 91 81 89 87 73 59 68 57 53 36 44 30 30 30 53 47
43 50 63 49 21 54 31 15 3 15 -2 40 26 -1 10 44 82 84 82 108 128 172 165 141 138 143 117 85 85 92 97 88 79 76 65 56 54 54 38 25 24 35 49 37
45 40 33 28 7 37 35 -0 13 20 36 8 18 2 6 38 69 74 65 89 85 97 106 110 116 114 100 70 82 90 88 84 82 80 77 60 56 49 45 33 37 45 51 48
69 74 60 -31 7 2 -22 -10 42 6 20 7 8 4 9 23 33 40 42 40 46 63 71 81 85 92 94 88 77 89 89 90 88 88 74 68 67 53 43 48 56 50 56 56
53 65 25 43 33 -21 -11 3 -4 34 43 52 21 7 10 18 29 35 37 43 38 50 25 62 92 104 108 96 82 92 94 93 91 87 81 72 52 55 52 44 60 64 59 63
37 25 12 70 84 70 34 20 -30 1 66 139 47 40 46 48 47 44 50 59 61 47 63 47 68 83 99 116 111 112 85 91 92 85 81 75 63 63 34 30 35 28 39 66
38 22 10 4 -11 -32 7 27 29 11 76 93 96 68 78 64 68 54 59 66 66 67 80 97 101 101 116 135 101 128 140 104 99 91 85 83 86 82 76 69 39 39 39 44
-24 -27 -14 4 9 16 7 19 28 57 87 115 100 99 96 89 81 70 58 50 50 56 66 87 105 101 124 141 121 96 125 101 115 114 109 105 102 100 109 108 102 100 67 66
2 -16 -32 -12 -0 -6 18 16 24 52 113 157 122 122 104 81 79 71 70 67 65 54 50 60 73 70 123 141 144 127 126 129 139 139 135 125 136 125 119 116 111 109 119 102
4 6 13 26 21 17 19 38 80 110 145 102 97 144 102 71 63 59 59 59 52 49 54 53 53 65 112 145 139 134 133 128 147 162 169 177 174 166 168 163 142 129 131 116
-22 -4 18 36 32 35 39 50 62 97 71 66 56 100 87 73 44 58 66 69 57 56 63 65 65 81 90 124 147 143 147 148 119 162 174 177 189 200 190 203 191 192 177 190
-23 -30 -33 -22 14 17 18 39 49 -1 -2 19 53 71 96 63 41 56 78 78 77 85 111 110 109 101 97 100 114 130 137 138 149 164 165 183 189 197 213 194 205 209 200 187
-2 -4 5 -24 15 28 22 9 36 -8 45 56 62 68 112 69 65 87 92 79 87 83 100 97 114 118 113 95 88 107 112 129 140 148 161 139 156 170 219 229 225 244 201 197
-4 2 -2 -0 -19 15 33 52 61 50 64 53 65 71 100 81 71 66 57 53 61 54 59 59 55 58 66 68 51 71 88 105 126 148 166 158 155 160 178 173 195 204 207 191
55 1 -11 -6 -18 -19 26 57 66 64 62 67 81 94 79 70 49 45 47 44 54 58 62 68 53 46 48 54 60 69 78 100 116 133 131 131 135 124 153 162 169 181 181 185
77 67 -0 -22 -15 -25 2 6 47 77 68 83 138 138 96 72 39 34 37 41 34 50 38 37 48 45 54 61 57 67 87 96 103 109 105 119 128 126 139 152 149 165 173 170
41 56 36 -0 -25 -1 -16 22 34 64 100 53 51 27 58 62 38 35 36 37 33 34 22 23 47 51 47 49 48 53 61 70 71 71 81 91 106 116 119 133 144 153 155 146
21 24 31 29 -13 4 -8 -11 21 42 75 150 84 25 36 55 39 18 16 28 36 38 25 25 38 60 62 39 44 50 56 55 60 67 72 65 88 102 106 118 130 128 110 92
36 29 31 25 -1 1 17 -3 15 53 72 91 99 96 72 61 38 43 32 26 33 28 17 28 41 49 35 35 39 43 48 53 56 62 66 71 71 80 87 99 97 86 79 67
54 36 33 16 12 9 16 41 -10 23 70 107 103 96 118 79 31 36 37 35 28 27 17 15 15 24 27 32 40 46 48 48 54 53 56 57 50 47 46 57 54 38 44 58
33 13 14 7 -0 -3 -4 19 41 -12 7 35 103 160 142 107 61 45 49 47 39 28 20 21 22 27 31 36 34 41 47 50 46 47 53 51 53 47 42 41 49 56 70 79

GFSNGP_con_3kmhel_060.txt.gz
Helicity
56 43 39 44 26 39 13 10 24 33 26 21 34 44 56 41 24 61 61 52 50 55 47 60 69 78 86 92 93 86 81 72 71 81 98 119 131 140 150 157 164 153 137 118
75 73 52 45 35 45 27 9 24 12 55 69 79 29 11 16 28 31 41 76 35 35 41 50 62 77 94 93 90 82 72 75 83 83 80 98 116 122 129 145 141 136 119 116
82 75 56 49 31 35 62 65 59 45 56 38 45 54 42 25 27 34 77 60 -11 42 58 66 82 95 92 92 94 87 76 72 80 82 81 79 101 121 120 125 120 126 121 113
64 46 53 64 43 57 34 41 24 8 50 69 54 51 70 88 39 45 24 49 57 18 55 56 89 108 122 119 110 96 88 86 88 90 92 92 100 114 126 123 105 112 109 94
70 74 76 40 36 40 59 73 65 95 111 100 77 49 64 46 46 47 32 29 63 30 25 76 114 135 153 147 130 114 99 82 81 84 93 99 93 100 111 112 97 93 92 82
76 94 103 87 65 35 33 84 125 128 108 80 62 19 73 50 48 47 58 70 84 42 72 115 133 152 163 147 126 109 97 92 91 81 87 91 94 110 100 93 81 70 63 53
48 62 86 84 80 53 76 135 106 86 72 53 30 21 61 61 44 31 61 83 78 84 88 114 155 170 145 135 123 95 101 107 102 91 94 97 103 95 88 85 59 36 20 27
47 51 80 140 56 75 65 40 32 52 36 37 33 28 20 37 45 28 55 76 73 93 115 131 152 142 140 113 108 121 108 100 99 92 96 92 97 95 75 57 29 22 25 30
46 91 80 56 15 55 61 36 32 24 27 21 26 33 28 21 23 21 38 57 67 88 123 129 111 117 117 108 131 118 126 108 81 96 98 92 89 79 69 54 39 37 40 34
67 85 81 31 30 55 18 -16 -7 8 10 21 19 36 33 23 20 17 28 37 56 69 71 81 82 93 110 133 117 98 185 101 90 95 92 93 86 71 65 54 50 55 45 41
49 45 50 32 51 17 24 45 16 15 25 39 34 34 55 38 19 21 25 40 34 26 35 53 60 67 108 105 119 110 98 86 90 86 86 87 73 72 52 44 56 66 55 54
61 57 44 61 50 56 28 34 41 13 34 55 62 42 66 51 57 60 30 45 46 57 54 44 58 61 75 107 121 99 160 142 98 84 90 82 83 69 26 36 32 29 41 57
43 31 18 7 -5 -14 15 32 36 34 17 31 75 91 79 66 74 73 56 66 50 45 52 66 77 88 115 140 150 144 102 147 172 95 83 87 86 68 69 59 31 34 28 34
0 13 0 -6 17 -2 -2 11 7 27 38 39 31 88 115 107 102 111 95 60 58 56 47 49 58 65 93 148 151 130 135 72 132 176 102 93 86 80 86 90 91 84 52 56
22 14 -29 -68 -70 -12 16 19 11 8 18 45 59 72 152 151 125 126 111 84 73 61 52 54 50 39 70 101 139 140 137 122 94 108 104 80 97 112 110 102 100 104 112 102
16 20 -3 -3 -13 -19 10 22 4 16 26 50 73 116 154 160 154 136 111 76 69 56 67 69 56 60 69 83 97 109 121 114 132 148 159 149 146 145 143 137 130 137 163 168
23 24 13 0 17 21 10 15 28 17 19 38 16 27 112 96 99 159 111 71 55 59 74 76 73 85 75 70 82 106 114 113 102 139 154 156 161 162 163 178 168 169 176 168
62 49 25 17 10 5 1 4 26 38 43 39 53 52 52 55 59 144 112 50 43 56 95 99 101 100 87 86 92 115 122 120 129 131 127 138 141 153 164 176 185 171 181 217
37 52 56 49 44 24 15 11 2 28 41 44 81 65 71 74 41 89 121 63 66 64 94 103 118 108 108 104 95 111 122 123 126 129 138 119 127 139 147 152 165 178 189 214
14 20 32 43 46 44 43 12 13 0 34 36 47 78 88 100 97 142 151 72 70 71 82 89 88 83 84 88 83 79 88 108 115 118 122 121 125 135 152 142 155 154 178 192
71 58 32 34 45 47 51 43 3 -14 11 54 61 69 83 91 130 184 134 98 54 57 62 75 71 62 60 60 54 47 50 54 63 75 90 96 107 116 107 121 131 138 121 139
78 70 54 34 35 48 47 45 19 -8 -16 69 90 91 115 113 132 118 77 52 51 65 55 51 57 70 58 68 63 59 63 67 76 94 100 107 93 87 85 102 112 109 105 116
79 38 29 19 39 50 47 32 19 9 -5 2 59 81 89 111 141 130 115 55 45 55 49 43 61 75 64 46 55 61 64 66 66 74 84 74 68 73 79 82 95 104 106 108
74 55 44 23 23 14 15 29 17 4 3 2 18 40 64 85 114 99 100 45 36 46 44 46 48 59 53 41 39 39 39 47 60 57 61 62 68 69 72 76 79 78 80 88
50 49 46 18 2 -5 4 14 31 7 4 -5 14 69 33 28 63 113 125 132 49 22 29 41 48 47 36 35 34 34 36 40 43 37 43 49 55 58 58 60 60 56 48 46
41 55 53 14 -11 -8 13 14 8 11 23 6 4 49 95 61 65 81 73 94 62 28 26 31 34 31 31 29 28 33 36 37 35 36 33 36 43 47 47 44 42 40 31 31
19 22 40 16 -5 -21 -7 26 10 10 18 28 1 5 61 109 104 99 89 66 50 45 41 34 27 30 29 31 29 30 32 37 34 30 34 38 41 45 47 49 50 52 61 57

GFSNGP_con_3kmhel_063.txt.gz
Helicity
65 59 60 49 22 14 29 18 29 7 14 21 67 97 90 61 49 44 33 40 52 62 80 82 62 72 85 99 111 109 109 102 97 94 103 104 107 117 134 151 181 182 168 157
48 46 37 35 29 23 -10 -13 -8 6 14 32 47 51 65 65 54 34 23 26 45 73 75 70 67 71 85 89 94 90 83 76 76 80 81 83 82 105 133 150 159 162 152 146
46 42 33 25 14 14 26 37 60 38 65 97 83 68 63 61 58 34 18 23 50 71 81 80 70 71 79 95 101 91 83 85 85 81 89 91 92 98 108 131 147 153 154 144
79 71 57 87 58 79 83 91 90 82 105 99 85 68 67 57 77 58 63 73 47 72 62 76 37 87 126 131 110 104 94 92 90 87 82 87 96 105 125 144 155 158 158 134
86 71 90 41 70 98 116 140 151 150 125 112 94 61 15 62 75 49 47 52 51 111 124 96 65 124 150 152 135 117 107 96 102 108 97 95 105 115 129 146 169 168 146 133
87 104 109 155 99 85 88 79 149 124 116 111 102 76 90 93 83 63 51 42 68 101 81 65 105 175 160 153 149 136 119 116 121 113 104 109 113 132 134 144 157 139 137 116
76 112 121 154 99 63 92 155 135 96 81 69 55 45 50 48 57 26 27 52 59 64 68 73 129 130 153 170 165 145 133 133 134 127 113 112 137 133 146 147 140 119 107 81
86 94 88 113 85 108 117 63 52 40 28 24 19 21 25 28 29 27 23 42 58 60 60 93 129 127 132 136 142 147 136 148 155 150 143 129 129 152 146 132 94 73 58 38
82 97 81 83 69 58 49 49 37 27 25 17 11 7 9 13 26 23 16 26 42 45 50 63 75 94 113 122 134 137 145 145 150 153 146 151 118 132 126 100 73 58 52 51
84 95 65 71 48 27 72 45 22 15 13 15 13 11 12 19 26 32 29 24 42 51 48 54 66 85 114 122 111 122 136 144 161 182 167 158 134 131 118 106 84 69 60 58
77 74 62 69 66 91 44 23 14 36 34 20 13 14 22 29 39 48 44 52 50 48 54 50 43 45 76 102 105 133 159 164 148 177 214 121 93 100 97 81 74 79 76 75
102 86 46 37 51 35 11 16 39 36 25 25 9 9 14 9 33 52 59 79 73 63 61 78 74 78 84 112 111 128 154 156 130 167 215 151 121 89 31 41 44 47 79 83
43 47 36 30 22 6 18 19 30 35 37 30 38 27 18 27 36 54 71 80 95 86 83 60 64 75 90 115 147 167 170 188 161 160 208 183 119 80 71 50 29 48 42 46
27 22 28 35 34 34 16 6 7 33 55 47 34 28 37 47 61 105 89 101 104 91 86 65 73 63 72 117 148 164 166 155 193 161 148 191 197 115 82 84 104 84 36 47
36 29 13 19 34 39 43 31 23 19 29 55 44 33 45 57 77 117 171 159 149 128 113 68 86 67 71 118 105 133 172 170 168 176 127 114 163 132 89 99 118 119 157 124
37 10 9 17 19 23 27 28 31 35 32 36 43 41 29 33 47 70 167 179 160 157 119 98 94 95 105 93 104 103 126 131 159 169 169 112 128 134 126 121 117 118 134 142
31 32 14 26 0 16 38 49 43 45 29 29 40 46 34 25 34 54 76 183 158 199 125 92 93 105 97 96 86 114 121 128 114 151 162 169 178 177 166 159 154 152 143 177
63 47 34 33 59 31 30 33 46 47 55 35 27 35 40 39 43 69 114 123 91 82 115 112 108 103 89 83 86 100 124 135 143 148 154 154 149 151 160 160 163 170 156 156
81 52 39 28 42 66 58 57 41 46 65 45 40 29 41 36 31 53 57 5 106 59 112 97 123 115 106 107 92 93 115 136 152 155 161 129 125 132 138 139 140 149 159 179
45 22 21 41 67 61 57 46 45 42 45 54 60 36 43 47 35 48 97 109 73 70 126 98 105 86 95 100 100 84 101 114 126 139 152 145 146 139 137 120 125 132 151 173
-3 21 68 96 96 83 59 47 57 59 60 64 54 49 33 44 29 26 68 88 72 61 127 78 70 77 81 79 71 66 63 67 72 79 87 89 92 90 99 104 114 118 114 136
38 67 74 81 78 69 55 61 72 86 65 60 47 31 42 39 62 37 38 61 96 78 105 95 55 84 77 73 67 58 58 57 58 69 77 94 106 105 105 112 101 103 113 122
61 72 73 68 56 47 50 53 48 62 60 45 41 9 -13 13 40 52 58 64 58 62 59 52 67 83 78 66 60 64 62 68 65 61 63 65 66 74 83 83 83 94 95 99
78 81 71 69 58 47 37 30 24 46 57 41 28 11 14 -1 29 32 97 110 95 87 37 59 78 80 72 58 52 50 51 54 53 53 52 49 55 57 59 66 73 79 84 77
95 103 94 67 58 63 51 31 -1 8 30 24 13 -5 -3 30 30 36 37 99 150 75 46 59 71 66 56 56 53 50 49 47 44 39 36 39 39 41 45 47 53 59 66 63
104 116 106 45 20 76 55 4 -35 -20 4 6 21 -1 -11 7 39 27 68 123 138 89 68 74 69 59 52 50 49 49 46 42 42 39 38 35 28 31 37 41 46 50 49 57
125 120 120 79 77 85 33 -29 -48 -58 -37 -8 12 8 10 -4 53 54 50 81 128 156 121 81 69 59 45 41 41 41 37 35 36 32 33 32 31 35 39 43 45 48 52 64

GFSNGP_con_3kmhel_066.txt.gz
Helicity
65 78 92 60 45 33 68 49 74 38 23 35 44 43 36 42 53 40 45 48 38 43 71 78 107 89 112 116 130 142 145 155 158 171 175 172 168 149 153 151 173 201 171 158
40 49 50 40 38 49 21 45 33 18 5 27 63 83 90 59 60 66 58 52 49 54 74 99 147 157 144 146 141 140 133 120 118 120 125 127 132 145 150 152 161 148 138 138
54 46 53 34 30 32 55 87 104 52 76 47 96 95 56 76 90 81 55 41 36 37 50 108 141 203 198 177 171 154 126 116 125 113 108 91 92 100 95 111 127 130 142 153
80 82 75 51 78 110 121 139 129 101 131 116 112 66 101 143 98 62 38 31 41 48 55 63 125 202 237 220 191 168 142 146 148 137 134 134 125 112 100 117 121 124 135 155
86 66 64 74 67 88 107 166 155 176 140 101 81 54 87 92 69 37 29 31 35 42 66 94 108 202 279 257 215 200 167 163 169 168 167 169 108 85 108 128 130 126 142 154
76 96 101 134 107 85 104 110 125 136 107 75 82 86 59 44 66 70 38 34 40 38 40 68 115 220 301 270 226 204 205 185 189 189 171 154 103 123 131 134 137 134 149 141
92 106 128 142 91 73 99 79 109 101 75 57 46 40 26 25 33 26 19 18 13 11 35 75 102 237 282 226 201 208 204 198 202 189 176 166 159 149 146 152 141 133 127 109
107 114 98 97 82 94 100 108 94 76 47 20 14 17 14 10 8 11 29 7 18 12 27 77 114 133 152 155 160 187 205 208 198 194 193 167 158 167 169 160 131 119 114 87
112 86 79 78 84 71 73 41 29 8 2 -8 10 13 14 16 21 8 30 42 28 18 25 42 62 85 99 106 140 150 176 189 185 191 192 176 174 179 160 157 126 84 93 80
120 119 78 60 56 112 93 46 24 6 3 19 22 15 15 17 16 22 38 74 61 45 29 33 46 43 60 114 133 147 156 164 181 185 194 187 187 167 176 186 127 60 80 54
69 138 103 160 162 92 46 -1 -2 25 42 29 21 16 4 -2 9 13 29 62 81 68 55 41 53 52 48 95 109 106 127 153 180 188 179 180 153 187 195 89 83 96 81 87
73 114 104 103 100 65 54 29 22 22 35 48 31 29 30 33 34 45 37 55 73 89 67 64 65 91 86 107 111 109 132 164 141 172 179 174 125 141 146 93 28 29 46 62
81 70 49 34 32 63 36 22 22 25 21 7 22 39 35 22 30 46 38 59 80 90 64 90 76 89 105 136 139 141 148 168 170 162 187 180 141 143 202 122 13 31 17 36
52 51 47 56 37 47 27 40 41 31 16 14 10 4 24 41 39 47 48 61 64 67 76 73 89 87 98 120 145 137 145 153 180 171 168 179 167 126 156 142 112 75 46 40
68 54 34 31 41 38 40 25 22 16 16 24 22 21 5 10 32 34 39 43 45 64 87 93 131 107 117 135 135 130 141 162 165 168 162 150 147 123 114 132 147 126 121 84
82 80 63 62 69 60 38 18 9 -3 3 5 7 24 30 27 10 25 24 32 45 40 74 129 144 206 182 105 130 128 115 104 132 169 161 159 152 128 104 102 92 82 105 106
97 125 109 105 82 84 70 55 34 23 28 25 14 43 27 27 32 24 36 29 31 52 56 71 118 106 145 132 130 131 130 122 91 148 159 152 164 162 146 144 140 133 110 136
86 109 102 68 49 33 21 23 36 45 38 36 45 50 47 42 40 39 43 38 43 56 45 94 76 87 97 115 116 113 118 133 127 138 148 156 151 157 161 162 150 134 127 140
57 70 64 40 15 -1 -11 5 50 59 54 56 77 78 77 72 62 58 53 49 40 61 55 49 72 68 84 115 140 85 89 112 130 136 153 137 138 159 155 146 131 125 126 136
37 42 29 18 8 11 33 50 44 43 47 63 75 71 71 87 77 55 50 59 31 54 90 95 102 97 88 86 74 69 83 92 100 118 138 142 147 150 146 128 129 124 124 122
62 64 61 72 71 51 43 40 35 35 43 52 92 111 99 74 54 52 50 48 47 45 63 89 63 105 46 85 59 56 72 77 84 97 106 111 120 121 114 108 101 94 91 103
106 97 83 85 80 51 50 49 41 40 41 36 71 106 77 58 28 29 14 11 18 47 46 68 85 136 71 73 40 47 49 51 46 57 61 61 64 64 65 71 77 82 87 88
94 92 83 81 81 65 60 55 61 64 45 54 75 102 72 42 25 1 -14 14 11 37 25 59 49 78 70 24 40 56 67 65 59 59 58 54 53 49 47 51 54 70 81 79
110 110 108 119 102 91 62 58 68 83 83 10 -3 3 -3 -4 15 10 4 -1 42 78 39 47 57 51 43 30 40 45 47 56 52 52 53 51 51 46 49 49 47 43 51 50
134 134 130 117 106 100 95 92 95 71 33 -68 -27 30 -1 -13 -12 20 -13 -1 30 56 65 96 74 42 39 60 59 51 55 54 49 46 47 42 33 41 40 41 39 33 36 45
133 149 146 124 130 115 91 91 39 19 -62 -63 -68 -10 9 -27 -19 -25 -12 16 40 93 97 92 59 40 40 46 48 51 52 49 55 57 52 48 43 37 33 29 27 27 30 37
150 101 161 164 147 127 105 59 15 -23 -69 -86 -56 -73 -44 -18 -41 -20 9 0 24 132 131 109 66 60 55 51 50 42 43 40 41 36 41 41 37 33 33 28 26 28 33 42

GFSNGP_con_3kmhel_069.txt.gz
Helicity
53 39 27 16 6 18 77 60 92 46 73 91 27 45 46 44 54 34 20 44 63 62 37 49 91 89 89 106 129 161 186 173 153 158 168 176 171 155 145 148 146 142 140 134
34 52 53 44 24 31 -27 49 30 20 8 -4 -10 35 109 96 47 39 40 57 62 59 46 69 72 141 123 118 126 139 143 137 147 162 162 154 153 151 149 140 133 133 124 122
48 40 34 24 8 12 43 82 56 48 47 91 113 84 55 61 83 89 87 62 58 62 61 50 71 97 183 167 178 165 143 131 145 150 149 138 133 133 125 123 128 125 121 129
57 81 54 44 59 73 112 150 140 165 135 86 66 51 35 92 113 109 83 69 65 56 68 43 60 83 164 233 202 198 166 149 145 150 141 133 133 124 125 127 113 116 115 123
101 96 91 89 73 79 102 116 147 130 142 112 128 78 66 109 89 45 39 47 50 46 53 48 35 74 137 249 242 215 178 157 166 178 164 157 147 142 139 117 115 110 114 126
97 106 83 69 78 88 104 91 122 123 116 97 96 92 75 57 -9 -14 10 26 49 54 56 49 50 64 124 200 271 227 205 193 202 197 193 179 161 156 129 125 116 131 122 117
76 82 93 114 100 87 98 71 112 114 97 81 62 44 29 10 5 1 12 42 55 49 36 29 36 48 91 191 239 246 192 184 196 203 198 175 169 165 134 133 146 139 121 116
-14 -24 -35 97 101 104 98 114 101 84 56 27 12 1 -8 -8 5 26 45 60 80 67 70 38 34 49 75 102 133 146 157 177 195 197 203 200 184 159 146 158 154 133 128 121
56 49 29 65 136 137 137 98 59 27 16 33 31 16 13 24 34 34 49 51 58 87 109 94 49 43 60 72 108 129 150 160 183 204 216 185 188 160 173 164 168 156 129 161
67 102 113 222 197 145 84 62 49 48 39 36 36 35 26 34 44 50 53 64 76 84 96 128 80 54 48 55 85 121 129 142 168 194 190 190 182 178 177 177 150 137 160 173
91 128 169 199 170 105 94 73 44 21 7 -1 2 15 18 21 24 36 56 85 119 102 105 126 89 66 54 54 85 95 108 123 143 164 165 170 156 170 174 142 155 166 145 127
76 108 132 129 110 93 89 65 38 18 15 2 -8 -0 2 17 22 9 15 20 42 80 102 109 105 67 65 64 112 109 109 118 119 123 162 151 129 141 65 64 61 69 50 84
78 76 61 52 64 62 58 58 49 51 39 32 15 7 6 4 -1 14 15 25 24 19 49 98 93 79 79 89 104 116 121 128 141 147 158 173 166 159 141 81 49 62 64 35
77 77 85 82 69 69 76 85 76 69 47 39 24 10 5 2 12 2 8 14 25 28 25 53 91 91 63 95 144 116 113 113 163 160 157 165 169 162 148 135 95 98 69 35
72 67 62 66 80 83 70 65 68 58 43 40 21 20 25 22 20 27 16 21 28 26 31 36 57 99 127 55 159 100 138 143 159 157 157 142 148 149 141 117 100 101 124 99
73 68 78 84 80 78 68 49 31 45 26 -10 -20 -3 18 43 34 31 30 29 27 37 54 50 47 65 118 162 85 116 125 88 108 143 152 150 155 139 129 113 95 70 75 70
141 149 126 107 57 53 44 38 33 23 39 50 26 54 57 16 8 23 62 66 57 50 50 56 52 72 97 141 142 114 87 100 79 127 140 141 146 145 136 136 124 102 90 73
124 91 65 40 31 39 62 92 96 78 64 52 51 42 25 48 51 26 6 46 95 89 66 59 80 85 81 106 129 100 77 72 103 125 146 137 133 138 140 133 126 122 115 121
66 47 48 59 68 79 83 94 90 57 33 19 11 14 39 58 62 46 46 39 48 69 99 82 81 106 95 72 75 105 81 79 84 121 139 115 113 130 133 134 119 117 122 126
86 97 108 116 103 101 94 95 82 69 56 26 1 -15 -11 31 65 60 58 64 72 71 67 67 66 80 100 93 87 86 83 96 85 110 122 120 116 120 131 119 131 121 121 122
138 136 120 115 99 97 113 109 99 93 62 44 34 -5 4 38 59 53 34 41 56 46 50 50 49 63 91 94 124 102 121 102 125 89 83 85 96 112 127 126 121 118 106 110
134 121 101 98 104 94 102 112 108 73 60 72 74 58 7 54 77 64 44 32 49 46 47 44 42 53 73 87 106 110 72 17 78 79 67 70 85 98 101 97 94 90 82 80
104 109 106 107 111 100 85 96 107 84 87 95 96 81 37 14 48 39 28 37 25 16 16 21 19 49 59 54 89 94 77 69 55 53 60 59 64 68 65 56 55 50 51 42
98 99 116 122 126 123 112 112 121 100 77 84 93 112 4 -39 -10 78 -4 -13 16 17 12 21 31 54 48 59 110 98 91 65 51 49 48 36 50 53 46 44 49 50 49 52
113 119 127 114 117 116 121 121 95 69 57 48 56 49 46 -84 -47 -14 7 -30 -4 22 14 44 51 75 71 35 52 31 38 63 65 55 49 42 37 32 36 43 44 44 45 37
121 131 126 127 149 118 102 107 118 80 65 36 30 6 -32 -66 -92 -48 -20 -16 -13 24 27 35 35 80 75 36 51 52 42 36 50 66 61 56 50 44 44 42 36 34 30 29
153 110 134 115 106 119 118 104 127 95 69 65 13 -15 -57 -66 -95 -72 -55 8 -3 -13 34 52 56 103 51 31 39 50 64 63 53 41 62 67 57 47 44 40 35 33 30 31

GFSNGP_con_3kmhel_072.txt.gz
Helicity
39 37 4 -3 -15 27 47 57 63 73 136 177 128 135 131 125 123 114 105 88 58 44 27 13 35 47 61 93 113 127 126 135 127 144 164 171 170 163 158 146 133 129 142 138
5 -6 35 35 35 43 14 58 62 65 122 40 45 69 94 95 88 88 86 77 60 49 54 46 34 42 64 90 136 147 137 118 122 129 141 145 155 150 146 139 133 132 119 104
29 65 45 28 8 32 50 61 31 36 71 51 86 81 87 92 106 122 114 109 108 105 81 70 73 43 59 79 145 177 154 138 135 136 134 136 135 135 128 120 128 117 110 107
65 74 87 30 51 62 103 115 99 102 127 146 123 62 79 122 140 144 121 117 86 63 78 76 58 73 45 58 130 173 181 145 152 160 144 132 131 123 123 122 109 119 114 112
-19 -9 77 68 69 81 94 114 154 117 136 137 128 60 60 115 68 51 52 59 44 31 35 46 52 50 43 37 118 173 175 164 161 183 171 150 139 133 130 120 119 112 123 117
11 3 -12 72 73 89 93 109 123 128 125 122 121 108 71 74 17 9 -4 3 12 13 13 28 43 35 35 47 99 136 173 196 199 189 180 162 154 147 150 139 105 118 118 121
-1 4 -5 75 83 110 142 68 86 100 89 73 60 43 56 61 33 2 3 5 31 41 36 59 71 46 48 45 71 107 168 216 187 176 173 167 175 183 161 139 130 124 112 111
20 44 12 86 111 103 86 107 92 80 68 61 47 39 28 14 -6 -13 3 34 59 66 59 71 110 79 73 58 71 82 106 127 147 166 180 184 187 179 171 154 138 123 119 116
32 36 39 45 65 87 88 91 78 65 60 52 39 40 34 35 47 51 48 61 81 106 89 79 116 97 89 89 68 79 93 109 137 156 174 183 195 185 168 163 148 139 145 136
49 72 82 89 110 125 115 100 89 76 63 54 47 37 36 34 35 41 58 65 77 96 106 106 159 136 109 86 79 85 94 99 116 145 163 179 187 178 175 176 162 161 166 138
93 118 160 122 128 112 105 95 84 79 65 59 50 49 48 50 46 41 35 42 54 62 64 86 119 127 124 87 95 94 92 99 112 127 136 151 156 178 175 155 148 167 164 156
84 102 160 128 128 125 124 107 93 89 92 88 69 46 43 38 36 40 38 45 27 43 53 38 43 93 105 90 95 97 104 103 104 117 123 135 138 126 81 77 61 65 73 113
77 102 121 125 119 122 118 107 99 96 89 91 68 50 42 33 29 18 22 19 24 33 39 58 51 46 94 87 85 88 85 112 115 118 124 131 139 134 120 100 47 71 45 62
94 105 125 115 107 103 105 107 109 98 81 61 50 50 41 31 29 26 22 27 24 26 30 46 55 48 47 92 94 82 100 94 130 125 128 141 149 144 132 132 123 118 64 58
114 113 106 100 104 101 104 114 109 83 66 59 44 29 29 19 9 14 20 19 19 41 41 40 47 66 59 44 80 85 104 127 146 156 154 126 155 145 137 123 120 121 129 82
103 96 88 95 100 104 103 96 56 42 40 11 -20 -41 -33 -6 5 9 5 4 2 30 56 63 59 61 66 63 61 60 71 75 112 160 152 151 155 143 134 124 117 123 112 95
125 107 98 103 93 91 86 62 46 37 28 49 73 72 62 57 54 24 35 32 -12 -15 11 32 63 71 61 73 65 59 75 73 71 134 158 135 126 127 128 127 119 122 119 96
99 89 82 75 74 69 54 68 90 102 112 98 80 64 49 35 19 30 46 11 9 20 49 53 47 48 68 75 75 75 71 77 93 105 125 136 120 117 127 121 118 110 120 112
108 99 105 101 95 91 108 115 117 121 116 107 100 92 68 46 29 1 38 23 36 29 77 47 50 76 80 79 84 76 75 79 77 85 115 109 108 122 134 126 115 112 120 141
123 136 133 133 123 121 116 119 120 120 125 114 102 101 83 69 75 3 47 35 54 38 20 25 45 61 74 78 90 79 78 77 61 81 100 112 111 117 124 109 116 118 126 130
146 150 144 131 116 101 109 116 117 117 119 112 106 80 71 97 75 52 50 64 55 33 28 18 30 42 51 66 78 85 86 100 94 77 90 99 115 121 122 123 116 118 124 129
178 168 141 124 109 88 92 102 120 130 131 111 84 89 72 79 81 95 129 95 67 20 45 41 41 33 37 55 61 67 84 101 103 96 88 95 109 122 141 123 112 108 112 118
163 160 133 104 77 73 78 94 108 139 137 135 101 72 60 72 102 110 65 82 53 50 56 39 19 24 48 33 42 54 78 96 77 87 91 92 117 119 110 108 108 110 110 111
182 148 135 121 106 98 96 87 111 135 135 131 117 85 52 37 72 108 120 10 42 -34 -58 -42 -0 30 49 19 39 56 95 89 87 90 83 79 76 92 97 100 97 93 90 82
195 160 133 122 122 120 111 100 104 91 98 108 103 81 74 93 101 -55 -93 -37 -49 -36 7 11 33 48 30 51 47 57 80 70 63 77 80 69 73 72 65 60 59 65 62 56
178 156 143 150 151 117 107 110 103 76 66 66 84 57 65 62 -61 -54 -81 -65 -3 13 -18 -1 8 9 22 50 54 49 48 46 58 85 71 77 82 64 72 68 62 62 58 55
143 126 157 161 129 108 113 112 96 71 63 69 56 52 52 -9 -51 -43 -68 -61 -5 -48 -40 -12 7 10 47 48 29 26 41 41 45 59 60 58 62 64 63 54 56 59 53 44

GFSNGP_con_3kmhel_075.txt.gz
Helicity
34 36 33 23 33 41 46 27 42 46 64 139 138 136 128 128 130 118 106 107 86 61 49 31 34 50 59 79 68 69 72 100 100 121 136 145 154 167 182 180 173 167 162 148
46 50 41 25 26 34 51 62 86 91 101 126 132 137 154 165 155 147 133 112 90 75 65 46 25 9 32 45 63 62 86 110 124 130 122 125 149 162 162 155 143 133 125 115
22 59 57 32 29 18 47 74 87 114 96 153 165 154 141 128 112 86 67 61 68 68 52 43 50 27 32 40 44 57 92 115 135 149 134 125 139 148 145 137 126 102 93 93
13 -2 29 10 34 37 66 95 91 154 182 180 172 154 133 117 111 107 95 76 64 47 34 26 31 34 17 15 39 50 85 114 146 157 151 145 151 135 135 135 112 105 87 82
-17 -6 -18 -25 13 57 85 87 117 124 148 157 144 152 97 110 96 70 63 46 24 2 6 18 28 33 27 22 22 26 74 114 152 175 183 176 161 142 136 133 124 101 95 84
-20 -8 9 -33 31 93 81 -18 109 123 123 135 116 109 74 116 43 28 13 -9 -9 -8 -6 -1 16 27 23 26 15 38 70 126 163 208 211 198 187 161 159 147 124 102 100 92
-8 9 -8 -19 1 15 24 -17 35 74 90 100 100 71 79 70 53 27 10 20 17 25 32 41 59 44 38 45 46 43 49 103 167 208 220 201 205 205 182 153 146 112 101 99
24 33 2 8 41 56 33 26 14 27 54 73 71 67 46 32 15 7 10 21 29 26 50 88 106 81 57 59 80 71 58 81 127 165 191 205 202 201 190 175 147 116 116 122
29 20 14 16 39 59 64 71 86 84 62 40 34 31 39 48 49 39 31 38 45 55 67 74 100 104 85 97 79 72 76 76 119 144 164 179 200 194 210 182 165 149 151 143
35 34 52 66 90 110 129 125 117 106 95 92 81 90 82 71 72 75 67 58 49 34 29 51 54 77 134 120 110 88 75 81 99 123 140 155 181 193 185 177 172 168 172 160
56 46 69 66 93 118 124 131 126 117 106 106 103 94 72 73 79 70 70 64 57 57 53 44 46 52 70 118 119 87 88 84 92 104 126 151 153 165 162 151 145 162 166 166
67 59 88 62 94 114 110 96 91 92 105 105 98 97 96 88 78 65 51 41 32 29 28 27 32 38 58 93 111 86 88 104 102 115 125 132 140 137 81 94 78 70 86 120
78 87 110 127 129 141 130 125 126 131 129 125 113 91 67 53 44 11 24 23 26 24 19 11 14 19 38 57 67 81 70 82 114 86 126 132 136 128 104 97 48 49 54 54
113 126 136 125 132 128 136 129 128 127 106 94 88 73 47 35 25 17 18 24 15 11 26 31 28 34 43 34 53 48 71 59 96 103 104 113 136 125 120 108 98 100 58 66
109 120 134 142 149 154 134 121 116 100 83 88 77 62 64 51 54 60 48 31 13 5 28 59 40 54 68 52 43 51 46 68 60 61 117 114 128 129 131 121 111 108 130 83
105 117 146 158 149 139 121 117 118 102 93 105 104 107 106 89 64 37 28 28 21 -13 -43 -8 21 55 60 66 63 54 50 71 70 61 98 117 141 138 141 135 127 126 127 111
139 139 151 136 124 125 128 118 103 90 93 113 108 94 85 75 69 71 65 60 52 9 -24 -4 8 40 43 40 67 62 52 48 59 68 77 117 132 132 135 133 137 130 118 124
131 132 130 125 125 128 119 123 129 126 121 107 99 95 96 94 91 83 63 51 49 33 57 40 27 4 22 32 49 67 60 51 52 57 75 80 113 106 126 129 116 112 113 120
129 127 134 136 138 138 139 135 127 117 112 114 114 112 120 111 104 98 90 76 58 29 44 56 29 3 0 23 49 50 58 58 55 54 68 79 75 111 122 121 112 99 104 134
129 145 149 148 155 159 141 131 119 123 118 125 126 129 129 111 105 100 75 67 76 95 88 53 33 19 13 11 26 32 46 54 61 63 59 64 71 77 107 102 107 113 113 136
135 156 166 167 166 146 131 116 105 101 105 128 142 143 143 108 107 73 52 62 72 76 75 36 30 32 13 11 12 18 27 51 58 65 66 69 56 61 95 103 109 116 124 132
175 190 181 182 181 151 110 85 87 88 105 118 140 171 163 124 110 72 41 54 95 49 74 74 65 16 4 10 9 16 24 42 59 69 69 74 64 62 82 94 101 117 125 124
179 210 203 201 185 153 109 96 102 109 95 100 122 128 164 141 115 81 39 34 7 70 88 -59 -30 14 8 2 -2 9 23 44 57 74 84 80 89 81 76 79 86 101 116 129
189 191 224 227 184 135 112 107 122 104 98 101 121 125 146 140 102 113 83 5 -93 -106 35 -62 -61 -31 61 13 4 18 26 34 47 68 85 85 100 83 77 88 100 118 126 118
184 200 202 174 163 146 128 123 116 92 81 97 106 115 132 158 139 89 34 -70 -88 -94 -80 31 11 15 16 9 26 36 26 24 39 53 86 91 91 72 75 82 85 105 112 114
181 170 162 162 163 157 158 157 148 125 105 90 78 80 95 96 78 59 -57 -84 -96 -96 84 48 17 14 14 18 20 32 38 30 42 59 77 92 91 86 75 61 82 83 82 75
131 117 144 151 147 152 154 146 147 130 105 89 72 68 66 45 36 9 -46 -69 -81 11 66 50 13 -12 -20 0 21 29 39 43 50 47 67 56 56 66 77 82 73 68 78 69

GFSNGP_con_3kmhel_078.txt.gz
Helicity
38 27 27 27 13 8 21 15 14 9 25 22 41 89 130 121 106 114 104 93 76 54 34 25 36 48 58 58 61 59 85 82 77 109 120 132 154 161 168 181 188 192 201 201
32 33 24 -0 11 2 17 35 52 67 60 76 132 145 138 129 130 122 99 77 70 65 61 48 51 49 51 48 51 46 49 58 73 87 114 120 136 150 170 180 185 181 179 167
42 19 11 14 7 -9 -22 4 49 18 53 116 127 131 129 137 136 120 124 117 110 88 60 57 61 46 36 40 49 45 44 50 70 92 107 124 137 157 153 156 164 149 143 131
-15 -6 -10 -11 7 6 -27 -32 72 75 107 169 174 165 160 157 129 122 96 70 60 46 53 40 33 33 21 13 35 40 44 47 67 113 124 146 155 149 164 167 149 142 124 104
-20 -27 -24 -43 -49 -56 -58 -59 44 82 117 157 137 132 113 121 127 91 71 64 49 23 14 2 -14 -2 14 25 23 40 58 44 55 105 142 166 168 174 188 191 166 140 129 109
-35 -33 -0 -27 -56 -62 -53 -72 -5 42 55 92 104 79 106 98 92 78 52 25 20 11 4 -3 15 14 11 18 22 37 54 68 49 77 143 168 184 210 218 209 174 161 146 113
5 20 -14 -25 -14 13 -0 -4 23 49 82 103 101 87 87 79 75 58 44 42 38 40 35 37 57 28 26 51 66 68 59 67 67 61 103 149 221 243 235 212 204 184 149 116
28 36 22 13 19 28 33 54 57 64 79 86 81 75 71 69 59 58 61 68 58 53 51 43 56 28 35 43 74 103 89 67 81 87 95 144 188 214 213 215 200 182 165 144
54 48 40 37 43 61 73 85 83 89 94 87 71 64 58 52 59 64 66 62 63 62 65 74 57 22 24 51 60 66 96 99 85 92 95 127 181 198 240 217 202 187 177 160
51 55 56 66 75 90 102 107 106 106 96 92 83 77 73 66 67 74 63 79 69 66 64 67 50 54 44 42 47 62 59 95 100 93 88 101 151 187 215 215 198 185 168 156
60 52 60 63 79 106 120 121 125 125 125 120 119 112 92 104 105 83 69 52 23 45 35 31 21 24 20 35 41 42 48 53 66 81 83 93 112 138 154 157 169 176 161 157
74 69 83 65 82 119 137 134 136 132 128 119 111 105 105 112 91 65 54 38 31 7 5 26 4 2 10 7 21 33 33 33 45 66 79 115 110 112 61 80 67 72 84 116
90 95 95 108 115 139 143 138 133 123 112 120 108 91 90 87 76 40 47 45 39 34 47 49 35 22 37 17 33 37 38 45 36 42 51 94 112 113 100 101 63 61 55 54
118 124 130 137 158 155 156 154 151 143 138 129 116 107 99 69 55 69 77 92 99 90 78 68 50 55 52 51 67 58 60 72 50 57 30 13 105 89 120 115 107 106 52 50
132 135 139 159 174 171 172 164 157 150 138 128 116 84 85 106 117 106 94 78 62 50 40 19 1 -23 -15 28 59 55 58 70 77 72 70 47 36 69 105 103 101 96 104 70
138 140 155 175 163 164 167 160 156 150 145 131 104 118 127 120 102 85 78 73 72 59 53 38 25 8 -2 -20 27 28 13 57 93 83 73 63 65 56 58 85 100 100 99 92
161 162 175 165 159 156 158 145 147 144 116 110 133 126 111 97 88 90 97 84 69 73 73 48 31 3 23 6 14 15 22 23 87 77 68 67 59 50 72 87 105 111 99 105
157 155 153 155 155 158 149 160 149 137 150 149 141 125 116 119 123 118 101 87 81 76 62 46 41 55 51 46 30 14 13 7 45 69 77 67 63 67 62 84 114 121 118 106
142 142 143 145 152 159 153 145 151 150 132 127 123 110 114 121 138 145 126 113 94 77 56 41 39 33 67 59 43 33 -0 -1 23 49 62 82 68 62 67 70 84 92 97 111
135 152 152 156 169 185 171 179 154 133 108 103 101 117 120 127 149 156 151 131 111 81 39 52 64 62 67 56 26 34 5 -0 6 30 48 59 77 69 64 62 80 100 102 114
133 148 162 174 184 198 212 183 159 133 86 84 94 115 121 121 141 162 160 135 103 68 38 22 50 71 93 59 48 29 4 9 21 17 31 40 65 71 55 49 63 86 102 107
162 176 177 196 233 225 202 181 146 122 109 110 114 124 117 119 123 149 170 144 99 33 35 47 69 72 25 20 68 24 11 -0 -10 7 40 40 54 68 68 49 44 73 91 104
167 192 189 209 227 226 199 168 153 158 158 150 142 129 127 131 126 142 120 92 80 55 41 14 53 46 -17 48 76 40 1 -7 4 15 41 51 59 62 68 64 60 46 80 85
185 184 196 189 179 180 176 171 186 179 180 160 142 133 136 124 105 125 131 65 27 36 4 -47 -6 -18 6 92 55 26 10 8 18 19 24 56 46 53 58 72 69 68 78 80
189 168 147 141 157 173 190 185 183 167 166 149 134 115 113 131 128 80 69 57 24 -2 -41 -30 -24 39 66 38 32 23 17 19 23 6 22 44 51 54 69 79 78 78 96 95
162 140 147 160 172 181 175 173 181 161 142 138 122 93 81 84 79 63 63 36 -1 -43 -47 22 83 64 55 28 12 16 18 19 22 15 25 42 54 64 76 79 92 94 85 82
130 151 156 147 145 142 136 139 151 137 122 120 94 73 45 38 33 25 17 -17 -40 -46 -51 93 67 49 48 -5 -6 3 8 9 29 5 16 29 36 50 70 88 117 98 77 79

GFSNGP_con_3kmhel_081.txt.gz
Helicity
33 31 15 -5 -8 -4 -5 -15 10 -6 3 -19 14 45 58 80 100 124 139 141 132 123 107 91 91 84 71 58 54 59 83 87 84 85 77 80 94 115 138 152 175 198 218 225
46 48 36 13 8 3 4 4 11 14 22 31 49 89 121 130 132 136 126 115 106 94 89 85 89 81 72 68 77 66 69 84 90 81 83 89 99 106 120 141 161 177 180 183
55 34 23 13 12 1 -9 11 16 -18 42 55 90 104 97 101 100 85 89 94 93 77 60 55 72 70 68 60 60 59 56 63 67 72 74 87 105 118 123 130 155 151 157 158
6 -9 -29 -4 -16 -19 -27 -40 -37 -22 30 88 108 142 151 149 128 130 123 110 90 72 63 43 37 38 42 39 37 49 60 53 54 55 61 87 114 115 134 156 145 156 150 143
-14 -23 -18 -32 -33 -43 -55 -61 -60 14 70 97 116 131 142 142 131 97 77 67 53 36 19 19 16 6 4 8 17 33 60 74 70 71 63 77 106 121 142 156 156 160 159 139
-6 -11 11 -19 -30 -40 -32 -44 29 51 64 77 86 96 107 96 83 75 60 43 36 31 19 26 36 15 13 25 26 34 60 87 80 69 67 72 85 145 172 170 176 180 163 144
38 41 18 -12 -31 -19 21 21 41 48 59 70 76 83 90 80 85 79 72 70 58 54 51 51 52 38 34 40 39 65 70 93 90 76 71 75 99 166 181 176 183 184 170 161
43 35 33 40 35 49 46 50 61 75 81 83 95 95 89 88 86 81 86 95 105 104 95 88 86 63 78 68 61 57 61 76 97 93 75 75 88 130 187 200 177 164 165 161
51 43 55 52 49 70 70 77 79 90 92 101 101 105 107 104 104 105 112 111 104 109 103 95 67 66 85 78 59 69 79 71 85 101 89 78 83 110 165 191 194 186 184 169
36 42 49 67 73 77 91 102 118 113 109 110 102 90 77 74 80 91 98 101 80 56 49 74 71 67 47 52 49 46 55 59 64 93 92 84 85 109 148 185 198 193 182 160
49 43 54 64 77 96 118 137 135 132 135 134 129 126 119 134 121 98 84 61 26 22 28 39 48 53 45 34 33 37 48 45 50 49 72 86 77 88 122 135 165 195 181 165
68 66 86 80 83 125 144 143 138 140 145 147 152 156 144 125 110 96 75 67 84 74 63 72 91 113 118 74 43 35 24 31 44 47 57 83 80 70 36 59 63 77 95 119
95 92 110 120 124 139 153 150 154 158 160 164 155 131 122 117 99 94 122 130 123 110 92 75 62 68 80 63 34 -6 -7 30 43 74 68 70 98 69 33 87 43 51 59 62
114 138 135 127 131 141 161 178 171 169 160 146 129 130 121 125 136 140 132 114 105 92 79 70 61 62 52 35 17 7 22 6 30 60 87 92 86 110 90 86 96 112 73 82
141 132 135 152 173 182 190 190 186 176 170 155 142 141 146 143 133 115 107 114 95 72 70 65 60 61 57 42 19 5 -9 -4 15 44 69 91 99 91 116 68 69 78 115 102
146 146 153 154 167 176 180 176 174 167 167 163 158 161 146 135 125 106 103 104 93 76 74 73 76 56 55 46 41 25 26 -2 -5 17 45 76 90 97 85 109 85 73 78 88
168 145 160 163 166 170 168 164 161 156 163 166 164 139 132 119 107 90 89 113 105 98 93 82 76 62 75 67 56 52 44 42 10 4 16 51 73 94 89 86 99 105 79 72
154 168 168 165 163 164 158 160 169 177 187 177 151 137 131 120 116 103 102 118 110 99 102 87 62 65 77 71 76 86 73 50 62 27 7 32 60 72 90 80 95 90 113 74
156 150 145 137 147 173 178 171 198 198 179 170 153 122 114 112 113 121 127 143 129 108 89 87 51 51 70 51 49 96 91 65 47 30 21 20 48 62 75 78 79 98 94 108
140 151 142 142 167 202 193 209 217 214 175 174 149 140 128 115 113 122 127 133 133 127 121 85 64 52 44 43 35 90 81 69 54 36 25 21 24 45 64 84 87 89 98 72
144 152 155 175 179 184 219 217 228 218 185 170 162 163 148 125 127 113 107 114 76 94 86 60 57 55 52 55 65 97 92 94 86 50 28 13 25 54 58 69 70 65 85 89
154 167 176 189 200 191 177 186 198 198 190 180 173 170 157 141 117 97 84 102 108 48 85 71 47 34 49 9 94 70 80 74 61 34 7 1 20 52 67 68 76 64 66 79
166 171 177 190 190 163 152 166 179 187 183 178 175 169 164 141 124 109 86 65 64 50 53 61 41 11 -41 29 100 100 72 39 33 26 19 18 24 60 78 77 74 70 62 57
168 176 175 164 152 167 159 148 158 156 176 165 165 166 156 131 92 108 96 50 22 20 31 33 9 -14 35 72 75 76 57 39 26 15 20 36 22 43 57 62 74 72 64 41
154 147 147 153 149 136 135 131 129 144 152 123 120 114 101 85 85 71 65 51 14 5 28 -3 -4 1 98 72 75 63 11 30 16 2 14 15 26 44 53 63 71 74 69 60
148 151 141 139 134 137 134 128 135 146 145 126 104 101 90 71 55 43 52 28 27 9 -7 6 60 89 67 61 57 25 9 19 20 6 19 15 25 42 56 65 72 68 65 71
142 167 141 133 130 118 104 108 120 117 111 109 113 97 68 51 41 22 23 30 20 22 21 49 70 52 48 57 38 11 -8 2 19 1 11 16 23 38 55 63 67 65 70 73

GFSNGP_con_3kmhel_084.txt.gz
Helicity
29 35 33 24 31 10 -19 36 -20 22 18 7 11 37 42 43 58 77 98 110 116 119 102 89 79 66 52 44 49 59 67 78 78 66 67 82 106 125 131 128 132 144 163 180
54 25 31 31 22 8 9 7 16 14 35 7 36 43 50 67 81 96 111 112 105 87 65 61 56 53 56 59 64 61 64 71 82 88 73 71 87 98 116 127 136 141 146 162
47 14 17 7 15 17 8 -6 -1 -15 -21 38 48 57 74 91 103 108 108 116 127 131 121 101 82 66 66 66 63 64 65 69 74 82 92 69 64 88 94 103 125 128 139 147
-10 -11 -8 -14 -12 -11 -16 -19 -9 -20 -22 -8 21 120 126 118 106 100 107 101 89 81 82 98 97 96 88 74 62 62 63 71 75 75 80 86 68 68 96 114 119 131 133 131
-20 -29 -18 -25 -22 -23 -18 -23 -13 -27 57 90 128 130 114 117 129 113 100 94 88 82 80 77 75 80 76 77 80 76 73 70 80 83 85 88 78 76 101 131 128 126 132 133
-7 20 47 8 4 -9 1 22 33 26 48 66 85 67 122 119 120 106 99 97 96 87 69 66 67 60 48 60 63 76 82 83 86 89 78 92 101 85 90 120 147 157 152 151
21 31 21 41 38 32 37 52 55 35 45 65 64 104 124 113 110 104 92 87 93 95 107 112 104 91 86 79 68 67 62 73 78 79 87 94 98 94 82 99 136 153 154 156
23 25 24 30 35 38 53 61 63 61 76 80 100 106 112 118 121 119 112 114 108 111 109 92 88 69 74 76 83 73 74 84 88 92 94 80 86 105 98 92 116 140 149 151
26 31 38 48 33 51 61 66 71 76 100 102 102 115 126 122 115 111 121 124 114 106 101 76 81 83 91 98 92 82 64 69 67 69 72 82 82 84 105 104 130 156 180 162
23 46 45 52 53 58 72 81 105 126 127 124 124 139 137 128 128 139 127 120 111 102 86 85 89 74 67 82 80 80 72 67 59 58 76 72 64 69 91 119 144 151 178 182
38 37 54 66 74 82 103 118 131 129 131 137 136 123 119 113 113 107 105 109 104 98 95 80 79 77 83 78 72 72 75 70 57 52 54 69 73 66 68 70 105 152 151 151
51 77 80 87 83 111 129 137 144 140 144 153 141 139 138 121 127 132 130 130 130 119 112 91 87 82 86 88 70 56 48 50 56 42 39 42 58 76 71 51 27 40 67 122
75 89 95 115 125 135 146 154 156 153 154 146 143 137 129 131 137 136 140 142 135 126 104 91 80 71 69 73 60 58 52 44 49 64 57 55 46 55 63 73 35 53 36 52
97 127 116 112 125 143 157 157 160 160 145 141 139 149 153 147 143 143 137 136 129 115 100 95 81 55 44 43 41 42 38 19 9 11 21 35 39 63 73 69 61 54 66 52
113 113 132 147 166 164 160 155 146 153 160 166 174 176 169 165 159 138 122 115 114 103 87 81 66 51 62 59 58 63 69 61 23 0 2 0 23 47 68 91 66 71 75 86
145 140 132 146 158 153 151 152 156 160 184 179 186 183 183 164 141 116 100 94 103 85 79 84 74 66 62 44 47 63 71 47 39 33 28 49 6 14 42 66 90 63 79 86
170 135 140 147 148 158 154 152 169 174 177 179 179 187 171 144 117 94 74 71 75 80 81 92 83 77 69 50 46 58 72 63 31 55 62 52 49 0 18 46 59 81 69 82
143 164 167 164 167 157 147 162 178 190 199 186 202 187 160 141 130 108 85 71 75 78 81 84 89 92 82 69 71 66 67 58 51 66 78 65 55 40 -1 24 43 67 66 63
161 164 156 150 151 145 156 174 199 213 199 199 203 190 170 160 132 117 107 112 102 91 75 71 90 91 85 74 66 60 54 36 51 81 73 47 39 40 20 4 22 45 77 72
166 153 149 136 147 165 165 181 188 173 167 186 183 181 169 147 123 124 130 121 95 93 57 59 78 85 77 63 64 49 43 41 58 71 62 46 42 38 18 9 18 44 82 73
154 156 151 159 160 175 194 199 191 181 179 183 187 182 183 164 146 132 118 102 60 58 56 41 58 72 75 49 36 45 56 81 71 63 56 60 40 25 11 4 17 35 75 78
149 151 166 180 176 164 184 169 170 172 170 167 185 203 187 157 139 112 77 70 51 24 45 50 49 38 45 16 51 62 49 -14 12 78 64 52 30 13 8 7 26 36 61 79
151 162 173 176 166 155 146 156 149 155 156 170 181 181 179 138 107 91 66 36 31 18 25 27 7 -11 -6 -21 -40 73 31 31 39 52 39 34 21 14 15 21 41 50 68 64
155 166 162 162 157 162 149 133 128 121 129 143 155 163 143 106 61 61 48 16 -6 0 15 11 2 9 -1 16 96 53 63 63 46 31 17 19 15 20 26 30 43 53 68 65
156 147 151 162 157 145 118 114 106 109 110 97 82 72 52 56 58 47 40 39 25 26 23 22 7 -1 53 63 51 56 53 34 -10 19 19 14 19 20 20 31 44 60 66 59
150 145 150 140 132 116 113 104 96 83 69 66 41 31 38 44 40 46 51 52 38 33 21 27 47 46 46 42 38 33 55 -28 -7 15 8 14 11 13 18 32 54 68 72 68
133 137 137 137 132 120 101 72 75 75 58 44 31 35 40 36 48 53 54 46 40 39 49 56 46 39 37 36 28 42 39 -28 -7 -1 4 5 12 14 23 39 60 69 61 61

GFSNGP_con_3kmhel_087.txt.gz
Helicity
23 26 15 21 24 24 34 28 8 7 10 4 14 41 48 46 48 52 56 58 60 66 64 61 64 63 55 50 49 56 62 67 71 72 83 90 89 87 82 90 110 118 134 154
66 11 24 35 11 11 6 14 -1 11 21 14 42 51 38 54 60 61 64 68 79 79 77 69 66 54 46 51 57 64 72 81 90 91 93 95 91 89 90 88 89 110 123 137
40 14 24 21 3 6 2 -5 14 -9 -13 14 9 -7 4 40 58 80 85 77 78 76 71 67 70 69 75 71 69 77 80 87 91 93 88 86 86 84 85 92 100 107 116 132
-13 -10 5 -22 -18 -14 -4 -15 -13 -11 -15 -2 -2 1 -2 9 58 82 101 120 119 110 109 105 86 74 57 55 56 61 61 70 75 81 92 96 98 91 80 86 101 108 122 128
3 -4 -17 -13 -22 -19 -12 -17 -11 -4 13 25 40 44 34 90 115 110 110 104 107 104 105 106 111 113 106 97 88 75 76 75 69 66 77 90 94 100 103 90 95 112 123 130
-1 30 43 -4 18 3 3 12 33 33 41 56 57 35 140 98 111 111 89 85 81 73 51 39 50 70 88 106 114 118 115 96 77 63 52 65 81 92 97 98 88 119 131 146
34 40 27 45 44 25 36 51 53 53 61 64 71 108 115 94 89 89 92 96 78 61 76 76 79 95 88 89 79 87 80 84 87 86 86 70 63 64 76 92 100 102 117 139
26 33 23 35 39 44 52 49 54 64 67 65 88 90 101 96 99 103 99 91 94 100 106 112 97 86 76 77 87 74 70 69 70 71 71 65 62 64 63 59 82 99 111 123
35 41 40 47 28 40 42 51 61 67 84 98 106 106 103 108 111 112 107 114 131 134 134 129 132 115 100 93 95 84 72 64 66 73 61 60 61 54 65 77 83 90 121 138
13 53 41 49 52 45 54 73 90 112 129 129 128 126 128 126 132 133 137 145 147 145 139 140 141 117 97 102 99 90 86 87 85 69 65 56 51 47 50 53 61 84 103 144
33 27 35 54 67 82 99 111 125 138 148 146 139 143 144 147 148 145 152 163 170 161 163 151 138 128 114 111 106 96 86 86 88 84 83 81 62 42 37 55 60 56 61 97
38 86 53 98 88 96 119 129 140 142 147 141 148 150 156 145 150 167 173 168 169 165 162 148 137 132 117 111 114 103 90 84 82 87 77 72 68 78 79 67 92 102 67 43
59 86 101 119 112 118 131 147 149 154 149 144 147 148 153 153 161 173 169 175 164 160 158 134 132 127 105 96 98 93 89 74 72 66 65 58 54 41 39 33 97 102 100 83
108 119 110 113 136 127 141 147 155 141 137 139 135 157 162 168 167 165 174 160 150 145 129 117 121 110 95 97 88 64 55 50 72 63 46 41 54 63 49 23 10 77 104 100
115 138 172 170 152 145 146 140 129 126 128 128 146 157 176 189 193 195 171 147 135 121 109 99 98 92 89 105 97 71 65 62 53 50 55 31 27 38 54 24 -3 12 48 110
164 167 168 150 141 138 124 116 120 120 135 154 164 179 197 215 204 181 153 138 145 129 109 103 100 92 100 112 108 106 90 63 57 56 50 40 46 52 52 44 7 -3 19 51
219 182 152 136 123 116 115 125 141 144 156 171 193 212 221 220 216 196 175 170 149 135 128 113 101 98 106 121 118 125 120 97 50 60 61 37 32 49 60 62 49 -11 16 32
192 171 154 154 154 147 144 153 158 165 187 195 205 214 222 237 234 203 178 151 138 136 116 101 102 103 101 103 110 126 124 94 71 54 29 28 37 44 56 60 59 18 5 20
173 163 158 155 153 149 154 160 167 177 187 192 195 197 204 213 202 186 169 163 142 109 96 99 87 81 87 86 87 120 114 88 73 60 43 24 36 52 62 56 47 30 -1 3
176 164 151 151 151 160 157 166 179 178 175 186 188 197 221 241 220 192 164 140 106 103 82 70 56 54 61 60 56 93 73 70 63 40 43 36 50 68 63 31 31 24 6 7
158 151 144 140 148 158 173 184 175 170 158 167 184 190 196 176 155 134 123 120 75 59 45 29 44 52 59 54 54 70 65 56 70 87 63 53 48 46 32 29 26 26 20 4
146 143 136 139 146 156 176 169 167 153 149 152 158 156 139 121 105 78 58 67 70 22 40 51 40 17 13 -6 22 25 37 43 90 74 22 -4 5 19 34 31 23 24 18 19
146 139 142 147 143 146 149 155 155 136 127 129 119 97 80 85 75 69 71 54 54 49 34 47 34 17 13 10 37 39 54 86 64 58 40 32 42 39 38 30 28 28 25 39
140 139 142 143 128 139 155 143 124 103 106 85 77 71 67 54 60 80 82 65 54 50 51 46 33 11 7 41 58 68 57 54 62 56 42 14 24 18 20 28 29 11 16 30
130 129 133 119 124 151 134 120 92 100 101 78 56 50 46 65 85 85 84 83 51 46 62 38 17 15 53 56 52 45 40 44 56 21 21 22 11 8 11 5 2 20 12 22
116 122 123 125 145 136 120 98 98 104 92 74 54 43 46 57 67 67 84 70 78 59 74 78 69 61 57 50 41 35 36 42 31 16 14 4 -1 1 -4 -5 13 20 26 39
115 112 112 127 138 120 104 95 103 100 81 68 58 49 45 55 62 63 61 90 91 90 70 54 65 56 58 54 51 46 34 34 21 1 -5 -1 -3 -2 -1 14 26 27 28 46

GFSNGP_con_3kmhel_090.txt.gz
Helicity
42 31 51 39 2 -35 38 56 2 24 16 14 20 23 23 24 15 22 28 30 47 45 47 50 48 51 48 53 55 55 57 56 57 64 75 86 92 91 89 92 95 106 109 118
63 30 30 23 12 15 20 65 20 62 54 74 69 65 39 44 52 56 51 51 55 56 61 57 52 45 45 38 42 48 62 72 80 88 93 99 108 108 107 96 99 106 111 116
31 6 12 18 -1 7 11 -7 14 9 33 48 77 71 81 93 93 89 69 65 65 67 59 47 28 29 27 35 48 65 72 79 85 85 93 102 105 114 126 125 109 100 106 106
-3 -11 40 7 -6 5 6 -7 -10 -2 -0 15 48 111 111 81 71 95 84 64 56 51 31 33 36 68 68 72 83 100 99 109 103 99 89 86 88 92 103 113 125 108 98 107
21 25 28 18 8 9 4 16 4 8 18 10 31 58 98 130 157 127 102 91 88 73 76 90 96 106 103 97 98 92 109 113 107 113 121 118 112 113 107 99 108 114 112 110
32 52 54 40 22 11 10 60 31 41 55 60 64 106 98 111 101 122 121 111 103 88 88 101 99 102 101 105 103 102 94 77 59 52 55 78 104 121 115 115 95 97 101 107
33 47 26 22 29 10 49 42 24 34 62 55 69 91 117 109 101 100 88 86 95 72 79 104 130 126 112 112 114 91 73 56 55 46 36 32 46 60 78 93 95 101 91 99
42 55 35 35 24 62 49 42 45 56 71 82 116 110 113 108 97 96 86 95 102 106 110 105 96 94 85 98 114 113 100 95 93 84 63 60 49 58 69 67 88 79 88 93
67 63 51 43 54 56 52 54 67 71 98 111 112 114 118 107 106 100 99 110 129 148 135 111 113 118 118 119 116 116 113 97 86 91 93 84 79 68 53 58 65 71 63 75
32 46 62 54 78 81 77 80 107 115 143 126 120 123 116 116 113 119 127 139 153 147 140 144 158 164 156 144 136 132 122 118 123 123 110 95 89 70 55 53 48 47 61 60
53 23 71 49 99 110 125 120 124 131 133 126 126 111 118 117 121 129 138 158 164 152 153 156 154 151 136 128 122 131 131 128 122 119 108 99 83 74 67 46 48 66 50 53
78 68 116 89 104 126 135 119 123 129 123 120 126 119 130 127 139 148 152 171 181 181 183 164 155 141 126 119 125 134 141 135 124 113 99 89 76 60 48 48 30 46 58 48
39 107 120 128 132 130 133 153 146 137 132 123 124 143 150 160 158 149 179 189 197 178 167 159 140 126 109 107 116 128 138 129 118 99 97 73 62 56 38 43 22 5 43 68
127 152 117 114 117 135 167 155 149 131 121 125 134 148 162 171 173 180 190 185 181 189 185 163 142 125 106 101 106 129 131 99 115 107 84 68 64 58 50 41 37 43 11 40
113 143 164 173 181 164 140 136 126 108 113 121 138 157 166 174 183 198 198 194 202 210 193 165 137 119 107 105 107 124 137 135 128 104 79 51 42 48 43 43 37 32 46 14
168 164 159 163 148 134 120 114 110 110 131 143 155 163 171 191 205 215 213 217 233 227 204 160 137 121 115 110 111 118 127 90 86 115 98 73 56 46 27 29 51 38 35 33
211 152 153 151 127 117 108 118 130 131 139 157 163 170 187 200 204 208 217 218 221 196 161 146 154 146 127 103 100 106 107 116 82 110 104 80 65 52 35 24 42 31 34 25
140 152 155 144 127 129 129 135 141 147 151 149 156 173 182 181 186 192 201 201 180 166 133 122 104 85 58 43 47 68 89 95 127 113 101 82 67 66 55 49 47 26 30 33
202 208 185 161 140 131 126 124 126 131 143 150 166 166 156 161 188 192 164 139 132 114 94 81 40 34 41 35 25 71 76 87 122 99 102 72 53 55 53 45 37 28 35 44
213 185 163 144 135 125 129 142 140 137 155 150 151 154 143 140 131 118 108 76 83 91 68 75 49 58 62 44 17 35 38 66 68 81 95 87 83 66 44 14 18 20 25 30
171 153 145 130 115 120 135 133 127 133 137 139 139 126 106 94 76 80 63 73 74 70 40 25 67 66 72 58 40 33 28 49 90 71 87 92 82 40 27 25 23 17 15 22
128 127 123 115 110 114 133 127 129 134 131 119 112 96 99 82 54 45 64 83 81 23 55 85 82 57 54 21 71 73 79 79 75 86 71 71 74 -4 -11 2 2 12 33 40
119 112 114 110 103 104 118 129 132 127 118 114 93 96 110 100 89 85 81 77 72 65 76 96 54 26 25 69 75 78 74 72 61 55 67 74 58 41 26 23 22 31 45 55
123 114 100 96 93 109 122 114 119 111 111 102 88 93 98 97 98 105 103 70 47 58 82 79 51 15 19 80 84 72 65 67 66 59 68 32 35 10 15 12 12 14 17 25
123 104 98 91 86 109 122 119 113 122 120 94 95 91 83 84 104 93 94 98 66 70 96 45 8 13 84 79 74 70 61 54 53 50 40 34 32 13 -2 -3 -1 6 -0 7
92 89 95 94 109 122 114 115 119 115 107 104 114 100 97 82 84 81 97 71 100 78 103 91 84 69 89 82 74 72 64 55 48 46 30 -4 -19 -19 -11 -12 -7 4 9 29
110 99 94 88 104 115 107 109 118 116 92 99 108 107 88 62 63 61 58 89 109 117 108 94 91 77 85 78 78 77 74 59 26 4 -9 -6 -7 -6 -5 6 22 20 20 33

GFSNGP_con_3kmhel_096.txt.gz
Helicity
68 68 49 50 46 47 10 18 12 22 34 33 39 49 39 32 21 4 1 -3 0 3 9 9 4 4 9 7 6 -4 -3 10 16 4 9 25 39 57 73 82 82 83 86 102
27 16 6 33 8 12 11 2 -3 1 15 15 5 9 20 25 15 5 -2 4 7 6 5 12 9 -1 -2 9 26 27 32 32 30 50 58 48 34 25 23 38 60 93 127 136
17 -25 -8 55 48 46 30 11 3 22 21 23 21 39 43 35 24 18 8 -6 -23 -40 -43 3 19 30 32 33 38 47 50 54 50 56 54 53 56 52 60 53 38 51 79 103
51 -5 74 47 5 9 21 20 5 0 14 6 24 29 20 21 46 34 22 19 17 26 40 50 56 57 55 54 46 49 49 58 70 79 90 106 108 97 82 59 54 58 67 78
39 46 34 43 40 46 32 12 17 24 25 27 48 42 29 59 67 55 49 46 41 44 49 49 41 39 47 52 56 64 71 89 103 108 114 120 111 94 87 69 78 77 71 66
55 58 68 44 40 32 34 39 42 29 38 43 49 35 27 55 47 40 41 39 38 34 25 17 19 27 44 52 63 80 83 72 75 84 91 114 92 108 96 88 50 12 32 52
71 62 31 42 62 43 43 39 53 56 52 60 49 37 21 58 58 55 53 67 71 83 98 117 121 124 124 131 148 142 126 139 150 124 89 52 39 22 1 11 47 70 61 68
54 46 16 50 54 32 15 22 44 46 47 53 39 62 67 68 80 88 90 95 104 104 109 116 120 134 136 145 161 152 155 156 151 147 155 147 141 140 132 110 84 64 76 96
68 40 25 28 33 30 37 44 37 47 58 70 86 79 88 91 94 95 98 101 117 133 142 151 182 208 203 193 205 207 208 192 170 146 126 136 151 126 121 121 117 110 103 90
49 34 24 27 52 64 62 54 66 70 84 96 99 112 125 131 130 134 140 143 150 162 161 160 182 187 187 189 195 212 215 204 193 189 162 153 174 176 151 119 102 89 79 68
48 12 -3 -1 57 63 87 100 112 115 114 129 149 137 136 137 137 135 141 148 159 168 173 165 186 188 189 200 228 247 244 222 196 177 171 168 169 161 135 110 92 94 85 73
97 94 76 24 37 102 107 92 101 134 152 156 158 137 139 133 126 130 132 151 162 166 179 176 193 196 203 224 238 226 192 170 171 166 157 155 167 146 92 61 55 53 53 44
95 90 94 90 81 82 108 111 122 147 156 162 150 142 137 126 129 143 150 148 156 170 181 193 195 185 183 166 144 132 131 119 124 119 128 136 144 142 94 55 39 52 46 27
166 233 150 106 70 102 127 140 171 181 174 165 152 157 141 130 131 138 129 133 150 159 166 169 157 139 120 117 121 120 111 69 110 120 125 110 117 121 102 75 58 55 60 46
178 184 142 168 193 182 187 188 193 184 168 161 154 138 131 124 119 112 118 132 136 140 131 119 113 97 96 103 110 101 104 106 102 99 99 89 84 82 98 119 94 68 59 45
131 166 158 163 154 156 165 157 171 158 146 137 134 126 116 110 101 103 114 116 125 114 93 91 77 75 88 98 99 97 95 52 61 90 91 79 69 71 134 110 73 71 54 33
201 163 159 180 143 128 115 136 140 129 120 117 111 109 109 100 93 94 105 100 93 78 72 75 69 78 95 97 100 100 96 87 52 77 79 109 96 83 94 74 64 79 63 28
180 126 115 98 109 125 137 136 123 110 100 99 105 110 109 95 91 107 111 96 83 79 73 74 76 89 100 103 104 103 115 115 98 89 69 58 72 89 78 62 62 79 74 49
133 148 139 130 119 140 130 122 114 103 98 103 108 102 88 89 99 106 101 91 83 78 76 78 60 108 107 95 86 121 151 123 102 102 108 72 78 76 80 75 70 80 84 36
102 121 152 165 149 128 113 94 93 97 93 98 108 112 110 115 118 110 101 100 82 83 68 75 88 116 114 106 80 116 99 87 87 88 86 81 88 90 84 59 67 64 57 43
85 91 105 108 108 101 94 86 88 93 89 98 113 114 118 115 113 105 102 101 91 66 57 53 102 124 135 104 96 96 106 91 95 92 83 80 73 65 59 51 51 56 37 -17
80 94 97 97 88 86 81 80 93 85 91 108 119 117 116 116 105 108 109 90 86 34 56 99 104 85 96 55 107 110 98 93 104 98 84 81 77 71 67 58 60 1 -59 -43
109 101 107 99 93 78 86 85 76 91 102 112 120 109 113 120 105 96 103 91 74 56 71 94 56 54 67 104 108 116 114 108 108 94 86 78 69 59 31 12 -11 -36 -32 -22
113 113 113 128 130 107 100 82 69 117 92 116 108 107 108 107 120 102 92 57 36 45 65 71 66 63 77 105 113 118 122 112 114 110 92 53 66 54 45 -21 -18 -12 -4 6
144 155 159 140 125 95 104 77 110 108 113 122 110 99 97 95 96 101 94 80 48 59 80 45 56 79 121 123 131 117 110 118 123 100 91 82 58 47 33 18 11 10 6 6
167 146 150 137 115 122 138 88 111 119 121 126 119 101 97 98 97 94 87 68 79 63 82 85 99 105 109 108 107 100 106 112 102 101 76 86 82 72 61 56 51 45 44 45
152 146 167 153 145 174 159 101 122 136 128 126 117 105 95 94 99 99 82 85 86 93 91 76 86 94 91 85 84 84 89 87 83 79 82 89 86 92 93 88 81 75 72 68

GFSNGP_con_3kmhel_099.txt.gz
Helicity
63 68 41 56 39 -5 -11 -12 -14 25 11 19 30 36 32 28 20 11 9 5 18 3 -14 -14 -11 0 6 6 13 15 16 22 14 4 18 32 44 43 38 26 31 30 49 74
28 29 53 53 50 12 6 -19 -28 -15 6 -5 13 12 18 22 22 17 20 21 15 -10 -21 -20 -18 -15 -17 -8 6 5 13 16 12 23 19 9 16 25 46 65 83 97 105 92
61 41 45 65 59 81 45 29 11 25 7 6 11 19 22 21 21 16 7 -8 -23 -33 -35 -48 -44 37 35 27 25 29 22 28 31 31 47 51 40 19 21 14 22 56 80 93
80 10 55 43 40 48 45 35 39 14 4 11 -1 -12 -22 -4 17 17 10 7 6 34 45 33 29 43 44 44 41 43 43 36 39 45 51 56 67 73 85 77 73 49 40 42
46 52 44 21 49 46 33 -12 73 43 36 24 31 28 -8 20 32 51 69 77 68 57 51 52 47 46 55 58 49 46 35 30 33 37 41 37 44 48 34 19 51 58 58 56
57 48 49 14 25 37 17 -4 17 42 47 49 62 -1 -4 51 79 84 86 71 60 60 59 47 37 41 37 23 19 17 22 26 26 28 46 44 36 25 -9 -8 2 14 10 -5
101 80 27 39 54 37 18 9 11 16 20 41 23 20 36 48 67 75 79 70 75 62 35 26 22 17 20 29 57 62 69 91 112 118 116 119 129 137 122 107 75 47 14 1
91 89 29 58 85 61 34 25 15 33 46 51 55 82 85 92 98 107 103 98 96 89 94 104 102 90 88 94 113 109 109 97 93 94 93 99 90 116 129 129 123 109 95 71
128 83 68 41 63 62 60 52 43 55 60 70 85 91 106 112 127 127 119 102 92 87 85 97 104 105 91 101 138 135 137 132 132 130 125 121 129 124 141 150 147 126 104 87
168 88 68 51 58 75 90 71 73 78 94 104 109 116 130 138 126 121 116 108 94 96 88 77 96 113 141 156 155 144 140 133 122 123 100 108 120 125 142 156 176 150 126 99
169 146 113 63 92 100 115 122 124 122 110 113 131 139 143 144 131 127 124 118 114 105 96 94 123 140 146 149 146 123 102 99 100 103 104 111 117 129 148 148 157 140 113 100
189 195 141 92 92 125 161 156 135 144 148 147 143 148 154 157 150 146 138 127 124 117 118 120 137 136 123 116 114 113 115 114 109 116 125 132 134 125 92 82 72 64 65 83
146 157 135 107 95 99 119 137 152 148 147 159 169 161 167 156 147 140 134 134 125 110 111 118 115 104 100 101 109 110 111 110 117 116 117 118 119 123 123 92 59 65 56 74
68 101 97 120 73 90 151 169 172 194 186 170 166 179 166 152 142 139 135 120 112 115 109 98 87 83 86 93 95 102 105 82 115 118 128 129 127 126 126 120 101 93 98 83
46 99 95 127 200 202 213 211 208 187 180 184 174 157 141 129 126 134 134 123 118 109 98 83 79 79 89 94 93 90 104 114 111 120 123 106 110 105 103 88 87 115 100 41
55 93 128 154 224 248 253 189 185 160 147 151 137 124 120 123 120 131 124 123 124 104 85 77 81 81 85 89 98 105 101 63 84 114 123 124 120 103 95 98 95 108 81 80
145 135 163 166 145 152 134 128 125 134 137 122 106 114 120 119 117 122 110 104 98 88 80 83 84 78 85 102 109 115 117 123 73 114 125 123 118 108 101 91 93 77 64 73
137 112 160 149 162 146 131 122 134 128 116 107 116 117 120 112 102 95 87 100 92 89 91 92 87 85 102 95 114 119 128 139 132 131 124 115 115 120 107 89 83 73 62 57
49 81 123 133 148 132 137 142 126 123 124 119 113 94 96 108 94 82 100 101 99 103 105 94 66 89 94 92 97 127 142 132 119 115 115 92 115 108 98 94 92 79 65 58
75 75 116 142 146 146 147 128 132 117 102 100 104 105 85 114 89 91 98 97 98 98 79 76 80 95 98 99 98 136 130 117 117 120 122 111 110 99 89 59 57 60 54 50
104 100 114 132 133 130 117 116 113 103 95 102 104 100 118 102 87 95 103 102 103 86 71 63 86 100 108 104 113 109 118 126 126 127 121 119 101 86 72 62 61 52 57 47
123 118 110 142 147 134 117 109 104 114 119 118 116 125 123 89 87 95 104 104 97 48 72 91 106 66 76 51 114 94 127 131 137 143 146 131 111 88 70 59 52 35 13 2
134 109 124 136 140 127 125 110 110 115 132 107 123 116 119 112 112 115 119 121 87 65 74 94 62 38 44 114 91 113 126 148 149 137 141 137 126 97 77 61 48 16 -16 -8
146 161 142 152 173 167 140 113 120 107 102 121 92 120 154 114 104 116 103 75 59 55 73 74 58 42 52 103 103 120 134 147 130 124 138 83 112 101 91 79 60 39 19 12
176 206 219 218 198 143 131 149 159 118 126 102 75 127 153 130 120 113 105 97 69 69 83 59 47 41 88 108 107 120 123 113 89 91 109 121 103 98 95 91 84 68 52 38
230 229 216 200 172 164 162 200 157 147 170 139 90 115 143 135 113 99 100 79 90 70 81 79 74 60 73 94 90 87 82 73 60 79 85 106 117 122 128 122 113 102 94 90
221 216 239 210 191 185 194 186 182 142 150 149 95 125 145 136 108 98 89 95 94 89 89 81 74 47 51 79 71 77 71 53 42 60 81 117 132 149 147 154 157 156 151 144

GFSNGP_con_3kmhel_102.txt.gz
Helicity
58 93 93 88 41 2 -11 -16 -4 -28 63 59 64 51 33 7 5 17 26 23 30 29 10 -9 -8 -21 -24 -20 -10 -9 -10 -1 1 -6 -10 -7 -2 4 -3 -0 14 27 38 51
51 17 54 89 73 42 39 16 10 9 2 15 27 29 30 18 8 10 14 15 14 -3 -14 -23 -33 -39 -36 -23 -19 -24 -17 -15 -18 -20 -25 -22 -18 -12 -17 -6 9 14 25 20
93 11 29 46 66 107 89 85 81 85 45 36 44 37 29 32 27 20 28 31 25 15 22 16 -46 -43 -27 -29 -25 -1 2 1 -4 -9 -5 -3 -6 -9 -0 2 9 16 19 24
96 -13 11 24 40 46 56 51 73 47 24 36 49 58 43 52 80 70 74 72 59 54 52 42 33 36 31 37 45 52 51 47 45 43 42 42 40 37 38 32 28 15 10 11
57 39 62 18 32 59 33 -21 54 91 54 58 69 77 48 77 77 93 108 106 97 93 86 86 86 78 81 80 78 73 61 47 42 32 16 10 7 -1 -13 -21 -24 -33 -19 -2
123 83 55 37 28 40 56 -22 30 63 64 76 98 34 37 83 110 131 127 114 111 111 110 109 100 96 69 40 36 22 19 12 12 7 9 19 18 21 24 31 42 48 44 27
148 116 65 89 89 72 59 33 11 7 35 85 72 61 75 105 120 123 124 129 128 115 104 102 104 89 54 37 22 21 28 38 45 46 47 37 46 67 62 76 91 96 103 98
184 137 27 63 77 45 42 61 30 8 29 57 60 89 87 93 115 127 125 122 124 120 104 90 72 58 65 82 83 82 79 71 63 57 56 63 61 64 69 81 88 91 104 103
156 137 97 68 75 70 110 87 71 87 76 91 105 99 105 113 131 132 133 131 124 113 115 122 125 104 84 83 93 88 82 74 73 69 75 78 87 93 95 91 102 102 112 119
209 160 110 92 80 121 125 102 90 88 120 145 132 136 147 164 159 151 153 151 133 126 105 89 89 90 91 100 106 93 75 69 76 81 72 77 82 89 90 89 106 100 112 119
208 130 119 99 125 169 133 124 127 139 128 117 143 135 140 144 148 147 151 133 113 98 84 84 88 100 108 104 100 81 64 59 65 72 73 78 80 78 69 75 93 92 110 126
228 99 156 87 128 117 64 86 125 143 146 140 122 123 143 148 145 139 135 117 115 101 90 88 96 105 108 102 91 74 60 60 65 70 78 76 75 79 51 37 38 61 57 77
174 137 148 133 81 149 189 175 125 124 129 130 138 141 148 141 126 129 120 109 100 93 87 89 102 97 95 87 72 56 55 58 68 72 70 76 77 84 93 86 57 61 67 73
85 91 89 152 134 129 181 202 225 227 183 165 157 160 147 129 126 113 102 95 90 86 88 108 106 87 81 74 62 57 54 42 76 81 82 86 87 100 110 109 100 86 64 70
71 169 158 115 136 194 213 261 275 242 238 209 168 142 125 106 92 88 92 92 87 90 111 115 96 75 78 71 60 62 70 76 76 81 95 84 105 110 105 107 112 104 91 70
61 64 106 149 148 171 197 186 218 218 177 150 133 123 110 105 99 95 98 95 109 108 112 103 85 80 75 68 73 77 91 65 83 94 100 102 110 116 115 121 119 110 109 92
113 101 138 118 162 168 151 132 108 115 122 123 114 113 107 102 96 83 88 100 109 106 113 93 83 80 68 68 85 96 111 109 69 111 109 115 129 125 137 140 128 116 109 91
124 90 21 79 132 164 138 109 98 124 139 129 134 123 117 104 86 93 99 117 124 119 101 93 81 68 75 74 87 101 117 125 116 121 121 131 135 140 134 126 120 112 97 87
38 23 22 63 98 149 155 136 128 136 126 141 145 113 105 107 111 118 153 134 121 107 103 96 61 64 84 69 74 123 148 126 135 127 134 119 146 153 141 129 109 97 97 86
66 75 89 100 137 167 177 159 163 150 128 117 120 121 100 96 120 123 134 118 120 123 100 85 70 85 81 75 63 143 145 120 122 131 140 141 161 147 139 101 90 81 77 73
81 99 119 144 158 136 140 159 172 151 127 117 115 100 100 133 138 141 131 118 131 114 91 66 79 88 88 74 72 130 108 113 144 146 151 162 161 153 142 127 115 92 80 62
113 129 138 157 161 169 165 167 153 134 127 126 112 125 134 113 146 117 117 128 130 85 84 89 94 66 73 43 96 92 107 125 139 134 150 158 172 171 156 135 119 102 85 69
124 144 163 176 178 170 179 161 150 147 142 146 142 148 138 151 161 130 106 143 133 92 83 96 66 42 42 105 75 91 112 125 123 122 146 156 175 169 166 148 123 113 97 68
120 163 177 209 239 234 173 151 150 141 147 142 137 139 156 170 126 117 123 111 98 90 86 80 63 45 55 88 68 89 107 113 115 124 136 105 162 174 175 174 151 122 107 100
118 163 238 282 269 209 187 181 181 161 153 144 127 128 136 147 146 121 133 121 95 94 98 72 53 58 89 82 64 89 93 90 94 100 96 133 145 155 168 165 164 154 149 134
178 168 230 262 248 241 238 257 210 201 189 161 128 134 146 152 131 104 129 105 114 96 105 89 90 85 90 71 54 79 76 70 71 70 65 96 116 138 143 136 142 164 173 168
196 189 258 269 250 264 266 266 250 197 186 180 156 144 146 169 136 108 107 121 112 108 101 91 92 82 81 62 45 61 61 60 47 47 57 79 107 118 117 139 153 175 176 195

GFSNGP_con_3kmhel_105.txt.gz
Helicity
113 127 151 159 113 149 194 102 43 58 48 28 80 97 87 54 58 45 39 40 30 25 20 13 15 7 9 5 -3 -8 -9 -17 -19 -10 -0 -6 -14 -6 -8 -12 -4 -2 22 45
108 70 89 134 107 99 164 135 134 60 22 68 54 94 89 70 74 61 47 40 41 39 33 22 17 -16 -11 -13 -11 -12 -1 -1 -0 -4 -4 -8 -9 -18 -21 -17 -6 -4 -2 4
118 39 53 -0 28 40 70 147 141 132 89 82 81 96 91 82 92 83 76 78 70 72 69 43 -8 -0 6 5 -0 1 -7 -16 -20 -25 -27 -24 -16 -0 20 28 36 41 40 35
145 -12 -2 46 101 105 55 34 89 84 83 79 54 78 92 93 111 93 87 94 97 95 88 77 64 50 32 23 24 24 29 32 39 41 39 35 29 18 9 -3 -11 -18 -17 -11
136 120 88 42 44 -26 11 2 74 84 66 78 99 96 50 95 103 90 101 101 100 105 99 93 83 69 69 73 68 62 53 38 30 23 15 11 9 4 2 -5 2 1 -8 -13
191 150 96 101 72 59 67 22 37 38 37 90 126 95 81 84 110 113 129 129 124 119 114 108 99 92 94 77 68 60 49 33 27 29 32 30 27 30 39 41 40 50 50 47
168 165 103 102 67 47 104 60 9 1 6 86 116 103 90 105 115 128 143 149 152 139 133 137 136 121 98 81 54 44 35 31 30 32 29 23 39 37 47 56 60 71 79 78
242 209 42 103 111 49 45 59 29 46 48 82 74 94 96 95 113 129 137 147 146 148 144 132 125 107 74 50 43 41 49 57 61 59 58 63 63 65 58 53 51 50 55 66
262 266 134 94 132 104 147 172 169 170 113 77 72 88 109 104 115 124 138 151 148 142 134 125 113 83 55 64 74 76 80 81 77 67 62 53 56 65 56 58 50 46 45 49
198 192 138 137 111 69 81 106 170 198 181 191 181 134 117 123 138 147 147 142 137 129 113 99 98 96 85 74 75 78 73 72 75 70 71 70 64 54 41 43 49 51 61 75
256 160 111 91 114 71 21 70 111 132 150 144 174 172 182 167 158 139 141 140 126 108 93 77 71 76 80 85 85 88 88 78 67 55 50 56 49 46 42 42 37 42 49 58
258 158 174 115 38 36 45 19 41 90 150 144 149 177 187 179 169 173 158 141 119 97 87 85 91 91 102 99 98 97 95 81 59 45 51 51 46 52 38 22 27 28 36 67
208 158 113 83 82 99 81 89 94 89 148 146 177 192 183 181 157 153 152 125 105 92 89 90 90 98 102 109 111 97 80 59 46 46 41 43 50 56 62 63 39 47 49 66
140 106 62 137 119 72 70 65 86 117 142 156 178 163 175 178 171 146 120 102 95 93 90 90 105 107 105 106 91 70 53 28 49 49 51 54 58 63 71 72 79 84 64 54
100 172 184 144 98 93 107 133 154 169 188 210 166 125 95 100 111 103 96 89 91 80 84 95 111 101 98 93 67 58 53 57 62 58 64 51 73 73 77 86 100 119 108 73
117 84 91 118 107 96 120 130 136 144 158 150 142 125 114 111 110 109 104 99 90 85 90 107 106 94 87 77 65 64 63 41 53 70 79 80 75 84 92 107 119 126 120 98
79 76 88 71 60 65 77 101 97 95 104 130 143 145 127 110 101 99 94 95 102 106 108 99 99 96 84 70 72 69 68 64 48 87 82 91 96 103 116 133 131 122 117 96
91 67 62 40 23 23 53 85 101 110 122 144 153 142 125 116 94 97 113 129 119 113 99 98 105 94 85 82 66 69 75 82 80 81 92 93 109 130 146 141 126 114 100 80
72 59 57 55 55 55 69 105 127 134 163 179 181 144 126 113 104 115 152 144 133 108 112 117 105 108 92 70 60 83 97 92 91 95 96 101 140 139 148 142 132 116 103 85
67 71 67 66 82 97 116 130 158 163 156 176 171 157 132 120 113 129 146 123 129 110 107 100 97 111 94 74 57 91 99 89 83 95 110 129 148 140 155 123 118 115 102 92
49 61 66 82 92 107 122 161 178 159 153 157 152 126 118 116 121 137 142 147 137 114 108 91 99 98 92 74 78 119 84 82 87 97 117 134 132 127 136 152 141 131 118 116
88 90 87 110 133 139 146 157 157 165 158 139 123 122 150 132 139 127 142 154 139 98 117 108 105 83 80 65 117 98 79 86 97 104 120 118 127 122 123 140 162 156 143 134
88 94 106 137 147 157 188 179 169 161 150 144 141 140 148 142 157 155 129 145 156 118 115 113 87 69 59 123 99 94 70 70 77 90 100 108 117 114 127 140 143 164 170 163
82 103 113 130 193 218 207 185 195 169 148 137 131 142 164 167 138 122 116 129 110 112 110 106 85 68 73 104 97 94 63 65 73 80 89 71 97 108 131 143 153 158 176 181
103 129 164 187 186 179 196 220 230 202 175 151 139 143 149 155 163 144 146 156 123 113 115 89 74 73 98 97 103 89 58 64 68 68 61 83 86 102 127 140 155 166 178 171
185 145 167 202 184 197 221 275 251 235 230 177 149 154 154 152 143 141 139 152 129 109 119 103 97 90 95 95 99 79 47 56 51 52 50 65 68 85 111 134 153 165 160 183
223 201 224 207 196 216 265 270 282 234 227 222 183 167 162 159 142 147 139 153 121 132 120 108 98 80 83 93 97 72 44 56 31 35 39 51 47 72 84 120 149 165 167 166

GFSNGP_con_3kmhel_108.txt.gz
Helicity
115 92 90 126 101 113 208 179 170 81 106 67 57 102 122 102 93 77 54 51 47 36 35 27 18 16 12 20 18 15 17 16 13 16 2 -3 5 8 14 23 23 20 28 39
87 88 77 120 92 64 98 104 139 128 60 40 17 87 130 120 112 89 80 83 72 64 48 43 38 29 30 27 27 23 21 17 18 14 3 6 16 16 16 16 21 14 20 23
160 62 73 37 32 65 93 106 114 96 79 62 77 85 89 104 113 92 80 83 84 69 57 50 52 54 43 38 32 31 28 27 20 11 8 10 9 12 15 16 20 31 38 40
137 8 18 87 63 69 58 41 80 53 72 91 70 65 67 89 87 78 82 87 84 80 76 76 75 68 64 55 41 28 24 26 34 40 42 43 42 40 35 30 26 22 13 2
100 47 49 55 100 43 4 53 48 61 29 51 68 66 51 86 100 83 89 90 89 97 95 92 87 87 74 62 56 55 64 68 66 58 45 40 35 37 36 32 24 18 11 8
184 193 96 112 87 35 52 44 40 12 -6 30 93 93 74 87 91 101 109 125 139 138 129 111 99 85 64 63 59 69 72 68 62 56 45 39 41 44 42 45 52 56 60 50
243 305 166 114 100 61 9 68 43 44 38 68 95 84 104 89 92 97 118 151 168 153 135 123 115 92 89 91 87 98 89 72 55 45 36 32 36 36 38 36 43 53 64 68
317 344 263 174 175 176 116 13 53 70 69 76 71 79 88 97 111 124 146 166 158 155 148 143 130 121 112 102 113 93 67 40 26 20 33 41 51 58 65 72 76 85 84 85
291 265 213 182 136 141 105 62 36 -18 -44 43 76 73 92 111 131 142 156 160 152 143 146 137 129 111 96 105 95 73 48 42 51 55 56 52 53 54 68 85 84 80 77 69
249 148 126 100 113 81 68 92 74 86 64 40 43 49 81 123 143 156 159 152 150 142 132 121 105 99 99 92 70 56 47 52 59 62 65 66 62 60 70 74 79 68 61 61
219 143 91 73 67 101 84 81 97 120 127 71 45 47 72 105 146 163 171 170 158 140 117 110 111 103 94 77 67 56 55 60 64 67 69 65 66 73 68 51 46 45 49 51
253 121 92 72 128 100 51 35 42 52 77 115 103 90 101 120 163 185 172 149 138 139 124 112 104 89 75 79 74 70 71 79 78 67 68 61 61 57 42 29 24 28 21 45
169 91 81 48 69 65 75 88 54 53 74 82 138 150 149 181 185 176 163 149 144 126 117 116 102 86 85 91 88 84 86 79 71 68 69 71 67 59 51 46 28 34 41 46
115 106 68 109 81 129 106 64 51 78 93 116 145 163 178 192 189 159 132 124 120 112 113 112 101 94 110 112 103 85 79 62 73 79 73 63 50 49 62 62 69 70 67 68
72 102 48 34 107 82 72 71 73 91 114 143 167 176 172 165 140 121 129 124 117 112 105 102 106 117 136 120 97 88 83 80 82 73 63 52 61 63 83 89 96 102 93 78
111 92 75 52 33 31 46 67 58 53 88 110 124 134 138 140 141 137 132 126 116 103 126 128 119 123 113 106 98 98 91 69 65 70 67 72 72 79 89 98 107 108 116 112
112 85 78 73 61 50 49 47 54 52 64 77 102 144 154 152 147 134 121 104 101 128 151 142 131 132 121 111 97 86 90 80 63 73 67 67 74 89 92 107 125 134 132 108
85 72 88 73 74 62 56 59 68 76 87 95 134 150 150 141 121 116 117 110 119 134 142 138 124 121 107 102 95 87 77 79 79 74 62 65 79 94 111 119 120 134 132 102
100 72 67 62 61 64 68 72 88 101 113 138 162 133 128 125 127 125 130 119 120 124 140 162 147 118 106 107 98 95 87 81 86 64 66 62 83 95 109 110 118 114 126 110
104 79 70 68 68 75 71 81 113 128 129 140 145 159 145 131 130 133 135 116 124 134 171 169 140 123 110 108 96 98 86 90 89 68 74 73 87 97 101 95 107 97 103 107
88 95 87 81 75 79 77 103 134 146 153 149 150 137 129 126 122 140 144 131 139 140 153 163 141 130 122 108 94 110 97 95 90 69 69 71 79 88 94 95 100 91 86 104
96 95 76 79 79 81 97 112 129 166 177 166 153 147 137 119 122 126 118 128 162 147 137 150 138 125 113 91 132 103 93 98 85 64 66 67 78 85 91 94 95 99 107 113
95 90 86 88 78 78 121 126 138 171 187 181 172 160 143 124 129 144 130 123 136 137 136 149 127 104 97 137 118 100 94 97 72 56 59 63 68 74 89 94 102 109 109 125
112 93 86 107 122 112 111 113 145 164 175 185 169 172 170 153 132 126 137 152 153 131 139 143 121 101 94 123 112 100 97 96 62 48 53 42 59 64 72 85 100 101 118 121
177 144 133 130 155 121 139 116 150 177 179 182 188 188 166 146 139 139 145 139 128 127 139 118 117 99 107 108 104 96 97 92 50 41 45 49 50 47 55 75 92 93 113 132
235 229 197 174 193 253 254 195 146 188 219 208 218 219 200 169 152 151 160 151 138 129 131 126 130 110 102 102 98 90 90 81 42 45 41 40 38 27 38 69 81 87 114 142
282 225 252 293 312 250 239 246 205 188 211 231 228 248 233 195 167 157 144 142 128 131 128 121 127 108 95 94 89 85 85 72 35 40 35 32 27 8 25 60 69 86 111 140

GFSNGP_con_3kmhel_111.txt.gz
Helicity
65 51 50 84 90 77 151 184 112 57 56 15 19 77 85 123 115 106 93 81 75 66 60 63 47 37 26 20 19 16 21 23 17 16 25 29 33 26 26 23 18 19 20 33
57 61 31 86 71 59 76 81 107 103 77 59 7 5 30 112 131 113 97 93 94 91 83 76 71 61 61 48 41 33 34 37 34 27 24 23 23 23 28 32 39 41 51 54
148 10 7 33 33 -17 59 72 76 86 63 1 2 38 15 37 83 91 88 85 91 83 81 82 85 89 84 80 68 57 47 46 38 33 30 33 29 25 30 35 40 45 52 50
220 54 36 57 114 84 22 17 47 46 32 20 33 34 59 50 45 68 70 65 77 87 91 97 102 94 87 70 58 51 43 39 41 38 36 36 35 37 40 44 47 45 36 32
253 252 180 71 65 78 54 -15 27 38 35 16 14 39 31 64 51 41 54 68 82 100 118 124 104 105 82 72 59 46 49 53 60 60 52 49 46 44 38 31 20 16 7 2
262 313 242 257 192 149 80 116 108 49 4 -11 43 -7 141 131 44 63 94 126 139 157 156 126 125 116 96 80 67 56 75 61 54 51 48 43 36 25 22 14 13 18 15 7
280 312 290 120 213 182 196 229 220 112 52 21 20 -7 76 89 77 66 85 110 135 146 131 136 158 124 94 76 64 104 80 76 68 62 53 46 41 36 32 29 30 26 26 38
248 309 169 260 304 284 227 185 144 122 104 92 67 36 49 63 85 126 141 148 138 149 171 172 150 122 101 100 133 103 98 92 86 77 65 51 31 29 29 27 30 33 46 53
257 215 190 235 230 200 189 101 107 83 86 100 99 60 57 79 96 132 152 148 143 165 177 156 138 127 120 131 120 111 104 101 91 75 55 45 40 33 33 34 39 52 58 56
198 135 79 139 179 121 92 102 55 70 71 94 104 78 55 64 108 134 161 176 164 170 153 141 134 131 121 125 114 110 108 95 81 64 55 42 48 42 42 46 59 59 53 52
200 151 73 68 54 42 70 127 114 83 83 82 87 93 81 81 123 144 172 179 161 149 147 148 146 127 123 120 127 120 108 93 80 78 60 62 62 52 52 54 60 60 55 60
285 100 100 60 104 133 141 112 84 80 82 75 82 96 97 113 136 154 177 179 164 154 155 165 152 140 139 137 131 119 104 99 96 88 78 76 68 66 57 59 53 44 32 54
165 102 122 90 118 122 99 76 94 117 96 53 65 81 94 125 155 172 181 172 159 155 160 151 131 132 132 137 137 123 103 86 81 81 86 93 88 87 76 67 49 41 38 34
103 85 61 124 103 122 110 98 92 74 62 77 71 94 109 146 174 175 165 147 155 154 144 134 129 125 141 141 131 110 95 80 105 100 97 95 99 103 87 65 65 73 59 47
144 136 100 93 110 111 97 79 65 64 75 102 104 114 123 144 148 150 165 170 159 143 130 123 131 149 168 151 133 116 108 117 101 105 96 88 102 100 88 79 81 83 93 81
111 98 96 88 77 87 80 77 71 64 86 105 121 127 118 135 160 176 168 158 150 125 107 115 139 160 178 158 134 127 117 100 105 96 94 102 111 95 87 91 102 110 112 118
186 131 114 100 100 88 96 94 82 85 104 116 114 132 152 171 177 163 145 131 119 118 119 128 137 167 177 160 137 129 125 125 94 97 103 109 97 91 92 104 116 118 122 121
133 124 124 106 114 101 101 106 102 100 111 121 145 160 171 173 157 156 150 145 133 127 116 119 136 156 164 153 138 125 130 124 109 103 101 106 87 92 103 112 117 115 120 106
72 82 96 104 95 91 92 97 104 117 138 158 187 163 161 156 165 172 164 158 138 127 108 129 142 154 141 143 135 125 128 122 107 104 112 85 80 86 97 106 112 113 112 103
85 123 126 101 106 98 95 97 96 112 130 153 169 188 175 167 166 164 156 139 124 135 175 163 160 134 138 138 122 133 120 110 104 103 119 92 74 81 91 80 95 108 110 106
106 117 108 104 97 95 96 106 116 120 146 162 181 177 173 183 173 172 168 146 124 136 141 151 151 140 149 140 130 127 130 111 109 110 123 83 64 67 75 77 92 105 111 112
98 90 75 83 90 89 97 109 110 126 153 166 174 187 203 206 196 170 142 144 173 161 171 160 146 130 147 129 113 127 128 117 111 115 119 73 62 63 65 69 87 95 110 122
113 106 93 95 101 94 131 121 119 114 130 153 179 189 192 205 226 215 167 127 169 155 159 147 133 136 126 115 126 126 125 117 107 111 106 64 58 57 61 64 82 91 111 126
160 146 138 152 191 181 143 124 139 119 75 187 158 189 216 212 207 186 187 176 143 149 152 144 131 125 118 125 135 123 121 111 105 108 88 46 56 53 51 60 75 85 108 117
200 204 226 235 219 196 185 212 237 212 232 250 184 165 186 195 195 204 204 186 151 156 153 124 110 116 131 128 127 118 115 107 102 105 69 53 52 48 40 47 65 74 96 113
255 293 257 228 240 261 280 318 274 255 279 269 268 216 199 213 214 257 228 186 178 146 157 151 135 138 131 122 119 108 106 99 90 95 64 46 43 41 34 31 58 70 93 108
199 191 254 290 266 277 335 339 336 261 295 264 276 296 257 263 237 261 238 227 206 180 157 156 137 126 131 118 113 104 102 94 79 82 55 43 41 39 25 3 48 67 82 90

GFSNGP_con_3kmhel_114.txt.gz
Helicity
60 32 9 69 104 126 207 295 262 220 144 187 -8 -93 -48 162 190 164 165 122 100 111 105 128 139 112 85 79 70 48 35 41 33 27 25 21 24 23 25 27 29 32 40 46
61 45 53 71 81 109 146 57 107 123 109 86 61 49 92 79 119 220 171 134 123 124 127 123 142 131 139 99 90 72 68 67 56 43 28 21 18 18 22 29 37 47 54 57
161 37 -12 90 65 107 73 2 8 69 94 52 67 68 64 66 77 129 163 172 174 174 172 171 153 167 141 135 119 110 94 86 75 62 38 30 32 34 38 44 42 40 41 43
297 107 164 135 123 93 155 154 115 87 22 2 10 42 64 90 95 78 82 135 155 185 207 212 234 222 197 162 131 129 105 101 100 79 56 50 44 39 33 23 22 26 34 35
227 264 276 118 124 204 228 124 145 179 77 46 25 23 -25 89 97 73 66 115 152 190 219 261 248 205 175 154 134 115 93 110 93 76 68 65 65 55 42 42 38 37 38 42
238 255 183 179 205 225 192 164 106 174 177 137 153 103 37 110 108 60 63 93 155 244 299 299 239 213 150 113 120 96 134 108 93 88 81 71 63 56 50 45 38 40 37 31
241 262 217 124 235 208 180 154 232 220 170 151 157 127 111 111 95 69 71 111 174 253 261 218 239 189 133 122 121 135 123 102 94 85 77 62 60 58 52 54 58 51 30 22
238 286 137 200 242 225 173 235 218 199 164 160 128 110 110 107 156 108 122 167 192 227 229 225 197 160 138 147 162 144 118 93 78 82 84 79 69 65 60 53 48 43 44 46
264 253 183 309 270 201 315 290 261 206 150 134 119 113 87 102 153 163 144 162 166 210 232 174 161 150 142 155 161 137 117 105 104 91 85 84 86 78 73 62 57 51 54 51
279 250 156 225 320 233 254 251 196 142 120 113 100 100 93 98 131 191 207 206 192 218 217 185 163 157 164 188 156 141 128 116 108 107 99 96 86 85 77 72 74 71 71 59
266 256 159 84 48 30 101 163 219 203 157 125 109 97 95 100 121 180 228 232 213 202 186 169 173 161 174 160 160 143 124 125 132 134 127 103 102 100 97 85 89 88 75 70
318 172 181 147 127 197 192 189 198 183 149 148 142 109 91 105 117 189 241 243 218 193 195 200 184 170 162 154 154 146 152 159 152 137 118 129 118 113 78 52 52 49 42 57
182 167 140 131 174 171 158 138 151 132 157 133 116 119 113 133 147 199 229 215 189 178 173 182 170 157 152 156 165 172 178 151 131 119 124 118 120 116 105 90 56 44 42 47
164 135 108 159 156 131 159 127 151 137 125 117 103 101 133 166 212 222 205 180 173 176 173 168 153 134 136 165 181 179 153 119 128 123 117 121 118 113 117 113 74 67 70 62
-18 121 170 224 218 175 133 145 131 116 110 102 115 99 146 185 193 185 194 194 201 185 156 151 142 124 153 178 170 157 149 139 127 132 123 113 117 114 130 101 79 84 96 94
118 87 118 153 140 116 109 115 111 107 93 90 112 115 135 148 163 197 220 213 206 148 135 141 135 124 167 170 157 150 148 106 110 133 129 119 121 126 121 93 89 101 120 121
258 155 150 126 103 101 102 110 113 111 104 107 111 129 153 167 189 196 179 160 146 135 129 140 129 144 171 165 151 146 148 133 108 126 130 122 118 133 108 95 105 116 124 123
202 178 136 133 100 84 85 96 108 106 108 109 126 155 168 181 169 166 165 169 164 143 137 134 140 156 164 162 144 143 145 133 126 129 131 127 117 127 96 90 97 113 116 111
130 167 87 77 68 75 78 81 93 106 120 138 166 159 161 163 173 172 188 190 172 147 107 129 125 149 164 145 140 156 151 127 125 131 127 103 122 106 78 78 85 103 116 110
82 78 16 29 89 96 72 75 86 99 120 146 158 171 164 156 177 186 190 170 171 153 122 147 163 179 150 136 123 168 147 122 127 127 128 117 126 98 66 47 65 86 95 96
-1 -17 -2 38 65 73 73 77 79 82 117 153 167 151 150 168 199 206 190 164 139 148 180 172 182 159 148 147 141 174 137 115 129 137 126 115 118 77 54 54 66 78 83 91
72 48 72 73 81 72 72 87 73 85 128 147 141 153 167 173 190 194 171 185 142 137 189 193 183 135 150 126 164 147 118 128 135 139 126 112 117 64 48 47 61 63 77 103
107 160 153 123 138 140 144 142 144 149 143 155 162 162 154 151 268 254 180 139 176 166 202 190 149 118 108 143 152 134 144 139 136 132 120 112 101 51 44 49 52 58 63 89
110 147 199 186 196 222 160 180 198 202 207 202 218 189 182 263 283 219 170 171 134 146 193 182 139 119 122 154 133 159 148 134 130 124 116 86 81 45 43 45 45 56 62 80
93 131 178 226 247 214 212 233 248 269 270 231 237 283 259 276 323 326 267 246 169 141 174 131 125 128 150 161 145 153 140 127 123 125 116 102 75 41 41 42 36 51 69 79
148 199 220 227 243 232 229 266 289 318 321 327 337 360 323 266 345 392 308 270 239 165 192 178 173 163 174 162 143 141 130 113 107 107 105 103 65 38 33 31 -1 35 58 71
216 200 219 195 201 237 303 322 341 328 361 408 412 403 347 282 364 401 347 333 259 216 214 197 190 158 171 148 132 136 118 109 101 112 105 96 61 37 27 25 -12 9 29 46

GFSNGP_con_3kmhel_117.txt.gz
Helicity
62 32 10 102 147 140 252 341 343 258 150 257 149 124 107 153 173 231 250 207 155 128 116 99 126 137 149 137 129 119 105 97 80 71 66 61 57 51 50 54 55 59 63 67
124 40 51 119 108 138 213 244 320 265 201 139 41 -11 8 31 70 121 163 213 168 121 132 179 212 196 176 153 129 125 117 100 87 87 76 66 58 55 61 63 62 61 59 56
138 97 35 97 92 107 135 175 254 326 282 55 -14 10 -16 2 28 50 80 139 152 139 160 210 246 242 220 179 155 131 112 100 99 95 82 71 65 66 67 65 57 55 50 51
207 84 79 117 116 86 145 135 223 261 213 168 101 22 3 6 -3 29 93 109 113 147 174 213 241 254 234 200 156 130 113 119 124 113 93 77 71 72 65 55 52 49 55 62
159 201 200 -20 21 85 147 77 133 213 168 148 119 89 33 80 49 79 100 85 75 117 181 238 300 315 267 201 175 151 132 142 130 114 96 82 77 74 65 59 53 50 49 62
238 226 146 140 122 122 121 74 68 83 106 162 196 159 87 83 99 127 146 127 113 137 206 285 290 303 240 194 176 150 159 144 133 114 94 81 83 87 80 73 62 61 68 67
196 230 150 127 123 141 126 101 104 138 160 201 187 166 115 121 105 115 116 155 170 194 249 256 278 268 213 178 152 150 165 149 129 106 95 93 96 95 84 77 77 79 69 67
211 243 80 120 150 176 112 162 166 190 191 197 173 101 121 115 105 115 150 177 181 224 233 235 241 233 198 171 159 167 154 139 116 105 110 113 111 111 111 105 101 98 91 79
255 228 214 237 284 189 204 209 213 218 187 178 141 110 113 100 99 121 158 164 158 186 215 196 190 179 184 151 171 159 148 119 108 108 109 113 115 111 105 101 108 102 102 94
282 368 269 241 217 235 287 268 224 224 218 208 166 121 115 109 111 117 155 186 191 208 199 178 158 156 145 163 161 149 123 112 112 121 119 129 123 107 116 110 114 114 105 100
284 252 220 215 161 171 154 152 200 221 256 235 210 149 135 124 112 118 152 199 214 217 193 160 155 143 141 144 145 129 121 122 130 134 130 114 114 120 116 110 112 106 104 102
427 181 187 135 136 135 134 127 127 159 177 172 172 147 154 146 123 128 154 208 219 183 170 150 159 143 135 133 134 131 129 139 148 140 125 116 109 110 109 99 87 68 62 62
239 158 178 182 135 162 171 158 165 179 162 159 159 171 167 150 129 117 157 209 216 188 160 174 165 137 128 127 127 131 136 150 142 135 126 114 121 110 103 93 74 73 45 29
113 108 99 141 161 159 173 161 156 151 138 132 125 137 136 131 122 147 173 177 175 173 174 177 161 135 121 121 131 135 147 126 142 139 125 125 115 118 119 102 86 80 55 38
96 125 133 153 145 215 238 232 167 125 119 104 103 100 105 99 114 134 139 156 168 176 169 169 155 121 120 137 143 145 145 136 138 137 130 118 117 115 115 100 105 70 55 59
141 166 152 116 100 172 183 150 134 117 104 93 92 96 89 97 116 130 148 185 214 167 160 160 137 122 137 148 146 143 133 112 118 143 133 120 122 124 113 107 110 64 63 77
101 119 156 162 121 184 130 101 93 87 85 79 77 85 101 111 118 128 133 150 151 139 140 152 129 144 148 154 154 145 140 137 115 141 136 118 128 128 112 115 95 60 68 76
96 120 117 121 79 92 70 59 60 62 70 64 69 92 109 130 120 132 136 159 147 127 120 138 143 155 160 157 155 151 148 143 143 148 126 117 121 129 109 111 76 59 69 73
79 96 57 74 43 3 23 62 69 68 63 64 81 92 102 113 144 145 162 171 158 137 99 151 141 159 165 147 152 160 155 149 149 145 127 97 125 117 105 115 74 62 72 77
41 50 55 73 48 42 55 75 55 64 60 68 44 119 111 103 135 157 173 159 155 167 145 145 148 171 167 147 126 167 157 146 146 133 129 127 129 119 102 83 45 48 62 74
-8 12 98 120 74 67 82 82 80 83 68 101 117 91 139 157 169 175 195 154 148 155 133 133 157 165 179 167 147 173 158 142 141 135 127 121 118 112 98 91 55 52 58 71
48 49 56 64 70 117 156 141 134 128 126 121 143 145 126 161 205 215 203 161 209 154 171 204 210 139 167 141 173 162 151 135 141 137 129 126 127 113 101 79 47 49 56 67
115 124 56 -15 -7 72 102 139 175 198 150 162 174 188 181 193 321 241 146 183 235 248 292 243 197 116 111 155 183 164 146 128 147 147 127 124 126 107 98 71 41 46 51 49
111 68 116 111 74 83 96 116 177 213 211 200 201 228 275 293 267 246 217 257 223 254 370 296 166 107 100 168 180 164 145 140 142 135 117 100 122 98 88 64 39 46 51 41
167 162 179 160 163 122 111 139 193 216 234 257 252 279 294 356 384 326 340 276 311 330 344 259 139 114 135 178 176 155 137 135 131 130 116 116 113 94 83 53 37 33 56 34
169 183 181 189 171 148 125 170 193 208 281 278 302 404 432 476 502 486 427 294 361 365 363 327 203 172 189 189 168 148 134 120 109 110 108 111 111 93 87 54 33 34 -17 -5
224 199 215 207 183 143 146 167 184 168 204 258 336 393 439 488 580 575 435 404 415 384 376 301 226 211 231 176 155 136 123 109 100 106 95 100 98 85 75 46 28 -12 -14 -8

GFSNGP_con_3kmhel_120.txt.gz
Helicity
82 80 123 219 231 212 398 480 496 371 370 528 167 142 80 14 8 40 80 138 197 186 149 127 100 93 92 91 101 111 106 99 88 91 89 84 80 74 73 78 74 71 72 68
86 94 89 143 153 228 261 264 334 347 331 270 147 68 22 -7 9 32 67 100 148 196 168 128 111 120 135 134 121 137 121 107 106 102 100 92 86 82 86 87 86 84 79 72
63 19 26 73 68 104 165 166 239 244 325 170 121 134 111 85 73 78 58 66 126 183 167 118 113 155 200 197 171 168 147 127 115 112 105 91 85 81 79 80 83 81 74 69
130 11 36 63 56 94 186 205 259 222 240 270 197 140 95 89 82 48 33 33 78 120 148 157 159 196 230 244 233 200 171 153 147 134 106 99 96 94 90 91 87 82 79 79
84 98 147 -13 39 61 73 80 105 110 100 137 126 105 94 104 104 82 75 88 106 102 114 171 208 238 264 272 242 203 170 160 153 136 124 114 102 98 92 88 83 80 78 82
191 130 47 57 68 64 69 13 76 7 35 90 162 128 137 107 107 112 118 115 101 110 123 145 185 284 306 265 240 189 168 152 152 140 130 115 107 97 89 89 91 97 101 102
105 118 74 86 61 131 81 92 109 63 67 140 193 158 131 96 69 112 109 100 110 119 122 153 240 295 272 243 184 155 172 174 159 140 121 113 108 106 104 110 109 106 107 108
167 180 19 107 134 155 120 138 119 132 138 177 148 122 149 107 90 106 94 126 139 149 153 180 231 264 229 183 153 181 182 164 146 124 113 118 119 121 121 114 105 106 106 117
238 214 179 233 248 197 221 175 152 195 177 191 198 186 158 144 122 113 118 141 168 176 189 185 194 208 201 146 185 187 172 153 127 118 120 129 138 132 129 124 118 109 113 114
276 258 204 246 242 235 250 209 207 236 206 210 209 207 181 164 131 116 117 127 176 220 209 194 177 170 143 169 180 178 155 125 113 124 128 137 134 124 126 122 118 118 122 118
233 173 116 99 131 96 133 151 169 163 174 157 188 173 187 169 143 127 120 135 187 235 215 183 180 160 161 171 188 166 136 118 118 127 135 139 136 133 127 116 119 128 125 121
156 141 135 126 121 89 89 119 111 141 150 139 174 162 181 151 141 138 120 134 165 193 191 175 183 169 163 168 166 154 134 124 124 136 146 145 138 131 113 99 102 94 96 105
30 115 99 107 118 115 137 117 169 167 147 131 137 144 154 145 132 105 112 114 140 157 168 179 178 163 156 165 161 147 128 129 133 139 148 144 135 129 126 126 96 98 95 101
122 128 107 97 79 74 96 102 140 145 143 145 133 119 130 128 115 114 108 115 136 180 177 168 169 151 156 166 155 141 125 108 139 141 146 146 141 125 122 116 116 115 103 85
119 95 129 109 100 88 88 81 145 173 182 155 125 112 111 104 102 89 84 112 137 150 154 163 161 129 162 167 157 146 138 132 138 142 150 143 143 129 121 124 129 106 108 77
119 128 120 107 109 123 142 139 173 185 165 133 98 76 69 74 71 65 82 116 166 140 153 156 137 119 163 176 167 161 139 114 134 149 152 152 146 127 118 123 136 107 109 70
106 162 289 360 252 185 188 229 178 165 121 84 58 50 51 52 56 54 61 82 102 121 136 150 119 136 159 167 179 174 159 143 121 148 156 155 151 126 116 123 129 105 103 61
78 79 110 84 96 180 165 69 44 47 58 62 51 46 67 78 71 77 77 97 114 112 114 115 128 130 163 174 171 182 169 157 156 155 154 153 138 124 126 128 118 107 87 57
46 12 -11 -1 0 6 56 106 135 128 97 73 75 84 92 35 91 100 114 133 121 102 88 135 119 132 159 187 166 181 179 170 158 157 151 130 133 134 121 126 113 106 80 53
48 52 45 70 75 76 34 60 63 84 123 89 93 108 100 106 141 113 190 200 204 156 155 133 209 189 204 171 152 180 170 166 159 151 150 148 139 133 128 109 101 104 78 55
-59 -11 58 75 97 86 110 101 96 61 102 142 159 167 139 140 182 201 184 150 213 223 208 175 261 219 236 213 189 217 163 158 157 151 147 140 134 123 122 127 106 100 68 57
-58 -22 63 138 155 141 170 95 74 63 96 147 156 182 230 174 199 212 250 277 297 187 215 233 241 227 307 225 229 248 183 150 151 150 150 139 136 126 119 124 105 95 65 55
50 83 123 177 152 132 132 138 119 88 91 127 162 173 196 230 283 311 259 250 282 232 268 249 234 229 294 282 240 241 197 156 142 140 139 133 130 123 120 117 99 84 63 53
105 128 172 217 193 163 127 112 139 135 119 97 156 172 200 228 236 264 228 324 337 303 311 215 224 264 325 324 265 253 203 167 142 129 128 106 126 120 113 106 93 71 56 36
103 116 165 175 132 167 153 142 151 148 143 128 129 165 186 213 220 147 200 304 327 424 401 279 218 301 374 322 277 243 215 182 145 125 122 120 119 113 105 103 88 74 58 54
98 153 139 131 167 159 146 164 201 166 171 134 114 132 144 165 185 212 352 364 390 449 526 405 328 395 390 322 256 246 221 178 129 109 109 109 111 106 99 91 84 65 48 38
99 100 103 150 184 193 198 213 196 171 155 146 106 100 129 118 148 167 220 356 415 457 480 374 351 347 361 298 244 241 230 185 128 110 106 110 107 103 95 84 76 62 52 39

GFSNGP_con_3kmhel_123.txt.gz
Helicity
45 52 96 194 212 213 381 452 427 330 299 374 162 141 134 112 88 58 22 47 111 133 172 202 171 134 127 129 135 133 126 119 106 109 103 89 83 79 77 87 89 87 87 76
63 52 51 107 128 177 207 218 305 313 267 302 158 95 115 123 125 67 55 97 103 100 137 179 164 146 155 142 157 193 155 132 130 135 118 103 100 94 91 94 96 90 83 76
15 3 -18 26 59 66 92 143 183 188 255 170 148 206 172 137 144 115 100 96 60 71 126 165 162 147 175 164 203 211 177 153 149 142 125 123 114 99 90 89 84 77 68 66
80 32 26 52 107 151 172 145 242 174 113 98 150 150 129 133 152 104 104 84 53 61 89 121 153 171 156 203 203 219 204 181 161 148 139 131 111 92 85 92 90 80 77 79
30 54 32 -1 55 62 101 40 111 102 20 -6 49 76 99 147 123 103 106 89 76 83 99 97 128 170 203 213 223 254 211 186 165 163 152 131 109 98 106 105 94 96 98 96
137 57 9 26 66 45 55 31 82 97 -15 3 60 92 149 93 101 77 72 57 79 86 103 100 100 178 242 244 275 243 216 183 175 177 153 129 117 118 118 117 113 113 104 98
116 86 32 69 97 82 18 36 98 26 -14 70 129 137 143 126 121 102 82 93 101 106 99 87 122 187 222 278 238 216 218 199 196 171 147 129 126 131 131 127 123 110 107 110
110 43 -21 63 79 82 72 47 16 51 83 109 150 137 146 129 129 115 111 102 100 115 103 107 132 183 204 195 214 232 219 206 179 156 146 144 138 137 141 134 120 109 113 121
108 98 137 129 149 139 135 104 89 139 103 169 137 168 139 138 145 135 137 117 121 123 106 127 148 187 196 174 233 229 227 195 167 155 139 134 137 142 146 136 125 116 117 124
144 166 106 118 178 188 129 94 66 69 113 138 134 125 147 107 139 145 128 121 123 126 131 128 157 173 178 204 218 234 216 179 162 150 129 131 139 151 142 137 126 122 126 124
175 104 110 98 38 14 47 48 62 76 117 130 121 157 164 158 142 140 126 123 132 131 142 134 190 188 198 202 226 220 198 185 161 132 121 138 141 143 142 134 138 131 131 133
119 150 88 63 41 73 88 90 86 82 70 92 169 175 169 156 131 120 110 103 105 108 124 145 196 192 193 198 204 219 191 176 166 149 132 140 147 138 120 108 97 90 88 106
130 103 21 51 62 65 73 65 62 71 98 116 115 164 171 164 142 116 100 96 100 102 113 158 187 180 188 199 204 183 164 175 153 143 149 147 146 146 145 156 124 102 102 107
93 101 108 148 146 112 68 68 74 97 123 136 152 172 160 142 142 127 106 93 84 87 103 138 159 150 182 200 193 157 174 134 162 153 154 147 146 148 155 154 143 136 129 123
212 168 109 59 39 41 15 49 100 140 144 178 162 143 134 135 127 104 86 67 65 72 82 115 136 138 187 202 190 167 201 172 171 162 162 140 146 149 149 152 138 123 122 129
299 271 182 107 45 10 -37 18 64 110 152 165 153 127 94 76 91 103 72 64 73 75 82 99 116 134 178 193 188 176 192 133 153 166 165 150 155 154 149 148 132 120 113 117
241 296 216 187 144 126 106 41 35 71 86 84 87 89 84 84 105 66 8 28 90 99 80 113 88 146 182 190 173 180 212 196 133 170 160 149 155 155 148 151 134 128 124 109
115 121 124 62 81 74 41 44 89 112 108 101 96 86 80 101 104 40 -19 58 141 122 133 144 128 153 194 189 195 246 236 219 201 171 155 150 146 146 143 143 134 123 121 108
71 72 66 71 -9 30 78 97 110 117 103 111 88 92 97 119 137 143 133 116 123 132 102 214 164 180 193 178 199 238 276 239 223 179 155 117 124 142 142 142 128 118 116 109
59 -20 -73 -45 13 56 72 117 149 152 145 144 126 125 132 115 153 118 164 180 195 183 175 203 204 194 221 223 218 318 286 246 219 199 183 141 129 129 130 116 115 110 113 111
-123 -237 -166 -36 11 85 109 129 145 157 125 135 126 114 127 107 125 163 167 157 95 185 210 250 238 209 253 275 264 297 305 279 222 229 194 142 126 123 125 123 121 111 111 106
-115 -92 -40 6 44 65 109 128 137 121 104 117 136 148 130 113 121 142 161 200 158 106 234 287 273 222 218 227 293 303 334 304 227 232 212 153 128 118 114 116 119 109 107 99
-22 6 30 55 76 99 113 160 161 135 126 130 143 128 147 164 169 176 142 128 174 184 278 284 246 159 182 297 339 314 327 337 275 240 223 171 136 113 110 114 121 110 107 98
60 86 93 113 128 153 146 118 122 135 147 162 168 161 178 174 171 208 180 108 131 136 200 265 267 242 230 296 294 349 327 322 282 236 218 167 148 116 107 112 115 106 104 74
160 139 125 113 101 126 103 115 125 125 137 128 128 160 173 197 223 150 138 133 101 161 224 196 210 314 413 382 325 381 357 274 271 234 229 212 163 119 103 114 108 100 92 85
117 147 138 109 141 141 146 143 155 152 152 144 118 141 158 181 172 126 109 103 127 112 158 214 284 380 462 430 344 363 328 239 227 204 212 200 157 111 102 109 98 86 84 74
136 94 96 88 108 112 141 166 175 172 147 157 158 131 143 152 156 116 98 127 112 120 130 213 269 358 419 382 345 346 259 236 220 217 209 195 151 105 103 102 88 87 80 66

GFSNGP_con_3kmhel_126.txt.gz
Helicity
6 24 65 120 134 176 334 366 289 262 223 298 124 124 122 140 128 118 111 109 79 67 91 112 146 188 207 190 209 216 201 182 150 147 140 131 117 100 86 72 62 61 64 66
-13 3 11 91 110 160 192 185 233 237 162 172 106 82 111 125 130 111 95 82 81 81 78 69 120 164 188 180 192 252 231 190 182 171 160 143 126 103 87 80 82 81 74 66
-6 27 -26 29 102 89 141 138 152 161 197 74 22 21 73 113 143 110 96 81 73 75 68 53 102 156 167 168 202 239 223 207 208 197 188 163 135 113 93 84 87 85 84 80
56 31 48 33 27 92 155 106 167 139 142 87 64 39 70 118 135 122 101 87 77 80 59 66 86 103 128 174 230 243 222 239 235 233 215 180 148 117 104 98 92 91 88 92
58 57 82 50 43 19 30 71 59 67 35 40 -17 -2 27 55 86 107 93 67 78 58 59 80 77 84 111 158 207 250 241 249 266 263 230 187 142 111 103 103 103 104 109 111
124 67 18 42 10 19 -14 -9 67 59 -32 -58 31 29 70 13 62 87 103 106 69 61 94 92 90 108 121 144 209 220 228 250 283 263 219 180 144 123 110 109 104 118 119 113
113 88 31 44 10 -41 18 18 47 -22 -25 22 62 105 96 115 116 168 152 117 100 107 125 103 107 121 111 137 157 172 242 284 284 231 202 166 148 142 128 110 116 124 114 109
115 60 -2 62 49 5 58 26 14 52 43 47 60 69 116 117 132 147 148 136 132 163 137 117 134 152 133 141 161 212 258 284 250 221 205 176 152 134 122 132 129 118 118 109
96 74 80 66 76 95 48 98 45 34 34 53 57 56 64 108 88 119 160 152 145 153 135 113 132 149 141 152 202 243 274 256 236 219 192 166 155 137 135 130 136 125 123 119
140 68 59 75 63 94 60 61 38 51 63 77 69 69 81 100 107 146 154 131 143 169 160 127 129 148 159 185 221 263 259 239 231 215 191 168 141 136 135 137 128 130 131 127
162 68 96 125 54 23 13 47 50 47 52 49 70 83 97 105 129 168 147 127 137 146 165 138 137 149 190 220 256 252 241 231 209 200 158 145 136 137 130 130 134 136 138 135
89 114 60 15 72 88 51 60 61 52 58 58 58 82 87 91 129 138 123 120 135 139 154 123 132 144 195 245 248 255 244 225 206 191 177 161 160 127 95 88 87 77 81 114
130 130 84 92 64 71 103 84 35 26 40 12 47 77 77 91 95 90 110 117 121 120 113 124 130 137 166 198 215 216 207 208 203 166 185 177 160 140 114 125 99 88 97 105
168 179 218 164 140 126 56 -14 -61 -34 5 20 16 31 38 66 76 73 80 84 91 96 100 98 101 110 148 196 195 191 191 170 202 182 182 184 160 152 131 130 115 108 121 125
252 154 123 117 133 130 97 51 96 101 89 82 56 53 46 53 68 63 80 73 71 75 56 65 72 79 147 192 191 183 198 204 180 173 196 179 156 158 125 131 119 111 112 121
321 273 178 141 133 122 107 148 122 108 79 66 66 66 77 76 79 76 71 60 42 1 -22 76 136 95 139 165 177 179 185 178 195 178 225 221 176 160 126 131 122 121 111 118
287 261 158 147 94 92 83 49 53 54 45 48 65 100 113 99 101 107 96 93 112 81 16 126 112 140 167 217 258 235 225 223 207 229 272 237 221 173 132 131 117 114 104 113
175 135 103 77 52 32 1 -15 -6 -10 -12 21 87 96 141 120 108 106 122 136 126 128 87 97 168 231 252 234 245 247 227 225 248 306 335 250 258 205 154 134 113 108 106 111
90 73 87 85 53 22 13 -3 -18 -16 7 31 63 106 121 137 138 129 111 101 118 130 103 128 153 162 219 254 230 259 287 286 255 286 307 229 200 199 190 160 118 109 116 119
25 47 48 60 15 -57 -47 -39 16 14 85 136 126 122 123 118 110 113 113 126 150 171 174 193 180 228 211 182 184 289 311 313 320 267 281 292 241 211 218 157 116 108 119 125
21 11 -19 -56 -69 -113 -118 -102 -35 33 88 134 140 141 124 112 89 94 102 114 115 144 141 130 233 257 284 266 257 279 260 269 245 254 272 289 253 210 212 182 123 113 113 122
-50 -70 -76 -92 -60 -38 -13 16 35 82 110 122 138 137 121 89 63 72 123 157 141 109 173 193 181 194 259 238 339 351 273 234 228 268 260 273 271 218 215 190 133 112 114 121
95 84 81 92 92 95 92 99 102 100 119 130 135 123 118 107 115 112 77 98 147 127 132 188 139 123 142 256 337 325 309 276 275 268 250 257 261 220 207 192 131 115 110 108
74 84 92 110 117 118 111 112 87 92 113 121 127 145 148 125 115 151 178 117 83 87 124 147 114 68 122 250 305 334 327 303 297 246 255 224 249 215 193 185 128 112 104 89
119 126 145 134 114 152 119 114 103 106 67 88 118 154 177 184 179 114 126 126 87 83 111 79 47 55 134 244 332 426 442 389 345 244 259 253 232 192 198 166 129 105 103 94
146 170 164 156 211 198 171 163 165 127 117 137 145 135 135 169 167 148 145 118 126 108 118 115 137 130 159 240 326 371 406 409 336 223 214 223 199 194 186 154 121 93 99 87
170 103 164 198 178 171 172 166 141 120 136 180 131 113 111 130 159 142 113 139 141 138 138 141 145 116 117 211 263 354 376 375 246 206 213 201 185 178 167 148 117 93 88 84